Date StartTime U_cm/s V_cm/s W_cm/s Ustd_cm/s Vstd_cm/s Wstd_cm/s Uvar_(cm/s)^2 Vvar_(cm/s)^2 Wvar_(cm/s)^2 KE_(m/s)^2 TurbulentKE_(m/s)^2 HorizWindSpeed_cm/s FrictionSpeec_cm/s DragCoef SpeedOfSound_m/s SonicTemperature_C Pressure_mb 
08/11/2014  00:00:00      153.803      214.875        4.118      135.556      164.350      106.989    18375.407    27010.946    11446.643        6.333        2.842      264.247       97.275        0.136      344.991       22.200      864.874
08/11/2014  00:01:00      137.257      299.021       -9.503      126.166      209.351      116.918    15917.905    43827.706    13669.837        9.086        3.671      329.018      127.618        0.150      344.958       22.142      864.873
08/11/2014  00:02:00      160.894      227.698      -15.834      141.329      145.099       95.976    19973.967    21053.649     9211.405        6.410        2.512      278.807       80.582        0.084      344.903       22.050      864.908
08/11/2014  00:03:00      114.911      210.835       -7.714      111.463      134.721       82.566    12423.973    18149.704     6817.083        4.755        1.870      240.116       85.204        0.126      344.907       22.056      864.917
08/11/2014  00:04:00      157.330      138.871       33.056       94.414       89.504       71.377     8913.947     8010.972     5094.718        3.357        1.101      209.852       53.874        0.066      344.884       22.018      864.931
08/11/2014  00:05:00       87.478       94.387       -4.705       92.917       69.623       45.328     8633.518     4847.327     2054.610        1.606        0.777      128.691       39.553        0.094      344.855       21.969      864.938
08/11/2014  00:06:00       38.732      206.060      -25.032       80.581      108.996       48.787     6493.289    11880.130     2380.139        3.267        1.038      209.669       55.600        0.070      344.889       22.025      864.953
08/11/2014  00:07:00       38.581      221.416      -23.119       46.744      113.578       57.662     2185.021    12900.039     3324.886        3.473        0.920      224.752       71.843        0.102      344.887       22.021      864.953
08/11/2014  00:08:00       -2.812      252.664       -3.234       82.631      149.020       72.347     6827.845    22206.968     5234.069        4.906        1.713      252.679       79.001        0.098      344.961       22.149      864.927
08/11/2014  00:09:00      -31.917      352.514      -49.422      105.379      139.321       60.739    11104.823    19410.304     3689.170        8.096        1.710      353.956       66.946        0.036      345.033       22.272      864.934
08/11/2014  00:10:00      -48.662      296.897      -34.119      102.626      129.496       58.865    10532.144    16769.234     3465.032        6.122        1.538      300.858       62.497        0.043      345.077       22.347      864.911
08/11/2014  00:11:00        4.252      183.978       -8.052       74.251      120.148       64.473     5513.148    14435.435     4156.708        2.901        1.205      184.027       65.809        0.128      345.075       22.345      864.902
08/11/2014  00:12:00      -29.473      261.239      -27.352       73.862       91.005       44.785     5455.562     8281.938     2005.693        4.280        0.787      262.896       34.554        0.017      345.120       22.420      864.878
08/11/2014  00:13:00      -56.407      265.528      -33.295       73.174      112.371       43.662     5354.464    12627.339     1906.405        4.734        0.994      271.453       47.679        0.031      345.164       22.495      864.859
08/11/2014  00:14:00      -79.952      120.030      -24.316       57.272       64.812       31.466     3280.028     4200.596      990.081        1.493        0.424      144.221       28.328        0.039      345.159       22.491      864.806
08/11/2014  00:15:00       -1.128      113.717        2.327       59.603      109.014       46.438     3552.471    11884.060     2156.479        1.526        0.880      113.722       51.422        0.204      345.111       22.409      864.778
08/11/2014  00:16:00      -89.828      186.671      -32.408       71.078       81.234       47.798     5052.123     6598.976     2284.669        2.895        0.697      207.160       45.511        0.048      345.183       22.529      864.754
08/11/2014  00:17:00      -59.370      164.908      -11.107       70.197       78.097       47.071     4927.619     6099.090     2215.668        2.204        0.662      175.269       49.255        0.079      345.188       22.538      864.720
08/11/2014  00:18:00      -99.675      187.243      -21.988       95.281       79.597       42.842     9078.446     6335.756     1835.435        3.136        0.862      212.121       33.346        0.025      345.224       22.600      864.685
08/11/2014  00:19:00      -51.506      124.340       -6.584       57.595       68.592       38.336     3317.178     4704.921     1469.658        1.382        0.475      134.586       41.005        0.093      345.156       22.485      864.673
08/11/2014  00:20:00      -62.267      214.459      -11.310       64.119      120.890       44.509     4111.189    14614.280     1981.028        3.535        1.035      223.316       52.072        0.054      345.236       22.619      864.665
08/11/2014  00:21:00      -63.564      117.320      -12.871       61.638       56.520       28.223     3799.272     3194.545      796.527        1.288        0.390      133.433       13.388        0.010      345.229       22.610      864.658
08/11/2014  00:22:00      -69.535       60.901        1.818       48.155       35.274       29.621     2318.924     1244.269      877.421        0.649        0.222       92.434       25.013        0.073      345.219       22.592      864.662
08/11/2014  00:23:00      -70.575       -8.035       -9.861       57.770       45.746       24.553     3337.337     2092.713      602.848        0.559        0.302       71.031       17.352        0.060      345.222       22.597      864.682
08/11/2014  00:24:00     -150.165       51.069      -20.858       56.556       43.762       28.360     3198.562     1915.106      804.273        1.575        0.296      158.612       18.084        0.013      345.280       22.695      864.703
08/11/2014  00:25:00     -125.778      177.501      -27.065       87.919       93.794       56.033     7729.670     8797.255     3139.664        3.386        0.983      217.547       67.425        0.096      345.164       22.498      864.730
08/11/2014  00:26:00     -110.978       88.090      -23.424       51.934       63.963       25.832     2697.186     4091.291      667.267        1.404        0.373      141.689       18.363        0.017      345.171       22.510      864.713
08/11/2014  00:27:00     -139.697       99.874      -26.148       62.590       77.295       40.919     3917.565     5974.499     1674.335        2.087        0.578      171.727       34.535        0.040      345.160       22.488      864.688
08/11/2014  00:28:00     -107.205       31.695       -1.487       59.052       44.238       26.747     3487.173     1956.983      715.427        0.933        0.308      111.792       30.897        0.076      345.137       22.453      864.666
08/11/2014  00:29:00     -112.914       22.350      -14.002       34.093       44.607       27.642     1162.315     1989.786      764.090        0.868        0.196      115.105       17.886        0.024      345.198       22.557      864.653
08/11/2014  00:30:00     -135.693      -30.310       -7.803       92.614       92.490       45.443     8577.318     8554.386     2065.050        1.929        0.960      139.037       40.716        0.086      345.259       22.659      864.652
08/11/2014  00:31:00     -112.871       17.769      -12.563       46.168       63.058       26.865     2131.498     3976.285      721.711        1.002        0.341      114.261       22.127        0.038      345.295       22.724      864.659
08/11/2014  00:32:00      -64.345       28.938       -9.953       39.591       65.114       31.151     1567.437     4239.776      970.413        0.593        0.339       70.553       30.715        0.190      345.344       22.806      864.672
08/11/2014  00:33:00      -72.477       84.626       -9.229       46.416       92.374       27.381     2154.446     8532.963      749.732        1.197        0.572      111.420       31.806        0.081      345.414       22.926      864.669
08/11/2014  00:34:00     -111.702       45.977       -9.828       37.087      105.605       31.722     1375.437    11152.429     1006.271        1.411        0.677      120.794        9.482        0.006      345.371       22.853      864.656
08/11/2014  00:35:00     -122.521      -59.621       -0.795       52.243       33.731       28.618     2729.352     1137.775      819.002        1.163        0.234      136.257       24.910        0.033      345.402       22.906      864.652
08/11/2014  00:36:00     -165.598      -56.285       -8.367       63.507       58.768       32.856     4033.201     3453.712     1079.506        1.961        0.428      174.903       31.780        0.033      345.341       22.801      864.652
08/11/2014  00:37:00     -179.221      -62.117       -9.219       91.768       62.669       35.770     8421.372     3927.352     1279.504        2.484        0.681      189.681       47.732        0.063      345.277       22.690      864.641
08/11/2014  00:38:00     -173.517      -32.871      -12.984       62.066       43.654       30.729     3852.249     1905.676      944.253        1.903        0.335      176.603       20.125        0.013      345.230       22.610      864.645
08/11/2014  00:39:00     -116.118      -58.699       -5.748       54.427       46.751       34.077     2962.333     2185.621     1161.271        1.163        0.315      130.111       21.521        0.027      345.214       22.583      864.651
08/11/2014  00:40:00     -113.563      -80.677        1.897       78.773       66.995       44.936     6205.222     4488.308     2019.254        1.606        0.636      139.303       56.178        0.163      345.175       22.518      864.656
08/11/2014  00:41:00      -76.019      -62.443        4.927      101.678       91.468       51.637    10338.342     8366.378     2666.424        1.553        1.069       98.377       58.159        0.350      345.161       22.493      864.665
08/11/2014  00:42:00       -6.138       -3.885       18.248       64.072       41.508       38.091     4105.196     1722.955     1450.895        0.383        0.364        7.264       28.974       15.909      345.166       22.502      864.667
08/11/2014  00:43:00      -34.975      -88.989       -8.322       78.466       55.039       41.425     6156.846     3029.275     1716.016        1.005        0.545       95.615       30.073        0.099      345.200       22.560      864.667
08/11/2014  00:44:00     -131.721     -102.904       -1.679       60.241       59.618       35.179     3629.013     3554.253     1237.566        1.818        0.421      167.152       28.779        0.030      345.184       22.532      864.658
08/11/2014  00:45:00     -115.634      -62.088       -5.710       55.887       51.885       26.342     3123.348     2692.082      693.919        1.188        0.325      131.249       21.205        0.026      345.207       22.572      864.657
08/11/2014  00:46:00     -132.785      -87.989       -3.627       55.598       54.570       33.444     3091.124     2977.935     1118.474        1.629        0.359      159.292       25.331        0.025      345.212       22.579      864.644
08/11/2014  00:47:00     -119.518     -138.878        2.520       83.549       80.246       41.824     6980.437     6439.422     1749.288        2.437        0.758      183.226       54.058        0.087      345.251       22.646      864.651
08/11/2014  00:48:00     -144.346      -96.166        9.188       93.778       63.027       43.520     8794.255     3972.455     1894.028        2.241        0.733      173.446       46.954        0.073      345.242       22.631      864.648
08/11/2014  00:49:00     -206.653     -129.299       -0.578       96.415       56.067       42.812     9295.821     3143.550     1832.907        3.685        0.714      243.769       46.165        0.036      345.222       22.594      864.644
08/11/2014  00:50:00     -246.102     -134.871       -6.296      101.727       93.713       47.113    10348.381     8782.105     2219.633        5.007        1.068      280.636       43.986        0.025      345.161       22.491      864.638
08/11/2014  00:51:00     -224.755     -134.371       -2.083       83.649       68.545       45.660     6997.151     4698.426     2084.838        4.117        0.689      261.860       45.197        0.030      345.126       22.429      864.637
08/11/2014  00:52:00     -222.930     -146.941        6.324      112.159       77.086       53.933    12579.679     5942.205     2908.775        4.638        1.072      267.001       57.508        0.046      345.105       22.395      864.620
08/11/2014  00:53:00     -208.970     -133.430       -1.596       90.429       64.796       42.285     8177.492     4198.513     1787.991        3.782        0.708      247.935       39.756        0.026      345.106       22.395      864.611
08/11/2014  00:54:00     -220.420     -111.046        0.742      111.819       87.745       51.548    12503.539     7699.240     2657.222        4.188        1.143      246.813       49.684        0.041      345.135       22.447      864.620
08/11/2014  00:55:00     -211.789     -136.968       -1.087      113.306       81.314       52.846    12838.354     6611.925     2792.679        4.292        1.112      252.219       58.180        0.053      345.144       22.461      864.627
08/11/2014  00:56:00     -135.931      -77.561        8.583      105.034       83.014       40.822    11032.042     6891.376     1666.404        2.207        0.979      156.502       49.909        0.102      345.070       22.338      864.644
08/11/2014  00:57:00     -228.392     -135.520      -12.934       97.637       77.987       48.906     9533.001     6081.983     2391.802        4.435        0.900      265.572       42.493        0.026      345.138       22.450      864.643
08/11/2014  00:58:00     -215.374     -169.881       -3.294      130.435      105.354       61.427    17013.289    11099.466     3773.260        5.356        1.594      274.309       75.638        0.076      345.159       22.488      864.648
08/11/2014  00:59:00     -194.639      -77.066       -8.268      108.320       96.245       48.325    11733.141     9263.015     2335.349        3.361        1.167      209.340       48.930        0.055      345.115       22.412      864.656
08/11/2014  01:00:00     -194.618      -69.236       12.436       78.118       99.975       50.103     6102.479     9995.032     2510.313        3.071        0.930      206.566       48.051        0.054      345.136       22.449      864.664
08/11/2014  01:01:00     -218.311     -113.314       -4.800      110.912       71.639       49.998    12301.402     5132.178     2499.814        4.022        0.997      245.967       55.210        0.050      345.170       22.506      864.670
08/11/2014  01:02:00     -154.260     -113.728        1.473      109.330       81.632       58.681    11953.036     6663.834     3443.441        2.939        1.103      191.651       70.604        0.136      345.201       22.559      864.667
08/11/2014  01:03:00     -161.740     -101.129      -13.289       44.689       60.156       31.458     1997.072     3618.741      989.616        2.158        0.330      190.754       14.499        0.006      345.164       22.496      864.655
08/11/2014  01:04:00     -110.750      -35.890       -3.814       68.848       59.597       32.237     4740.049     3551.830     1039.236        1.145        0.467      116.420       25.541        0.048      345.136       22.451      864.644
08/11/2014  01:05:00      -84.008      -48.934       -8.592       57.019       34.842       24.195     3251.181     1213.938      585.413        0.729        0.253       97.221       30.645        0.099      345.109       22.406      864.650
08/11/2014  01:06:00     -127.576        4.962      -10.273       39.580       34.962       26.023     1566.609     1222.375      677.202        0.994        0.173      127.672       23.817        0.035      345.055       22.311      864.633
08/11/2014  01:07:00      -75.295      -16.828        0.468       60.929       37.529       24.392     3712.317     1408.399      594.983        0.583        0.286       77.153       27.509        0.127      344.995       22.210      864.621
08/11/2014  01:08:00      -53.706        3.705        2.529       34.288       25.011       18.068     1175.669      625.567      326.465        0.252        0.106       53.833       19.235        0.128      345.046       22.298      864.566
08/11/2014  01:09:00     -172.016      -44.538       -6.392       47.064       53.191       30.366     2215.057     2829.306      922.090        1.879        0.298      177.688       23.713        0.018      345.191       22.544      864.540
08/11/2014  01:10:00      -50.055      -43.626       14.464       70.725       44.708       30.137     5001.976     1998.844      908.238        0.626        0.395       66.398       28.892        0.189      345.066       22.332      864.518
08/11/2014  01:11:00     -118.654      -34.068       -5.414       53.244       34.976       19.867     2834.921     1223.351      394.705        0.986        0.223      123.448       13.624        0.012      345.099       22.390      864.482
08/11/2014  01:12:00     -131.445      -49.600       -1.865       52.658       45.405       25.793     2772.815     2061.607      665.282        1.262        0.275      140.491       30.591        0.047      345.137       22.452      864.466
08/11/2014  01:13:00     -163.305      -49.802        1.315       58.731       55.503       31.008     3449.363     3080.562      961.506        1.832        0.375      170.730       30.037        0.031      345.151       22.476      864.450
08/11/2014  01:14:00     -173.911      -95.251        5.078       81.563       62.893       47.880     6652.492     3955.523     2292.504        2.612        0.645      198.287       45.433        0.052      345.245       22.633      864.451
08/11/2014  01:15:00      -78.409      -73.564        8.131       51.561       51.388       35.645     2658.570     2640.770     1270.562        0.910        0.328      107.516       23.941        0.050      345.218       22.588      864.451
08/11/2014  01:16:00     -121.365      -99.965        4.421       45.908       44.004       31.550     2107.587     1936.393      995.426        1.489        0.252      157.234       28.985        0.034      345.258       22.658      864.461
08/11/2014  01:17:00     -108.833      -72.809        5.910       72.492       54.523       35.203     5255.021     2972.721     1239.284        1.332        0.473      130.942       39.404        0.091      345.302       22.733      864.472
08/11/2014  01:18:00      -84.076      -48.405        5.656       65.480       52.394       30.725     4287.615     2745.101      944.021        0.871        0.399       97.015       33.865        0.122      345.371       22.852      864.491
08/11/2014  01:19:00      -88.594      -61.053        4.086       38.518       28.381       21.163     1483.634      805.503      447.870        0.716        0.137      107.594       17.112        0.025      345.334       22.790      864.520
08/11/2014  01:20:00      -82.068      -23.838       -1.414       30.953       32.477       19.851      958.116     1054.753      394.079        0.486        0.120       85.460       16.406        0.037      345.301       22.734      864.536
08/11/2014  01:21:00       -3.738       -6.096        3.175       28.843       24.776       11.776      831.912      613.855      138.675        0.082        0.079        7.151       12.102        2.864      345.322       22.768      864.537
08/11/2014  01:22:00       20.253        9.752       -0.792       17.547       23.423       15.632      307.892      548.619      244.350        0.080        0.055       22.479        8.898        0.157      345.207       22.572      864.529
08/11/2014  01:23:00       73.615       65.343       22.579       28.508       24.925       21.278      812.722      621.256      452.742        0.604        0.094       98.432       10.322        0.011      345.156       22.487      864.516
08/11/2014  01:24:00       82.707       46.458       -0.445       32.011       25.789       23.357     1024.721      665.066      545.541        0.562        0.112       94.862       15.691        0.027      345.100       22.392      864.506
08/11/2014  01:25:00       27.293       -5.896       -6.207       37.419       29.262       18.679     1400.214      856.264      348.905        0.171        0.130       27.922       18.602        0.444      344.992       22.207      864.526
08/11/2014  01:26:00       50.419       34.556        8.732       40.945       29.886       15.987     1676.528      893.200      255.570        0.332        0.141       61.124       20.657        0.114      344.955       22.141      864.527
08/11/2014  01:27:00      142.072       75.099       24.097       44.048       23.195       22.958     1940.222      538.024      527.084        1.470        0.150      160.700       20.621        0.016      344.964       22.156      864.498
08/11/2014  01:28:00      102.634       40.071       23.732       46.257       35.728       29.915     2139.686     1276.495      894.896        0.851        0.216      110.179       21.312        0.037      344.959       22.147      864.482
08/11/2014  01:29:00       93.334       45.887        9.853       22.801       33.700       24.598      519.898     1135.669      605.073        0.659        0.113      104.004       17.805        0.029      344.882       22.017      864.469
08/11/2014  01:30:00       78.585       69.750       19.547       32.640       22.825       21.939     1065.357      520.970      481.306        0.674        0.103      105.074       19.233        0.034      344.848       21.958      864.458
08/11/2014  01:31:00       66.119       57.788       12.443       33.567        9.595       16.450     1126.737       92.068      270.617        0.468        0.074       87.814       18.344        0.044      345.108       22.404      864.455
08/11/2014  01:32:00       38.676       32.697       11.654       18.205       18.855       22.235      331.418      355.494      494.376        0.194        0.059       50.645       13.098        0.067      344.953       22.138      864.444
08/11/2014  01:33:00        1.863        4.245       23.651       13.114       21.957       13.270      171.990      482.116      176.100        0.071        0.042        4.635       11.450        6.101      344.899       22.044      864.425
08/11/2014  01:34:00      -18.140      -21.206        3.107       27.629       28.346       18.564      763.355      803.485      344.619        0.135        0.096       27.907       20.681        0.549      345.049       22.300      864.422
08/11/2014  01:35:00       72.694       39.258        8.282       40.185       27.751       26.791     1614.799      770.100      717.770        0.500        0.155       82.617       24.698        0.089      345.102       22.394      864.405
08/11/2014  01:36:00       -5.942       -4.312       -4.888       37.740       33.652       30.417     1424.321     1132.432      925.216        0.178        0.174        7.341       26.239       12.775      345.084       22.361      864.394
08/11/2014  01:37:00      -40.485      -25.586        3.253       20.246       20.818       13.329      409.909      433.390      177.662        0.166        0.051       47.893       13.304        0.077      345.167       22.503      864.399
08/11/2014  01:38:00      -20.334        0.941       -8.721       22.411       15.841       11.498      502.263      250.922      132.196        0.069        0.044       20.356       13.125        0.416      345.194       22.552      864.401
08/11/2014  01:39:00       34.448       21.214       14.756       43.751       29.142       24.600     1914.118      849.252      605.165        0.261        0.168       40.456       19.638        0.236      345.200       22.561      864.396
08/11/2014  01:40:00       20.075        0.331       35.365       37.229       45.030       19.864     1385.978     2027.669      394.591        0.273        0.190       20.077       20.555        1.048      345.132       22.445      864.380
08/11/2014  01:41:00       -3.012       12.244       29.897       14.918       21.831       24.646      222.560      476.597      607.440        0.118        0.065       12.609       18.105        2.062      345.006       22.229      864.383
08/11/2014  01:42:00        1.850      -11.443       -2.178       14.860       12.635        9.633      220.809      159.647       92.798        0.031        0.024       11.592        8.140        0.493      344.974       22.176      864.396
08/11/2014  01:43:00       17.265       15.234       17.430       11.962       15.286        9.310      143.097      233.667       86.683        0.065        0.023       23.026        7.672        0.111      344.921       22.081      864.392
08/11/2014  01:44:00       43.405       40.177       11.125       32.424       14.388       13.998     1051.308      207.009      195.948        0.254        0.073       59.145       11.871        0.040      344.953       22.138      864.398
08/11/2014  01:45:00       10.871       22.195       35.966       21.611       20.206       13.965      467.027      408.301      195.010        0.149        0.054       24.714        7.911        0.102      344.807       21.888      864.399
08/11/2014  01:46:00       43.970       45.112       30.049       33.387       21.298       20.218     1114.714      453.588      408.770        0.342        0.099       62.996       11.360        0.033      344.811       21.894      864.409
08/11/2014  01:47:00       46.808       26.798        4.654       38.983       27.752       20.525     1519.665      770.173      421.256        0.282        0.136       53.936       12.187        0.051      344.744       21.780      864.417
08/11/2014  01:48:00       40.144       11.990        5.304       31.650       23.710       18.853     1001.715      562.183      355.449        0.185        0.096       41.897       10.376        0.061      344.639       21.601      864.424
08/11/2014  01:49:00       19.246        2.384       19.590       26.262       20.959       10.038      689.688      439.271      100.770        0.099        0.061       19.393       10.994        0.321      344.606       21.543      864.434
08/11/2014  01:50:00       51.086       18.031       20.739       24.726       18.200       17.054      611.366      331.222      290.830        0.230        0.062       54.175        3.758        0.005      344.573       21.487      864.428
08/11/2014  01:51:00       79.759       22.631       15.410       25.372       15.582       16.997      643.741      242.791      288.894        0.414        0.059       82.908       12.345        0.022      344.560       21.466      864.415
08/11/2014  01:52:00       71.473       20.236        6.963       35.183       20.580       20.759     1237.826      423.529      430.953        0.383        0.105       74.282       16.842        0.051      344.596       21.528      864.396
08/11/2014  01:53:00       80.984       40.133       23.230       43.409       31.771       26.176     1884.378     1009.410      685.208        0.614        0.179       90.383       24.591        0.074      344.598       21.531      864.389
08/11/2014  01:54:00       93.709       52.729       22.315       25.135       20.827       17.295      631.763      433.748      299.122        0.671        0.068      107.525       10.073        0.009      344.463       21.298      864.388
08/11/2014  01:55:00       80.537       65.193       16.432       14.902       14.792       16.633      222.056      218.812      276.653        0.586        0.036      103.616       10.473        0.010      344.439       21.259      864.383
08/11/2014  01:56:00       98.754       59.305       18.498       19.034       16.738       15.450      362.278      280.176      238.690        0.725        0.044      115.193       11.462        0.010      344.359       21.122      864.388
08/11/2014  01:57:00       99.953       50.105       22.477       30.895       20.979       23.828      954.527      440.128      567.783        0.748        0.098      111.809       19.843        0.031      344.356       21.119      864.375
08/11/2014  01:58:00       61.162       70.764       59.407       27.872       27.172       27.023      776.856      738.330      730.221        0.726        0.112       93.533       14.009        0.022      344.435       21.252      864.365
08/11/2014  01:59:00      117.699       73.996       38.513       33.992       31.605       28.929     1155.490      998.887      836.914        1.190        0.150      139.027       15.191        0.012      344.465       21.303      864.360
08/11/2014  02:00:00      105.690       56.375       27.368       44.794       39.725       32.126     2006.485     1578.109     1032.072        0.986        0.231      119.785       19.940        0.028      344.327       21.069      864.338
08/11/2014  02:01:00       21.272       16.779       30.710       33.680       28.163       17.704     1134.319      793.132      313.422        0.196        0.112       27.093       16.671        0.379      344.300       21.022      864.333
08/11/2014  02:02:00       51.903       19.642       19.832       47.241       28.554       25.359     2231.710      815.346      643.079        0.358        0.185       55.495       23.194        0.175      344.472       21.314      864.330
08/11/2014  02:03:00       -5.779       -8.887        0.716       39.666       28.453       19.567     1573.391      809.594      382.873        0.144        0.138       10.601       18.802        3.146      344.384       21.164      864.330
08/11/2014  02:04:00      -33.958       11.166       -6.338        9.857       10.320        8.312       97.155      106.507       69.098        0.080        0.014       35.747        5.349        0.022      344.265       20.965      864.323
08/11/2014  02:05:00        1.425        8.977       10.621       10.328       10.705       11.284      106.676      114.598      127.330        0.027        0.017        9.089        9.497        1.092      344.252       20.939      864.304
08/11/2014  02:06:00      -22.140        4.708       -3.577       19.780        6.044        8.936      391.268       36.529       79.853        0.052        0.025       22.635       12.394        0.300      344.275       20.977      864.295
08/11/2014  02:07:00      -48.438        4.288       -5.455        8.725        7.948        7.756       76.133       63.164       60.149        0.130        0.010       48.628        4.614        0.009      344.278       20.983      864.290
08/11/2014  02:08:00      -28.193       -8.187       -4.416        8.336        9.009        5.091       69.485       81.158       25.914        0.053        0.009       29.358        4.263        0.021      344.294       21.011      864.289
08/11/2014  02:09:00       -8.366       -6.663        3.518       13.062        8.939        7.753      170.614       79.898       60.116        0.022        0.016       10.695        6.641        0.386      344.261       20.953      864.285
08/11/2014  02:10:00        3.002       -2.764        0.582       11.771        8.613        8.928      138.559       74.182       79.708        0.015        0.015        4.081        4.508        1.220      344.356       21.114      864.283
08/11/2014  02:11:00       -1.136      -17.838        3.322       18.457       16.673        9.840      340.661      277.981       96.832        0.052        0.036       17.874        9.783        0.300      344.418       21.224      864.292
08/11/2014  02:12:00       24.037        5.854       13.860       36.119       20.877       14.562     1304.596      435.863      212.043        0.138        0.098       24.740       16.432        0.441      344.418       21.221      864.291
08/11/2014  02:13:00       -1.752      -30.185        0.565       10.877       25.328       14.014      118.299      641.494      196.389        0.094        0.048       30.236       11.930        0.156      344.497       21.359      864.294
08/11/2014  02:14:00        1.547       -9.797        3.823       14.626        5.942        8.904      213.908       35.301       79.288        0.022        0.016        9.918        4.939        0.248      344.563       21.470      864.289
08/11/2014  02:15:00       24.474      -46.272        9.422       12.075       29.433       14.907      145.815      866.306      222.213        0.203        0.062       52.345        8.889        0.029      344.553       21.455      864.281
08/11/2014  02:16:00      -14.651      -55.881       -1.684       31.470       32.086       21.908      990.350     1029.508      479.951        0.292        0.125       57.770        7.381        0.016      344.508       21.377      864.284
08/11/2014  02:17:00      -39.535      -53.691        7.268       52.236       39.974       21.413     2728.561     1597.917      458.509        0.464        0.239       66.676       20.232        0.092      344.408       21.206      864.297
08/11/2014  02:18:00      -87.516      -78.171       -4.981       48.035       20.222       15.468     2307.382      408.947      239.270        0.837        0.148      117.345       16.793        0.020      344.418       21.222      864.300
08/11/2014  02:19:00      -58.638      -91.725       -1.406       17.012       23.141       12.023      289.393      535.508      144.544        0.641        0.048      108.866       10.826        0.010      344.573       21.489      864.285
08/11/2014  02:20:00      -62.514      -58.462        3.574       32.440       38.162       16.643     1052.363     1456.302      276.994        0.506        0.139       85.591       14.953        0.031      344.546       21.443      864.266
08/11/2014  02:21:00      -88.057      -79.840       -3.694       35.589       31.247       16.526     1266.602      976.385      273.105        0.833        0.126      118.863       10.922        0.008      344.554       21.454      864.255
08/11/2014  02:22:00      -71.510      -45.814        5.872       51.226       39.373       24.965     2624.071     1550.198      623.273        0.602        0.240       84.927       23.988        0.080      344.582       21.503      864.243
08/11/2014  02:23:00      -62.006      -40.745        6.069       47.412       27.959       25.969     2247.861      781.707      674.375        0.462        0.185       74.195       26.393        0.127      344.532       21.418      864.239
08/11/2014  02:24:00      -82.384      -68.357       -0.647       48.266       43.142       26.371     2329.606     1861.232      695.443        0.817        0.244      107.051       17.136        0.026      344.559       21.463      864.241
08/11/2014  02:25:00      -75.250      -83.066       -0.045       56.962       32.392       26.122     3244.616     1049.236      682.380        0.877        0.249      112.082       21.229        0.036      344.562       21.469      864.246
08/11/2014  02:26:00      -75.065      -65.449        0.636       39.105       45.019       22.644     1529.194     2026.713      512.730        0.699        0.203       99.590       15.844        0.025      344.507       21.375      864.255
08/11/2014  02:27:00      -77.756      -63.960        7.641       57.930       35.205       28.113     3355.924     1239.368      790.339        0.779        0.269      100.682       30.749        0.093      344.494       21.352      864.263
08/11/2014  02:28:00     -144.658      -74.034        0.792       90.129       67.365       35.177     8123.220     4537.978     1237.398        2.015        0.695      162.503       50.174        0.095      344.477       21.321      864.269
08/11/2014  02:29:00     -181.138     -129.214      -11.814       43.840       69.436       36.421     1921.967     4821.368     1326.507        2.886        0.403      222.503       28.322        0.016      344.508       21.373      864.271
08/11/2014  02:30:00     -155.019      -91.606       -3.444       71.234       62.010       35.981     5074.231     3845.207     1294.605        2.132        0.511      180.062       37.525        0.043      344.428       21.236      864.267
08/11/2014  02:31:00     -142.352      -82.130        2.581       73.932       52.203       36.057     5465.908     2725.110     1300.075        1.825        0.475      164.346       34.670        0.045      344.427       21.237      864.261
08/11/2014  02:32:00     -143.763     -107.829        4.143       70.968       68.223       36.389     5036.386     4654.392     1324.154        2.166        0.551      179.708       37.608        0.044      344.447       21.270      864.261
08/11/2014  02:33:00      -96.927      -73.570       12.514       61.171       44.799       32.058     3741.895     2006.955     1027.715        1.087        0.339      121.686       28.083        0.053      344.388       21.171      864.254
08/11/2014  02:34:00      -83.079     -111.930       -8.229       51.584       47.500       22.195     2660.936     2256.280      492.616        1.245        0.270      139.393       23.427        0.028      344.409       21.206      864.252
08/11/2014  02:35:00      -91.053      -87.803        0.162       50.937       36.412       27.397     2594.615     1325.805      750.617        1.033        0.234      126.491       24.585        0.038      344.395       21.183      864.254
08/11/2014  02:36:00      -89.765     -126.146        0.000       50.430       56.033       28.440     2543.228     3139.651      808.839        1.523        0.325      154.824       31.948        0.043      344.402       21.194      864.251
08/11/2014  02:37:00      -90.194     -122.657       -2.562       48.253       37.167       31.272     2328.347     1381.390      977.967        1.394        0.234      152.249       20.618        0.018      344.364       21.131      864.247
08/11/2014  02:38:00      -72.550      -82.522       14.755       58.615       48.573       33.956     3435.723     2359.322     1153.015        0.962        0.347      109.879       35.155        0.102      344.350       21.108      864.249
08/11/2014  02:39:00      -51.969      -85.996       15.257       56.489       39.318       36.878     3191.027     1545.915     1359.975        0.821        0.305      100.480       31.315        0.097      344.387       21.170      864.258
08/11/2014  02:40:00      -75.544     -113.125        2.251       71.383       68.739       31.419     5095.522     4725.069      987.156        1.466        0.540      136.031       32.425        0.057      344.468       21.307      864.255
08/11/2014  02:41:00      -49.004     -121.119        7.252       66.653       81.296       34.591     4442.647     6609.105     1196.538        1.468        0.612      130.657       37.079        0.081      344.470       21.309      864.252
08/11/2014  02:42:00      -32.742      -94.169       12.736       67.964       45.885       37.398     4619.081     2105.405     1398.642        0.911        0.406       99.699       35.556        0.127      344.439       21.259      864.252
08/11/2014  02:43:00      -16.408      -46.789       12.554       29.042       35.923       22.458      843.424     1290.491      504.351        0.263        0.132       49.582       18.667        0.142      344.403       21.199      864.250
08/11/2014  02:44:00      -67.274      -58.586        3.255       59.954       39.569       26.210     3594.508     1565.680      686.983        0.691        0.292       89.208       28.563        0.103      344.441       21.261      864.245
08/11/2014  02:45:00      -42.110      -14.499       -5.011       40.704       30.759       21.448     1656.792      946.138      460.024        0.254        0.153       44.536       14.397        0.105      344.419       21.226      864.243
08/11/2014  02:46:00       -7.870        4.370        0.527       19.900       13.385       14.267      395.991      179.150      203.543        0.043        0.039        9.002       10.989        1.490      344.415       21.218      864.243
08/11/2014  02:47:00       13.369        7.883       21.217        9.998        9.327        9.962       99.962       86.992       99.236        0.049        0.014       15.520        4.697        0.092      344.407       21.202      864.239
08/11/2014  02:48:00       19.746       25.889        5.539       10.898       13.499        9.870      118.774      182.232       97.416        0.074        0.020       32.560        5.573        0.029      344.341       21.092      864.237
08/11/2014  02:49:00        8.427      -34.632       -5.186       34.651       42.702       28.055     1200.674     1823.421      787.076        0.255        0.191       35.643       25.355        0.506      344.478       21.325      864.224
08/11/2014  02:50:00      -26.981      -45.228       -5.204       21.882       30.070       21.941      478.801      904.217      481.408        0.233        0.093       52.665        4.983        0.009      344.491       21.343      864.207
08/11/2014  02:51:00      -41.571        1.078       -0.078       30.021       13.539       11.068      901.264      183.317      122.490        0.147        0.060       41.585       14.594        0.123      344.433       21.248      864.188
08/11/2014  02:52:00      -59.977      -21.046        4.039       35.371       24.932       17.639     1251.074      621.604      311.125        0.312        0.109       63.562       19.318        0.092      344.351       21.108      864.178
08/11/2014  02:53:00      -27.560       -8.253        3.015       31.064       15.971       15.996      964.943      255.063      255.884        0.116        0.074       28.769       17.078        0.352      344.316       21.049      864.174
08/11/2014  02:54:00      -53.242        6.536       -5.054       12.912       14.853        8.759      166.714      220.619       76.713        0.168        0.023       53.642        6.572        0.015      344.268       20.968      864.163
08/11/2014  02:55:00      -72.766       -7.942       -4.052       20.475       18.904       10.213      419.214      357.356      104.302        0.313        0.044       73.198        5.797        0.006      344.242       20.922      864.148
08/11/2014  02:56:00      -81.000      -18.635       -0.860       36.552       26.274       15.510     1336.038      690.307      240.548        0.459        0.113       83.116       17.152        0.043      344.151       20.766      864.148
08/11/2014  02:57:00      -96.101      -10.538        4.133       52.093       33.207       21.471     2713.632     1102.681      461.017        0.682        0.214       96.677       26.490        0.075      344.030       20.560      864.152
08/11/2014  02:58:00      -95.860      -17.015        6.470       59.884       40.635       26.115     3586.139     1651.174      681.977        0.772        0.296       97.358       24.924        0.066      343.996       20.501      864.162
08/11/2014  02:59:00     -117.795      -25.912       -3.667       75.592       47.414       31.271     5714.141     2248.108      977.880        1.175        0.447      120.611       38.044        0.099      343.946       20.416      864.169
08/11/2014  03:00:00     -175.338      -61.850      -15.122       29.198       32.335       23.215      852.527     1045.530      538.953        1.862        0.122      185.927       14.553        0.006      343.948       20.419      864.171
08/11/2014  03:01:00     -138.341      -56.932        4.429       38.528       38.048       22.628     1484.395     1447.634      512.026        1.292        0.172      149.598       17.062        0.013      343.982       20.477      864.167
08/11/2014  03:02:00     -140.487      -43.663       -1.492       31.960       40.752       24.858     1021.416     1660.737      617.942        1.247        0.165      147.115       19.536        0.018      343.988       20.486      864.166
08/11/2014  03:03:00     -127.630      -49.194        2.405       63.038       48.340       28.722     3973.828     2336.719      824.962        1.292        0.357      136.782       31.303        0.052      343.970       20.457      864.156
08/11/2014  03:04:00     -126.961      -55.445        0.187       53.767       61.983       34.876     2890.891     3841.848     1216.364        1.357        0.397      138.539       32.181        0.054      343.992       20.494      864.152
08/11/2014  03:05:00     -128.577      -11.684       -1.572       46.693       56.120       28.805     2180.244     3149.508      829.737        1.141        0.308      129.106       28.564        0.049      343.947       20.419      864.150
08/11/2014  03:06:00     -154.054      -35.039       -3.680       54.314       35.036       27.407     2950.025     1227.489      751.166        1.495        0.246      157.988       29.870        0.036      343.960       20.439      864.137
08/11/2014  03:07:00     -127.806      -20.195        1.415       63.632       38.426       25.110     4049.025     1476.530      630.496        1.145        0.308      129.392       28.612        0.049      343.968       20.454      864.125
08/11/2014  03:08:00     -131.816      -17.279      -11.639       68.870       38.353       30.845     4743.052     1470.951      951.384        1.249        0.358      132.944       35.428        0.071      343.957       20.435      864.107
08/11/2014  03:09:00     -158.074      -72.767       -9.537       55.073       46.648       27.315     3033.082     2176.076      746.091        1.816        0.298      174.019       28.220        0.026      344.031       20.561      864.100
08/11/2014  03:10:00     -145.208      -17.582       -1.930       44.867       40.953       23.864     2013.063     1677.173      569.487        1.283        0.213      146.269       21.602        0.022      344.016       20.536      864.095
08/11/2014  03:11:00     -112.347      -39.705       -6.325       58.057       34.302       22.875     3370.632     1176.603      523.250        0.965        0.254      119.157       24.061        0.041      343.994       20.499      864.099
08/11/2014  03:12:00     -114.688      -36.519       -1.236       53.014       42.157       26.559     2810.529     1777.228      705.407        0.989        0.265      120.362       29.522        0.060      344.003       20.512      864.093
08/11/2014  03:13:00     -151.586      -63.790      -10.907       29.161       47.661       20.706      850.338     2271.582      428.730        1.536        0.178      164.461       11.620        0.005      344.014       20.534      864.083
08/11/2014  03:14:00     -162.845      -43.310        0.229       59.686       40.519       23.387     3562.428     1641.801      546.945        1.707        0.288      168.506       22.128        0.017      343.987       20.485      864.075
08/11/2014  03:15:00     -175.401      -34.980       -2.258       44.230       46.320       21.978     1956.298     2145.584      483.039        1.829        0.229      178.855       19.699        0.012      344.013       20.530      864.063
08/11/2014  03:16:00     -156.902      -23.443       -0.180       53.726       40.809       30.561     2886.506     1665.352      933.969        1.533        0.274      158.643       30.992        0.038      343.933       20.393      864.053
08/11/2014  03:17:00     -180.652      -40.564       -2.886       66.589       38.860       27.419     4434.078     1510.116      751.804        2.049        0.335      185.150       35.820        0.037      343.967       20.450      864.048
08/11/2014  03:18:00     -122.904      -13.804       -1.819       73.299       47.136       32.912     5372.707     2221.827     1083.173        1.199        0.434      123.677       39.584        0.102      343.917       20.366      864.046
08/11/2014  03:19:00     -115.357      -41.263       -1.904       58.295       38.689       24.903     3398.304     1496.841      620.159        1.026        0.276      122.515       29.813        0.059      343.905       20.346      864.025
08/11/2014  03:20:00     -126.462      -46.952       -0.753       50.424       43.802       28.379     2542.544     1918.655      805.367        1.173        0.263      134.897       28.838        0.046      343.900       20.338      864.011
08/11/2014  03:21:00      -96.604      -42.041        4.656       45.711       35.914       25.387     2089.464     1289.800      644.501        0.757        0.201      105.356       23.934        0.052      343.864       20.277      864.002
08/11/2014  03:22:00     -135.434      -27.072        3.879       57.319       48.731       27.897     3285.453     2374.685      778.268        1.276        0.322      138.113       29.376        0.045      343.870       20.285      864.004
08/11/2014  03:23:00     -106.565      -15.048       -6.095       44.629       38.346       23.915     1991.752     1470.399      571.923        0.783        0.202      107.622       20.952        0.038      343.828       20.215      863.994
08/11/2014  03:24:00     -110.440      -20.394        1.308       57.350       36.072       24.624     3289.067     1301.195      606.357        0.890        0.260      112.307       27.836        0.061      343.845       20.245      863.992
08/11/2014  03:25:00     -166.669      -22.795      -16.824       43.697       31.521       20.269     1909.410      993.579      410.826        1.595        0.166      168.221       17.756        0.011      343.841       20.236      863.995
08/11/2014  03:26:00     -122.585      -36.272       -3.941       37.334       30.983       24.585     1393.858      959.932      604.399        0.966        0.148      127.838       23.088        0.033      343.809       20.183      864.008
08/11/2014  03:27:00     -130.737      -29.094       -4.836       37.205       38.017       21.654     1384.202     1445.303      468.887        1.063        0.165      133.935       19.714        0.022      343.820       20.202      864.016
08/11/2014  03:28:00     -139.818      -20.263       -6.079       44.482       30.532       24.169     1978.632      932.207      584.140        1.175        0.175      141.279       25.509        0.033      343.792       20.151      864.024
08/11/2014  03:29:00     -191.260      -17.381      -25.195       25.237       35.065       22.195      636.918     1229.532      492.625        1.994        0.118      192.049       12.422        0.004      343.826       20.211      864.027
08/11/2014  03:30:00     -127.498      -38.397       -9.964       41.935       29.837       22.395     1758.539      890.256      501.523        1.049        0.158      133.155       20.311        0.023      343.786       20.143      864.039
08/11/2014  03:31:00      -88.553      -33.222      -10.202       32.760       38.661       21.849     1073.210     1494.659      477.369        0.605        0.152       94.580       18.657        0.039      343.700       19.996      864.056
08/11/2014  03:32:00      -84.476      -28.390       -1.896       33.855       25.773       19.225     1146.161      664.255      369.586        0.506        0.109       89.119       14.403        0.026      343.682       19.965      864.067
08/11/2014  03:33:00      -91.236       -0.474      -10.921       29.411       40.730       21.179      865.035     1658.923      448.534        0.571        0.149       91.237       20.658        0.051      343.662       19.931      864.074
08/11/2014  03:34:00      -88.638       14.707       -5.229       32.065       30.905       17.430     1028.138      955.148      303.810        0.519        0.114       89.850       13.868        0.024      343.656       19.922      864.084
08/11/2014  03:35:00      -88.288      -13.975      -13.790       24.806       31.699       18.642      615.320     1004.812      347.521        0.507        0.098       89.387       10.530        0.014      343.699       19.996      864.093
08/11/2014  03:36:00      -89.861      -33.919       -3.712       35.771       34.983       18.938     1279.543     1223.803      358.662        0.605        0.143       96.050        6.441        0.004      343.629       19.874      864.101
08/11/2014  03:37:00      -62.060      -14.105      -11.833       23.554       16.873       13.133      554.788      284.694      172.486        0.260        0.051       63.642       12.885        0.041      343.721       20.030      864.091
08/11/2014  03:38:00     -104.677      -13.240      -11.950       34.640       32.086       15.181     1199.906     1029.490      230.472        0.687        0.123      105.511       17.781        0.028      343.709       20.011      864.079
08/11/2014  03:39:00     -106.167      -45.762       -4.463       27.616       25.678       17.662      762.638      659.385      311.957        0.756        0.087      115.609       12.514        0.012      343.625       19.866      864.067
08/11/2014  03:40:00     -110.950      -41.876       -8.354       31.388       32.771       18.945      985.227     1073.941      358.919        0.828        0.121      118.589       15.451        0.017      343.582       19.795      864.048
08/11/2014  03:41:00     -112.344      -50.064      -15.924       41.900       41.482       20.740     1755.647     1720.757      430.131        0.964        0.195      122.994        8.218        0.004      343.567       19.769      864.016
08/11/2014  03:42:00     -115.064      -51.698       -4.315       62.350       44.592       28.306     3887.506     1988.480      801.209        1.130        0.334      126.144       20.559        0.027      343.487       19.633      863.987
08/11/2014  03:43:00     -142.401      -48.275       -3.991       39.820       39.277       22.749     1585.626     1542.710      517.526        1.313        0.182      150.362       18.230        0.015      343.403       19.488      863.945
08/11/2014  03:44:00     -140.433      -54.410       -4.138       42.986       43.531       25.500     1847.819     1894.916      650.239        1.355        0.220      150.605       16.071        0.011      343.436       19.546      863.917
08/11/2014  03:45:00     -142.246      -54.921       -2.044       60.987       32.124       23.360     3719.434     1031.939      545.713        1.427        0.265      152.480       28.369        0.035      343.412       19.505      863.896
08/11/2014  03:46:00     -123.858      -29.786        4.530       95.957       47.518       31.549     9207.833     2257.920      995.351        1.435        0.623      127.389       44.595        0.123      343.459       19.583      863.871
08/11/2014  03:47:00     -143.548      -23.180       -0.834       51.924       37.718       24.755     2696.153     1422.645      612.823        1.294        0.237      145.407       20.575        0.020      343.467       19.599      863.842
08/11/2014  03:48:00      -85.566      -39.713        1.270       48.272       49.252       29.936     2330.171     2425.795      896.163        0.728        0.283       94.333       24.175        0.066      343.418       19.514      863.826
08/11/2014  03:49:00     -123.278      -56.497      -13.717       47.295       33.840       24.570     2236.780     1145.160      603.673        1.128        0.199      135.607       28.678        0.045      343.481       19.623      863.808
08/11/2014  03:50:00     -108.726      -44.987       -0.408       54.848       37.635       23.059     3008.297     1416.367      531.714        0.940        0.248      117.666       15.976        0.018      343.434       19.541      863.792
08/11/2014  03:51:00     -127.552      -25.702       -3.317       64.507       41.921       21.109     4161.137     1757.411      445.574        1.165        0.318      130.116       16.466        0.016      343.491       19.640      863.772
08/11/2014  03:52:00      -99.355      -44.264       -4.459       38.322       37.704       20.047     1468.579     1421.563      401.898        0.757        0.165      108.769       10.032        0.009      343.482       19.623      863.755
08/11/2014  03:53:00      -94.069      -66.133       -7.211       49.977       43.297       20.856     2497.697     1874.613      434.959        0.904        0.240      114.989       20.606        0.032      343.462       19.591      863.752
08/11/2014  03:54:00      -41.052      -45.644        6.332       35.453       37.791       21.665     1256.928     1428.192      469.370        0.348        0.158       61.389       21.335        0.121      343.376       19.444      863.759
08/11/2014  03:55:00      -67.458      -34.275       -2.052       43.890       32.970       22.487     1926.328     1087.028      505.675        0.462        0.176       75.666       28.245        0.139      343.456       19.580      863.761
08/11/2014  03:56:00      -50.652      -39.375        2.665       34.996       25.365       13.795     1224.751      643.399      190.316        0.309        0.103       64.157       13.798        0.046      343.443       19.559      863.773
08/11/2014  03:57:00       -7.656      -30.979       18.811       24.356       20.586       19.311      593.222      423.771      372.910        0.138        0.069       31.911       15.322        0.231      343.397       19.479      863.788
08/11/2014  03:58:00      -59.101      -26.214        7.503       39.590       25.515       18.364     1567.405      651.006      337.239        0.340        0.128       64.653       18.888        0.085      343.403       19.490      863.809
08/11/2014  03:59:00      -83.526      -76.524        0.366       48.613       32.243       22.968     2363.182     1039.626      527.529        0.838        0.197      113.280       26.816        0.056      343.480       19.620      863.823
08/11/2014  04:00:00      -96.457      -94.486        0.746       35.988       26.309       21.178     1295.107      692.174      448.502        1.033        0.122      135.024       20.186        0.022      343.491       19.638      863.828
08/11/2014  04:01:00      -96.607     -103.132      -12.603       37.822       30.660       20.511     1430.527      940.031      420.713        1.146        0.140      141.312       19.104        0.018      343.502       19.659      863.834
08/11/2014  04:02:00     -104.999      -99.689       -4.152       32.882       39.687       24.592     1081.202     1575.033      604.779        1.212        0.163      144.785       22.289        0.024      343.496       19.647      863.846
08/11/2014  04:03:00     -100.667      -69.448       -0.275       34.668       41.750       22.348     1201.877     1743.021      499.448        0.920        0.172      122.299        9.446        0.006      343.429       19.534      863.856
08/11/2014  04:04:00      -67.848      -61.200        6.512       40.736       33.972       22.011     1659.435     1154.066      484.499        0.584        0.165       91.372       21.763        0.057      343.365       19.424      863.846
08/11/2014  04:05:00      -99.109      -46.573       -0.818       35.996       48.157       20.641     1295.715     2319.135      426.056        0.802        0.202      109.506       12.686        0.013      343.363       19.423      863.837
08/11/2014  04:06:00      -86.711      -76.365        7.438       49.915       44.361       29.698     2491.532     1967.872      881.994        0.937        0.267      115.544       26.844        0.054      343.388       19.465      863.837
08/11/2014  04:07:00      -74.750      -66.261       -4.077       37.549       34.989       16.855     1409.945     1224.256      284.076        0.646        0.146       99.890        4.443        0.002      343.424       19.526      863.842
08/11/2014  04:08:00      -51.998      -44.433        6.521       51.663       28.492       22.108     2669.116      811.801      488.757        0.434        0.198       68.396       21.080        0.095      343.424       19.525      863.833
08/11/2014  04:09:00      -56.905      -34.859       -0.390       62.317       31.209       22.308     3883.443      973.975      497.661        0.490        0.268       66.734       23.721        0.126      343.406       19.496      863.829
08/11/2014  04:10:00      -21.324      -52.478        3.570       42.261       36.579       19.139     1786.014     1337.996      366.299        0.336        0.175       56.645       19.297        0.116      343.431       19.538      863.835
08/11/2014  04:11:00      -50.837      -39.192        1.507       48.491       27.563       24.919     2351.349      759.724      620.963        0.393        0.187       64.190       30.316        0.223      343.448       19.567      863.844
08/11/2014  04:12:00      -71.976      -64.215       -1.877       56.872       26.216       20.212     3234.465      687.296      408.513        0.682        0.217       96.458       18.785        0.038      343.431       19.538      863.839
08/11/2014  04:13:00     -109.116      -58.798       -2.576       63.275       29.498       26.119     4003.771      870.139      682.222        1.046        0.278      123.950       32.779        0.070      343.596       19.817      863.814
08/11/2014  04:14:00     -127.187      -86.624        1.569       91.184       51.694       35.867     8314.596     2672.249     1286.453        1.798        0.614      153.884       36.269        0.056      343.618       19.856      863.795
08/11/2014  04:15:00     -127.474      -34.749        2.235       60.342       41.522       21.389     3641.188     1724.037      457.469        1.164        0.291      132.126       25.843        0.038      343.553       19.743      863.781
08/11/2014  04:16:00     -106.008      -19.197        0.387       51.863       35.554       26.927     2689.763     1264.058      725.089        0.814        0.234      107.733       26.693        0.061      343.453       19.574      863.782
08/11/2014  04:17:00     -122.460      -40.216        2.205       66.044       47.577       26.650     4361.767     2263.527      710.239        1.198        0.367      128.894       26.529        0.042      343.478       19.616      863.775
08/11/2014  04:18:00     -160.779       -1.135       -4.749       67.434       39.962       36.427     4547.288     1596.936     1326.934        1.667        0.374      160.783       34.060        0.045      343.511       19.672      863.768
08/11/2014  04:19:00      -88.080      -41.917        8.306       42.411       38.265       29.752     1798.716     1464.198      885.163        0.687        0.207       97.545       22.270        0.052      343.373       19.439      863.767
08/11/2014  04:20:00     -148.173     -114.402       -2.396       59.051       56.013       26.302     3486.969     3137.505      691.811        2.118        0.366      187.198       24.357        0.017      343.575       19.782      863.770
08/11/2014  04:21:00     -118.948      -70.255       -2.846       66.067       44.445       28.225     4364.896     1975.323      796.636        1.311        0.357      138.146       28.006        0.041      343.523       19.695      863.771
08/11/2014  04:22:00      -90.662      -75.484        8.645       53.246       47.887       30.048     2835.092     2293.197      902.911        1.001        0.302      117.972       30.104        0.065      343.498       19.651      863.767
08/11/2014  04:23:00     -116.425     -100.354        7.659       63.069       50.200       31.217     3977.743     2520.061      974.502        1.558        0.374      153.707       29.415        0.037      343.586       19.800      863.770
08/11/2014  04:24:00     -117.486      -98.852       -5.448       50.795       46.752       30.769     2580.094     2185.787      946.758        1.466        0.286      153.541       32.064        0.044      343.629       19.874      863.773
08/11/2014  04:25:00      -94.145      -72.645       -4.215       54.924       49.971       28.864     3016.637     2497.144      833.134        1.025        0.317      118.914       18.910        0.025      343.590       19.810      863.792
08/11/2014  04:26:00      -46.552      -69.476       -6.336       33.589       24.927       20.261     1128.187      621.332      410.491        0.460        0.108       83.630       15.917        0.036      343.607       19.836      863.810
08/11/2014  04:27:00       -9.040      -48.349       -6.710       20.807       25.225       18.406      432.936      636.320      338.789        0.194        0.070       49.187       11.282        0.053      343.613       19.847      863.817
08/11/2014  04:28:00      -20.838      -33.710        4.398       33.784       21.595       16.238     1141.360      466.330      263.684        0.173        0.094       39.631       14.078        0.126      343.556       19.751      863.818
08/11/2014  04:29:00      -17.957      -22.244       -0.496       17.552       23.257       13.020      308.074      540.879      169.509        0.092        0.051       28.587        6.273        0.048      343.513       19.677      863.816
08/11/2014  04:30:00      -26.046       17.589       -1.806       31.096       24.900        9.006      966.947      619.997       81.101        0.133        0.083       31.429        8.159        0.067      343.393       19.474      863.818
08/11/2014  04:31:00      -24.230       37.685        4.660       14.211       21.573       16.380      201.963      465.393      268.309        0.148        0.047       44.802       10.136        0.051      343.279       19.279      863.819
08/11/2014  04:32:00      -37.805       52.265       -4.154       20.939       22.015       15.179      438.446      484.682      230.411        0.267        0.058       64.505       13.675        0.045      343.106       18.982      863.814
08/11/2014  04:33:00      -74.075       60.427      -13.564       23.889       21.906       13.624      570.677      479.865      185.617        0.528        0.062       95.595       10.920        0.013      342.997       18.798      863.807
08/11/2014  04:34:00      -63.398       29.409       -6.605       18.471       14.825       14.737      341.179      219.793      217.173        0.285        0.039       69.887       10.706        0.023      343.081       18.942      863.804
08/11/2014  04:35:00      -62.511       17.840       -1.593       22.402       15.999       12.299      501.860      255.971      151.273        0.257        0.045       65.006        7.808        0.014      343.175       19.102      863.806
08/11/2014  04:36:00      -60.962       13.737       -6.938       21.883       14.320       10.270      478.851      205.056      105.476        0.237        0.039       62.490       10.323        0.027      343.173       19.098      863.816
08/11/2014  04:37:00      -44.293        7.116       -0.230       13.403       12.072       11.111      179.647      145.729      123.465        0.123        0.022       44.860        8.004        0.032      343.152       19.062      863.826
08/11/2014  04:38:00      -27.247      -16.302       -2.974       22.868       14.094       11.938      522.959      198.645      142.517        0.094        0.043       31.752       12.643        0.159      343.142       19.046      863.840
08/11/2014  04:39:00        0.906        7.737       12.690       10.627        7.472        6.591      112.927       55.827       43.435        0.022        0.011        7.789        5.491        0.497      342.940       18.702      863.847
08/11/2014  04:40:00       -9.627       30.124       -2.415       17.220       19.800       11.222      296.542      392.024      125.929        0.091        0.041       31.625       12.364        0.153      342.982       18.774      863.858
08/11/2014  04:41:00       -6.842       45.032       -1.505       16.286       15.851       11.866      265.230      251.261      140.813        0.137        0.033       45.549        8.276        0.033      342.988       18.782      863.863
08/11/2014  04:42:00        4.147       43.219       -3.190       14.672       20.080        9.954      215.273      403.202       99.091        0.131        0.036       43.418        9.713        0.050      342.871       18.583      863.858
08/11/2014  04:43:00        9.839        4.218        2.787       11.530       13.253       11.784      132.940      175.631      138.855        0.028        0.022       10.705       11.414        1.137      342.771       18.415      863.857
08/11/2014  04:44:00       -2.594      -12.079        0.318        4.947        5.931        5.803       24.475       35.179       33.675        0.012        0.005       12.355        4.081        0.109      342.810       18.481      863.847
08/11/2014  04:45:00      -16.561      -15.806       -2.064        9.608        7.666        5.075       92.312       58.761       25.759        0.035        0.009       22.893        4.446        0.038      342.919       18.666      863.835
08/11/2014  04:46:00      -37.851      -14.470       -0.798        9.134        9.755        6.136       83.425       95.159       37.646        0.093        0.011       40.523        4.709        0.014      342.859       18.563      863.831
08/11/2014  04:47:00      -62.705       -4.745       -2.896       21.186        8.385       10.064      448.848       70.302      101.294        0.229        0.031       62.884        8.451        0.018      342.763       18.397      863.827
08/11/2014  04:48:00      -85.907       -5.130       -4.867       16.230       14.632        9.132      263.402      214.095       83.400        0.400        0.028       86.060        9.175        0.011      342.693       18.279      863.828
08/11/2014  04:49:00      -80.338       -3.000       -7.166       11.017        8.969        6.189      121.370       80.441       38.304        0.338        0.012       80.394        5.442        0.005      342.703       18.299      863.837
08/11/2014  04:50:00      -82.663        6.694       -7.447        8.301        7.097        6.989       68.901       50.373       48.852        0.355        0.008       82.934        4.962        0.004      342.705       18.302      863.851
08/11/2014  04:51:00      -75.796        9.079       -9.606       12.145        8.545        8.093      147.489       73.017       65.494        0.310        0.014       76.338        5.313        0.005      342.673       18.246      863.855
08/11/2014  04:52:00      -38.190        9.250       -7.165       11.355        5.841        4.904      128.928       34.112       24.047        0.089        0.009       39.294        4.488        0.013      342.731       18.345      863.855
08/11/2014  04:53:00      -11.723       19.287       -1.083       10.468       10.258        5.836      109.581      105.230       34.057        0.038        0.012       22.570        6.165        0.075      342.863       18.569      863.852
08/11/2014  04:54:00        3.340       22.753        1.526        5.949        4.713        4.163       35.393       22.209       17.333        0.030        0.004       22.997        2.580        0.013      342.945       18.709      863.851
08/11/2014  04:55:00        3.205       14.137       -1.010        5.792       16.540        6.261       33.550      273.582       39.203        0.028        0.017       14.496        3.699        0.065      342.843       18.538      863.848
08/11/2014  04:56:00        1.677       -1.796        2.762        3.836        6.120        4.919       14.713       37.457       24.193        0.004        0.004        2.457        4.346        3.128      342.802       18.466      863.849
08/11/2014  04:57:00       10.324        4.660        0.929        7.254        4.565        4.048       52.628       20.843       16.387        0.011        0.004       11.327        1.826        0.026      342.810       18.480      863.853
08/11/2014  04:58:00        4.489        6.405       -0.968        5.807        5.319        3.059       33.716       28.293        9.359        0.007        0.004        7.822        2.595        0.110      342.838       18.527      863.856
08/11/2014  04:59:00       -7.939        8.561        1.053        4.975        6.054        2.534       24.754       36.647        6.420        0.010        0.003       11.675        1.556        0.018      342.912       18.653      863.847
08/11/2014  05:00:00      -18.378       10.405        3.903       10.019       13.882        6.557      100.386      192.719       42.996        0.040        0.017       21.119        2.910        0.019      342.863       18.573      863.843
08/11/2014  05:01:00      -56.801      -11.978       -7.641       10.192        7.806        5.306      103.885       60.928       28.155        0.181        0.010       58.050        3.096        0.003      342.547       18.034      863.832
08/11/2014  05:02:00      -70.099      -14.701      -11.487       13.475       12.385       12.214      181.581      153.392      149.184        0.287        0.024       71.624        9.682        0.018      342.514       17.976      863.825
08/11/2014  05:03:00      -88.862       -2.067       -6.633       30.591       15.233       14.214      935.838      232.038      202.047        0.466        0.068       88.887       15.520        0.030      342.325       17.656      863.813
08/11/2014  05:04:00      -75.181      -15.934       -6.223       31.232       19.122       10.375      975.410      365.648      107.637        0.370        0.072       76.851        8.826        0.013      342.288       17.593      863.802
08/11/2014  05:05:00      -38.709      -38.638       -4.456       22.365       19.895       15.754      500.171      395.804      248.200        0.208        0.057       54.693        6.447        0.014      342.264       17.552      863.801
08/11/2014  05:06:00      -39.863      -44.242        7.860       32.122       19.631       19.623     1031.834      385.364      385.052        0.270        0.090       59.552       22.094        0.138      342.234       17.501      863.795
08/11/2014  05:07:00      -53.859      -15.675       -2.674       22.697       16.323       13.789      515.150      266.452      190.149        0.206        0.049       56.094       13.772        0.060      342.220       17.477      863.794
08/11/2014  05:08:00      -60.035       -4.046       -2.897       21.035       15.669       10.752      442.471      245.505      115.611        0.222        0.040       60.171        8.830        0.022      342.209       17.460      863.784
08/11/2014  05:09:00      -60.417      -30.281       -6.913       28.302       20.822       10.569      801.026      433.564      111.707        0.298        0.067       67.580       11.002        0.027      342.279       17.578      863.786
08/11/2014  05:10:00      -53.242      -26.406       -3.751       19.002       19.409       11.754      361.092      376.714      138.145        0.221        0.044       59.431        7.876        0.018      342.255       17.537      863.789
08/11/2014  05:11:00      -60.384      -67.829       -4.286       22.785       17.716       16.574      519.154      313.861      274.690        0.469        0.055       90.813        7.304        0.006      342.172       17.396      863.795
08/11/2014  05:12:00      -88.736      -58.507       -5.527       23.696       30.308       13.590      561.489      918.579      184.689        0.650        0.083      106.288       14.776        0.019      342.183       17.413      863.795
08/11/2014  05:13:00     -115.582      -37.664       -5.383       24.518       16.956       14.675      601.109      287.505      215.369        0.796        0.055      121.564       14.177        0.014      342.242       17.514      863.786
08/11/2014  05:14:00      -88.967      -33.663        1.434       25.398       23.771       16.238      645.065      565.054      263.671        0.526        0.074       95.123       15.127        0.025      342.283       17.584      863.777
08/11/2014  05:15:00      -40.481      -37.924        2.218       31.356       26.895       20.884      983.217      723.366      436.149        0.261        0.107       55.470       15.430        0.077      342.324       17.653      863.780
08/11/2014  05:16:00      -74.582      -60.769        3.247       43.129       30.896       20.777     1860.087      954.550      431.696        0.626        0.162       96.204       20.928        0.047      342.411       17.802      863.785
08/11/2014  05:17:00      -46.626      -44.021        4.318       39.021       28.109       18.192     1522.628      790.099      330.936        0.339        0.132       64.124       18.035        0.079      342.315       17.638      863.781
08/11/2014  05:18:00     -110.834      -48.977        0.626       34.108       30.976       17.220     1163.326      959.498      296.535        0.855        0.121      121.173       13.601        0.013      342.367       17.728      863.784
08/11/2014  05:19:00      -85.555      -46.763       -4.209       17.978       23.060       14.032      323.225      531.765      196.895        0.529        0.053       97.501        6.471        0.004      342.287       17.591      863.789
08/11/2014  05:20:00      -57.152      -39.594        0.608       27.311       21.507       18.524      745.886      462.533      343.140        0.319        0.078       69.527       11.761        0.029      342.309       17.628      863.798
08/11/2014  05:21:00      -99.913      -33.914      -10.184       20.509       25.264       12.593      420.614      638.250      158.573        0.623        0.061      105.512        7.590        0.005      342.350       17.697      863.800
08/11/2014  05:22:00      -78.631      -40.951       -0.873       30.498       30.068       16.498      930.104      904.056      272.185        0.498        0.105       88.656       16.333        0.034      342.251       17.530      863.801
08/11/2014  05:23:00      -90.605      -28.952       -6.246       18.228       16.292       12.422      332.256      265.418      154.303        0.492        0.038       95.118        8.288        0.008      342.175       17.400      863.805
08/11/2014  05:24:00     -120.519      -34.175       -3.940       16.793       13.478       13.130      282.012      181.649      172.403        0.817        0.032      125.271        9.409        0.006      342.195       17.435      863.800
08/11/2014  05:25:00     -115.809      -45.853       -6.127       33.961       14.438       14.931     1153.361      208.464      222.935        0.857        0.079      124.556       18.709        0.023      342.253       17.534      863.785
08/11/2014  05:26:00     -103.938      -49.903        2.553       36.977       28.384       18.960     1367.312      805.659      359.494        0.792        0.127      115.297       14.824        0.017      342.230       17.496      863.770
08/11/2014  05:27:00      -64.161      -49.490        1.521       29.090       24.240       15.407      846.248      587.583      237.368        0.412        0.084       81.030       17.576        0.047      342.191       17.427      863.765
08/11/2014  05:28:00      -59.583      -53.270       -1.735       21.812       17.927       12.258      475.758      321.394      150.247        0.367        0.047       79.924       11.525        0.021      342.188       17.423      863.776
08/11/2014  05:29:00      -46.466      -26.622       -2.888       24.300       13.408       10.489      590.501      179.783      110.026        0.188        0.044       53.552        9.816        0.034      342.146       17.353      863.786
08/11/2014  05:30:00      -57.600      -25.488       -6.777       33.526       17.837       13.356     1123.976      318.149      178.384        0.282        0.081       62.987       13.363        0.045      342.187       17.422      863.797
08/11/2014  05:31:00      -68.905        3.599       -3.194       14.888       12.825       11.484      221.662      164.486      131.889        0.264        0.026       68.999        7.688        0.012      342.093       17.262      863.811
08/11/2014  05:32:00      -61.356      -18.579       -1.744       12.774       15.470        8.693      163.180      239.320       75.561        0.230        0.024       64.108        5.736        0.008      342.126       17.317      863.834
08/11/2014  05:33:00      -66.788      -18.172        1.800       17.978       16.324       12.315      323.203      266.463      151.669        0.277        0.037       69.216        9.759        0.020      342.149       17.357      863.839
08/11/2014  05:34:00      -92.900      -28.218        2.968       24.491       21.071       10.532      599.797      443.994      110.931        0.529        0.058       97.091        9.154        0.009      342.207       17.455      863.845
08/11/2014  05:35:00      -90.275      -49.651        5.500       28.106       23.641       19.014      789.922      558.878      361.530        0.618        0.086      103.028       18.240        0.031      342.245       17.520      863.849
08/11/2014  05:36:00      -87.262      -53.852        1.902       25.251       21.136       15.683      637.588      446.730      245.954        0.592        0.067      102.541       14.288        0.019      342.325       17.656      863.858
08/11/2014  05:37:00      -73.074      -52.750        5.180       34.127       15.311       11.514     1164.638      234.420      132.581        0.484        0.077       90.124        9.756        0.012      342.297       17.607      863.865
08/11/2014  05:38:00      -88.565      -55.490       -1.072       28.464       20.451       12.324      810.211      418.250      151.870        0.615        0.069      104.512        9.209        0.008      342.302       17.615      863.873
08/11/2014  05:39:00      -26.473      -28.145       10.193       45.814       26.042       22.821     2098.922      678.176      520.819        0.245        0.165       38.639       23.969        0.385      342.270       17.561      863.899
08/11/2014  05:40:00      -62.706      -39.680       -1.241       21.495       22.378       14.114      462.031      500.766      199.216        0.333        0.058       74.206       11.451        0.024      342.191       17.429      863.932
08/11/2014  05:41:00       -0.911      -21.758        7.836       19.534       18.053       10.554      381.583      325.917      111.385        0.068        0.041       21.777       11.857        0.296      342.204       17.451      863.969
08/11/2014  05:42:00      -10.554       -8.524        2.468       16.968       10.419        7.979      287.898      108.561       63.660        0.033        0.023       13.567        8.093        0.356      342.319       17.646      864.003
08/11/2014  05:43:00       12.530       -6.815        5.277       20.251       18.822       13.193      410.093      354.280      174.066        0.058        0.047       14.263        8.189        0.330      342.337       17.673      864.028
08/11/2014  05:44:00       -2.766      -26.617        4.112       13.125       21.623       12.389      172.262      467.557      153.477        0.076        0.040       26.761        8.190        0.094      342.281       17.582      864.047
08/11/2014  05:45:00      -24.544       -3.016       -2.510       14.137       21.611       10.395      199.855      467.044      108.062        0.070        0.039       24.729       12.155        0.242      342.299       17.611      864.062
08/11/2014  05:46:00      -17.231      -17.682        3.985        9.617       12.937        7.905       92.483      167.354       62.487        0.047        0.016       24.690        5.838        0.056      342.217       17.471      864.069
08/11/2014  05:47:00      -21.314      -13.089        2.703       16.305        8.717        8.055      265.854       75.979       64.886        0.052        0.020       25.013        8.016        0.103      342.197       17.439      864.076
08/11/2014  05:48:00      -50.572      -21.413       -6.671       13.238        9.154        5.994      175.243       83.793       35.929        0.168        0.015       54.918        4.804        0.008      342.045       17.181      864.078
08/11/2014  05:49:00      -73.567      -35.923       -4.367       18.234       19.169       13.681      332.487      367.443      187.169        0.380        0.044       81.869        8.051        0.010      342.081       17.242      864.071
08/11/2014  05:50:00     -100.735      -33.479       -0.682       19.974       16.540       11.245      398.945      273.575      126.449        0.603        0.040      106.152       10.063        0.009      342.028       17.151      864.067
08/11/2014  05:51:00      -78.370      -45.408        3.940       44.001       21.504       14.303     1936.120      462.415      204.568        0.541        0.130       90.574       14.593        0.026      342.068       17.219      864.067
08/11/2014  05:52:00      -85.528      -54.722        1.127       30.815       22.659       17.907      949.585      513.427      320.662        0.605        0.089      101.536       14.303        0.020      342.093       17.261      864.077
08/11/2014  05:53:00      -58.343      -33.373        5.797       33.084       18.238       19.354     1094.562      332.643      374.562        0.318        0.090       67.213       16.527        0.060      342.071       17.225      864.086
08/11/2014  05:54:00      -41.482      -45.875       -5.907       34.213       28.274       16.883     1170.555      799.413      285.038        0.306        0.113       61.849       12.032        0.038      342.110       17.290      864.086
08/11/2014  05:55:00      -40.349      -43.090        3.427       41.204       22.412       18.478     1697.766      502.276      341.443        0.302        0.127       59.032       17.459        0.087      342.136       17.335      864.087
08/11/2014  05:56:00      -60.641      -26.436       -6.495       32.539       28.598       13.837     1058.801      817.830      191.463        0.324        0.103       66.153       12.959        0.038      342.131       17.326      864.083
08/11/2014  05:57:00      -84.399      -38.307       -7.117       18.788       20.092       12.339      352.982      403.671      152.245        0.477        0.045       92.685        7.328        0.006      342.090       17.256      864.076
08/11/2014  05:58:00     -105.308      -33.564       -6.142       19.456       21.228       14.165      378.543      450.632      200.635        0.664        0.051      110.527        9.295        0.007      342.070       17.223      864.081
08/11/2014  05:59:00      -87.600      -26.179       -4.835       40.779       27.377       19.490     1662.959      749.475      379.857        0.559        0.140       91.428       22.209        0.059      341.954       17.025      864.082
08/11/2014  06:00:00      -67.780      -40.764       -4.816       34.733       26.869       16.735     1206.413      721.927      280.060        0.424        0.110       79.094       17.954        0.052      341.917       16.963      864.078
08/11/2014  06:01:00      -96.263      -27.157        1.893       32.593       27.724       17.111     1062.328      768.635      292.803        0.607        0.106      100.020       18.478        0.034      341.881       16.902      864.081
08/11/2014  06:02:00      -92.364      -19.342        4.236       29.716       27.165       18.804      883.068      737.920      353.604        0.545        0.099       94.367       16.462        0.030      341.838       16.828      864.103
08/11/2014  06:03:00     -133.559      -58.465        6.077       40.889       32.201       20.868     1671.875     1036.897      435.463        1.222        0.157      145.795       21.516        0.022      341.912       16.954      864.113
08/11/2014  06:04:00     -125.942      -42.643        0.978       42.468       29.209       19.567     1803.530      853.175      382.870        1.036        0.152      132.965       11.076        0.007      341.943       17.008      864.122
08/11/2014  06:05:00      -78.737      -11.564       -4.122       43.589       30.493       21.600     1900.007      929.826      466.574        0.482        0.165       79.581       24.560        0.095      341.804       16.769      864.134
08/11/2014  06:06:00      -72.920      -22.723        6.715       43.086       31.640       22.889     1856.426     1001.084      523.892        0.463        0.169       76.378       26.630        0.122      341.763       16.700      864.142
08/11/2014  06:07:00     -100.347      -51.042       -2.649       34.326       31.486       17.307     1178.284      991.372      299.536        0.758        0.123      112.583       13.615        0.015      341.851       16.851      864.158
08/11/2014  06:08:00      -69.024      -85.027       -2.675       49.252       29.776       28.941     2425.780      886.631      837.602        0.807        0.208      109.516       16.305        0.022      341.954       17.027      864.177
08/11/2014  06:09:00      -70.193     -122.747        2.323       50.452       30.875       31.453     2545.422      953.290      989.276        1.224        0.224      141.400       29.202        0.043      341.950       17.018      864.189
08/11/2014  06:10:00      -49.778      -75.313        9.961       43.565       42.958       29.278     1897.907     1845.395      857.179        0.642        0.230       90.277       19.524        0.047      341.947       17.012      864.196
08/11/2014  06:11:00      -30.537      -80.648        3.486       47.957       40.369       21.383     2299.876     1629.674      457.238        0.592        0.219       86.236        9.444        0.012      341.996       17.096      864.206
08/11/2014  06:12:00      -82.079      -89.432        0.647       46.511       71.132       30.925     2163.284     5059.825      956.354        1.146        0.409      121.388       29.458        0.059      342.012       17.124      864.232
08/11/2014  06:13:00      -18.975      -67.587       17.252       38.012       45.557       23.633     1444.915     2075.458      558.515        0.465        0.204       70.200       18.881        0.072      341.988       17.083      864.249
08/11/2014  06:14:00      -48.114      -42.416        3.472       47.536       41.557       28.603     2259.701     1726.965      818.123        0.446        0.240       64.141       27.149        0.179      342.006       17.113      864.266
08/11/2014  06:15:00      -14.930      -34.654        4.314       43.071       33.395       24.106     1855.147     1115.232      581.087        0.250        0.178       37.733       14.697        0.152      342.038       17.168      864.298
08/11/2014  06:16:00      -10.902      -68.116       -3.459       41.634       37.487       24.913     1733.382     1405.255      620.676        0.426        0.188       68.983        7.117        0.011      342.039       17.169      864.313
08/11/2014  06:17:00       11.100      -91.347        4.607       45.438       33.905       28.414     2064.589     1149.542      807.369        0.625        0.201       92.019       30.746        0.112      342.012       17.125      864.336
08/11/2014  06:18:00      -45.875      -41.738       -1.481       33.774       31.253       20.481     1140.689      976.776      419.482        0.319        0.127       62.021       12.315        0.039      341.979       17.068      864.358
08/11/2014  06:19:00       -6.062      -12.556       -1.835       13.689        9.818       10.018      187.381       96.399      100.366        0.029        0.019       13.942        7.265        0.272      341.960       17.036      864.383
08/11/2014  06:20:00      -12.202      -32.529      -10.164       17.251       24.049       10.828      297.589      578.359      117.254        0.115        0.050       34.743        4.644        0.018      342.017       17.131      864.396
08/11/2014  06:21:00      -75.564      -46.203       -4.636       24.078       31.525       13.176      579.755      993.799      173.600        0.481        0.087       88.570       14.029        0.025      341.943       17.008      864.390
08/11/2014  06:22:00      -63.715      -39.160       -9.213       11.324       17.866        9.219      128.244      319.204       84.987        0.311        0.027       74.788        5.082        0.005      341.958       17.033      864.388
08/11/2014  06:23:00      -95.109      -45.905       -8.790       12.411       17.288       11.688      154.036      298.880      136.609        0.591        0.029      105.608        4.937        0.002      341.996       17.097      864.382
08/11/2014  06:24:00     -117.792      -64.339      -13.040       23.927       19.987       14.924      572.520      399.485      222.711        0.969        0.060      134.218       11.769        0.008      341.988       17.083      864.371
08/11/2014  06:25:00      -74.945      -53.332       -2.584       32.027       20.345       14.313     1025.751      413.910      204.871        0.506        0.082       91.984       11.471        0.016      341.960       17.036      864.365
08/11/2014  06:26:00     -103.907      -48.069       -6.660       24.609       16.141       11.067      605.626      260.539      122.481        0.707        0.049      114.487        5.416        0.002      341.955       17.027      864.359
08/11/2014  06:27:00      -89.501      -32.913       -0.537       41.002       26.683       17.448     1681.145      712.008      304.423        0.590        0.135       95.361       22.644        0.056      341.932       16.989      864.363
08/11/2014  06:28:00      -86.642      -31.133       -0.070       20.541       23.694       14.273      421.925      561.384      203.726        0.483        0.059       92.066        9.880        0.012      341.900       16.933      864.367
08/11/2014  06:29:00      -96.159      -31.417       -2.596       25.437       32.611       13.958      647.048     1063.451      194.817        0.607        0.095      101.161        9.834        0.009      341.919       16.966      864.380
08/11/2014  06:30:00      -85.560      -17.922       -2.557       29.279       17.788       13.346      857.248      316.425      178.108        0.450        0.068       87.417       11.746        0.018      341.977       17.063      864.387
08/11/2014  06:31:00      -43.287      -17.383        7.237       30.072       21.266       15.401      904.347      452.222      237.204        0.191        0.080       46.647       12.821        0.076      341.923       16.972      864.400
08/11/2014  06:32:00      -69.641      -17.198       -3.779       18.246       16.232       11.117      332.933      263.482      123.594        0.294        0.036       71.733        6.760        0.009      341.864       16.872      864.419
08/11/2014  06:33:00      -74.157      -15.113       -6.308       17.366       22.317       11.137      301.582      498.046      124.034        0.335        0.046       75.682        9.300        0.015      341.858       16.863      864.439
08/11/2014  06:34:00      -41.535      -17.970        7.146       30.438       30.520       14.438      926.443      931.492      208.447        0.208        0.103       45.255       11.268        0.062      341.843       16.838      864.450
08/11/2014  06:35:00      -14.317      -20.411        2.072       19.385       21.935       16.652      375.793      481.149      277.274        0.088        0.057       24.931        9.940        0.159      341.964       17.042      864.475
08/11/2014  06:36:00      -48.257        1.433       -0.932       11.254       13.005        8.022      126.642      169.131       64.357        0.135        0.018       48.278        5.738        0.014      341.809       16.782      864.490
08/11/2014  06:37:00      -48.680        8.517       -2.599       10.019       11.907        8.385      100.370      141.778       70.301        0.138        0.016       49.420        3.011        0.004      341.840       16.832      864.505
08/11/2014  06:38:00      -62.097       14.744       -6.277        9.693       11.636        7.344       93.964      135.408       53.933        0.220        0.014       63.824        3.544        0.003      341.773       16.718      864.504
08/11/2014  06:39:00      -48.453        1.897       -4.488       13.839       13.234       10.323      191.516      175.135      106.564        0.142        0.024       48.490        8.811        0.033      341.829       16.813      864.513
08/11/2014  06:40:00      -47.500      -11.602       -0.079       15.973       12.864       10.340      255.150      165.474      106.922        0.146        0.026       48.896        9.482        0.038      341.838       16.830      864.505
08/11/2014  06:41:00      -46.824      -22.508       -0.233       15.884       11.777        9.656      252.293      138.709       93.233        0.159        0.024       51.952        8.711        0.028      341.830       16.815      864.508
08/11/2014  06:42:00      -48.464      -15.731       -9.008       12.503       10.384        8.552      156.320      107.835       73.139        0.151        0.017       50.953        6.460        0.016      341.939       17.001      864.513
08/11/2014  06:43:00      -30.193      -12.470       -1.483       12.359        8.254        7.345      152.736       68.135       53.955        0.067        0.014       32.666        6.056        0.034      341.903       16.937      864.533
08/11/2014  06:44:00      -36.133      -15.398       -2.598       12.263        8.667        6.979      150.377       75.122       48.708        0.091        0.014       39.277        7.621        0.038      341.921       16.969      864.551
08/11/2014  06:45:00      -64.750      -24.332      -10.237       14.830        6.778        8.078      219.926       45.943       65.251        0.261        0.017       69.171        4.734        0.005      341.946       17.009      864.566
08/11/2014  06:46:00      -72.108      -17.437       -6.380       10.631        6.228        5.050      113.011       38.790       25.507        0.286        0.009       74.186        5.221        0.005      341.951       17.021      864.576
08/11/2014  06:47:00      -66.780      -25.932       -3.609        7.376       10.856        5.408       54.411      117.861       29.249        0.267        0.010       71.638        3.230        0.002      342.019       17.140      864.574
08/11/2014  06:48:00      -76.318      -34.414       -2.262        7.470       11.417        6.687       55.802      130.356       44.716        0.362        0.012       83.719        6.101        0.005      342.044       17.178      864.575
08/11/2014  06:49:00      -86.163      -15.873       -6.664       15.926       14.258        9.631      253.624      203.300       92.756        0.413        0.027       87.613        5.620        0.004      341.990       17.087      864.575
08/11/2014  06:50:00      -79.406       -3.466       -3.396       31.883       16.598       13.116     1016.537      275.500      172.035        0.390        0.073       79.482       13.392        0.028      341.905       16.942      864.580
08/11/2014  06:51:00      -80.231      -13.551        0.144       32.045       15.255       14.250     1026.904      232.713      203.072        0.404        0.073       81.367       16.925        0.043      341.911       16.953      864.575
08/11/2014  06:52:00      -50.218      -24.907        3.704       30.871       20.854       12.311      953.004      434.901      151.560        0.235        0.077       56.055       12.145        0.047      342.110       17.290      864.582
08/11/2014  06:53:00      -43.210      -37.003        3.300       19.301       12.935       12.120      372.547      167.325      146.893        0.197        0.034       56.889       12.199        0.046      342.142       17.344      864.596
08/11/2014  06:54:00      -48.215      -38.054       -4.701       22.328       14.792       11.709      498.537      218.817      137.108        0.232        0.043       61.423       13.001        0.045      342.242       17.514      864.591
08/11/2014  06:55:00      -63.741      -41.612        3.384       28.184       30.079       19.155      794.345      904.752      366.922        0.394        0.103       76.121       18.189        0.057      342.245       17.520      864.595
08/11/2014  06:56:00      -85.373      -44.038       -1.697       16.311       22.534       11.330      266.033      507.771      128.367        0.507        0.045       96.062        8.800        0.008      342.291       17.594      864.604
08/11/2014  06:57:00      -58.692       -1.991       -4.110       18.871       19.826       15.969      356.116      393.083      254.997        0.223        0.050       58.726       12.776        0.047      342.162       17.378      864.599
08/11/2014  06:58:00      -69.608        6.015       -6.588       22.776       27.262       14.110      518.748      743.207      199.086        0.319        0.073       69.868       12.301        0.031      342.117       17.301      864.611
08/11/2014  06:59:00      -83.115       12.509       -6.556       28.477       24.944       15.295      810.924      622.222      233.951        0.439        0.083       84.051        9.717        0.013      342.198       17.440      864.601
08/11/2014  07:00:00      -95.171        4.299       -4.998       38.740       22.862       13.686     1500.797      522.651      187.293        0.566        0.111       95.268       12.544        0.017      342.238       17.507      864.605
08/11/2014  07:01:00      -82.886      -12.648       -5.337       32.240       26.644       14.930     1039.418      709.892      222.898        0.451        0.099       83.845       14.082        0.028      342.211       17.462      864.604
08/11/2014  07:02:00     -103.783       -3.070       -3.528       44.512       28.636       21.727     1981.294      820.010      472.063        0.703        0.164      103.829       23.925        0.053      342.228       17.491      864.591
08/11/2014  07:03:00     -122.866       11.973      -11.960       40.771       20.997       15.289     1662.301      440.871      233.755        0.886        0.117      123.448       19.643        0.025      342.169       17.389      864.583
08/11/2014  07:04:00     -102.018      -15.852       -6.385       32.613       23.689       19.551     1063.596      561.192      382.247        0.635        0.100      103.242       17.547        0.029      342.138       17.337      864.560
08/11/2014  07:05:00     -113.796       -1.240      -11.751       33.800       18.260       19.205     1142.412      333.423      368.830        0.747        0.092      113.802       18.026        0.025      342.099       17.271      864.542
08/11/2014  07:06:00      -88.044        4.254       -7.078       28.342       21.191       19.067      803.263      449.070      363.543        0.472        0.081       88.146       19.074        0.047      342.165       17.384      864.519
08/11/2014  07:07:00      -61.438       23.551       -5.791       34.525       25.531       13.715     1191.972      651.838      188.089        0.320        0.102       65.797        9.215        0.020      342.267       17.558      864.505
08/11/2014  07:08:00      -78.042       58.097      -14.807       24.355       24.607       20.966      593.181      605.496      439.566        0.566        0.082       97.293       15.207        0.024      342.419       17.814      864.507
08/11/2014  07:09:00      -56.601       28.030       -3.087       20.694       21.592       15.075      428.227      466.209      227.260        0.256        0.056       63.161       10.263        0.026      342.431       17.835      864.523
08/11/2014  07:10:00      -42.275       10.107        0.037       20.925       11.150       12.382      437.858      124.329      153.314        0.130        0.036       43.467        9.432        0.047      342.593       18.112      864.544
08/11/2014  07:11:00      -14.084       20.088       -7.777       11.491       13.193        9.458      132.049      174.056       89.456        0.053        0.020       24.533        6.608        0.073      342.684       18.266      864.561
08/11/2014  07:12:00       -8.786       -7.114        1.466       10.271        8.069        6.908      105.498       65.103       47.723        0.017        0.011       11.305        4.323        0.146      342.709       18.308      864.571
08/11/2014  07:13:00       -3.785       -5.968       -4.166       13.111        9.983       12.372      171.910       99.660      153.065        0.025        0.021        7.067       10.316        2.131      342.812       18.484      864.571
08/11/2014  07:14:00      -15.592      -18.630        2.393       12.597       12.651       14.373      158.689      160.048      206.597        0.056        0.026       24.294       11.636        0.229      342.674       18.249      864.573
08/11/2014  07:15:00      -36.332      -30.184       -0.434       15.191       11.328        7.773      230.765      128.333       60.419        0.133        0.021       47.234        4.502        0.009      342.730       18.344      864.558
08/11/2014  07:16:00      -61.167      -24.604       -4.236       10.974       10.145        6.546      120.426      102.925       42.846        0.232        0.013       65.930        1.494        0.001      342.705       18.301      864.544
08/11/2014  07:17:00      -78.173      -16.893        0.016       12.019       11.696        9.074      144.467      136.798       82.339        0.338        0.018       79.977        7.588        0.009      342.707       18.303      864.522
08/11/2014  07:18:00      -70.952      -15.092       -2.675       13.767       12.179        8.439      189.517      148.335       71.210        0.284        0.020       72.539        6.322        0.008      342.749       18.376      864.506
08/11/2014  07:19:00      -45.885      -21.931       -0.503       22.906       16.341        8.637      524.685      267.017       74.603        0.173        0.043       50.857        4.577        0.008      342.801       18.463      864.491
08/11/2014  07:20:00      -52.418      -20.400        0.383       15.669       14.330       11.931      245.527      205.359      142.350        0.188        0.030       56.248        9.472        0.028      342.824       18.505      864.486
08/11/2014  07:21:00      -46.434      -24.042        2.823       16.419       15.676        8.978      269.579      245.728       80.597        0.167        0.030       52.289        8.657        0.027      342.881       18.602      864.474
08/11/2014  07:22:00      -40.432       -7.604        7.394       25.529       16.324       14.896      651.721      266.479      221.877        0.144        0.057       41.141       16.237        0.156      343.206       19.156      864.478
08/11/2014  07:23:00      -42.463      -19.283       -1.482       18.025       10.484       11.712      324.909      109.915      137.170        0.137        0.029       46.636        9.244        0.039      342.996       18.796      864.486
08/11/2014  07:24:00      -33.036      -50.033       -1.169       15.641       21.605       12.407      244.644      466.794      153.934        0.223        0.043       59.955        8.606        0.021      343.094       18.964      864.505
08/11/2014  07:25:00      -37.657      -39.732        4.425       17.198       14.812       15.124      295.775      219.397      228.735        0.188        0.037       54.742       10.179        0.035      343.231       19.196      864.516
08/11/2014  07:26:00      -29.920      -37.591       -2.889       24.742       11.341       10.278      612.181      128.625      105.640        0.158        0.042       48.045        5.918        0.015      343.255       19.237      864.524
08/11/2014  07:27:00      -31.848      -45.401       -1.985       30.683       24.718       15.398      941.449      610.961      237.088        0.243        0.089       55.458       11.415        0.042      343.253       19.234      864.526
08/11/2014  07:28:00      -51.433      -61.054       -4.041       29.269       30.594       16.241      856.663      936.005      263.781        0.422        0.103       79.831       13.226        0.027      343.202       19.147      864.523
08/11/2014  07:29:00      -49.225      -31.676       -0.932       24.210       22.649       20.186      586.132      512.989      407.462        0.247        0.075       58.536        8.550        0.021      343.180       19.111      864.524
08/11/2014  07:30:00      -48.578      -40.672       -3.653       19.005       15.263       12.997      361.194      232.959      168.920        0.240        0.038       63.357       13.038        0.042      343.216       19.172      864.511
08/11/2014  07:31:00      -18.290      -29.940        2.568       23.679       22.209       18.615      560.718      493.259      346.503        0.132        0.070       35.085       17.485        0.248      343.487       19.633      864.510
08/11/2014  07:32:00      -68.546      -30.950      -11.617       27.951       19.870       18.595      781.279      394.813      345.766        0.366        0.076       75.209       15.112        0.040      343.285       19.288      864.500
08/11/2014  07:33:00      -49.334      -28.482       -1.004       40.002       26.748       17.598     1600.144      715.478      309.707        0.294        0.131       56.966       13.989        0.060      343.263       19.254      864.515
08/11/2014  07:34:00      -29.239       -7.528        6.067       23.785       18.458       19.370      565.712      340.708      375.196        0.111        0.064       30.193       15.036        0.248      343.419       19.518      864.529
08/11/2014  07:35:00      -18.271      -13.589       -5.280       16.194       16.251       13.928      262.260      264.095      193.985        0.063        0.036       22.770        7.290        0.103      343.365       19.425      864.543
08/11/2014  07:36:00      -17.881       -3.116       10.421       25.777       13.308       20.385      664.447      177.093      415.530        0.085        0.063       18.151       20.496        1.275      343.845       20.246      864.563
08/11/2014  07:37:00      -12.918       -8.739        4.670       32.586       13.662       13.671     1061.862      186.643      186.906        0.085        0.072       15.597        6.745        0.187      343.450       19.569      864.576
08/11/2014  07:38:00      -11.346        7.761        9.042       21.859       24.319       20.510      477.818      591.396      420.659        0.088        0.074       13.746       16.810        1.495      343.702       20.001      864.587
08/11/2014  07:39:00      -28.366       20.117       23.068       15.602       17.089       19.760      243.412      292.024      390.453        0.133        0.046       34.775       12.633        0.132      343.613       19.850      864.587
08/11/2014  07:40:00      -27.987      -16.168        2.734       20.461       18.901       17.396      418.650      357.231      302.611        0.107        0.054       32.322       15.996        0.245      343.584       19.799      864.591
08/11/2014  07:41:00      -34.424      -18.789        6.636       26.129       19.412       17.066      682.725      376.841      291.239        0.147        0.068       39.218       16.360        0.174      343.405       19.494      864.597
08/11/2014  07:42:00      -42.764      -19.215       14.106       35.510       24.287       23.892     1260.988      589.838      570.847        0.241        0.121       46.882       23.976        0.262      343.541       19.726      864.601
08/11/2014  07:43:00      -20.072      -22.086       12.553       36.454       29.981       18.470     1328.897      898.874      341.146        0.181        0.128       29.844       18.044        0.366      343.705       20.005      864.614
08/11/2014  07:44:00      -33.838      -16.578       10.471       32.354       30.392       14.461     1046.753      923.653      209.123        0.185        0.109       37.681       17.088        0.206      343.501       19.658      864.632
08/11/2014  07:45:00      -13.892       -2.457       11.899       19.105       16.489       11.211      365.017      271.898      125.686        0.055        0.038       14.108        7.731        0.300      343.911       20.357      864.653
08/11/2014  07:46:00      -11.451       -8.677       20.574       19.324       23.740       21.498      373.418      563.577      462.174        0.101        0.070       14.367       19.107        1.769      343.978       20.473      864.661
08/11/2014  07:47:00       -6.734        7.967       27.889        8.522       12.074       15.366       72.617      145.788      236.099        0.067        0.023       10.431        9.576        0.843      344.330       21.073      864.671
08/11/2014  07:48:00      -11.214        0.488       16.474       11.267       12.688       20.684      126.957      160.977      427.843        0.056        0.036       11.225       12.733        1.287      344.240       20.921      864.682
08/11/2014  07:49:00       -4.918       21.062       44.234       13.772       14.337       10.830      189.663      205.557      117.283        0.147        0.026       21.628        8.425        0.152      344.264       20.960      864.686
08/11/2014  07:50:00       -4.631       -0.599       23.485        8.644       12.492       13.968       74.716      156.058      195.104        0.050        0.021        4.670        6.849        2.152      344.376       21.151      864.696
08/11/2014  07:51:00       -5.103       24.834       43.971        8.372       22.522       13.426       70.086      507.245      180.255        0.167        0.038       25.353        3.097        0.015      344.166       20.792      864.703
08/11/2014  07:52:00       -6.694      -21.523       30.142       10.332       27.361       20.972      106.754      748.649      439.827        0.136        0.065       22.540       16.855        0.559      343.810       20.183      864.692
08/11/2014  07:53:00       27.673      -63.446        5.791       22.651       45.901       25.370      513.049     2106.864      643.636        0.404        0.163       69.219       26.971        0.152      343.845       20.244      864.684
08/11/2014  07:54:00        1.752        7.089       42.566       20.259       27.214       24.056      410.410      740.602      578.672        0.180        0.086        7.302       18.906        6.703      344.150       20.765      864.677
08/11/2014  07:55:00       11.077       10.647       41.148       22.304       33.536       19.397      497.479     1124.670      376.257        0.196        0.100       15.365       16.138        1.103      344.073       20.633      864.669
08/11/2014  07:56:00       19.679      -36.589       20.025       25.590       34.774       30.084      654.847     1209.230      905.073        0.245        0.138       41.546       17.352        0.174      343.866       20.281      864.676
08/11/2014  07:57:00       10.734       -1.439       40.591       26.646       37.484       23.103      710.035     1405.043      533.759        0.221        0.132       10.830       17.990        2.759      343.952       20.427      864.681
08/11/2014  07:58:00       33.818      -33.718        8.118       33.761       39.436       37.139     1139.791     1555.167     1379.327        0.321        0.204       47.756       33.794        0.501      343.895       20.329      864.698
08/11/2014  07:59:00       44.987      -46.410       -2.225       47.634       50.169       30.902     2268.986     2516.953      954.934        0.496        0.287       64.635       32.585        0.254      343.857       20.265      864.716
08/11/2014  08:00:00       37.282      -25.600       27.389       51.895       57.189       34.481     2693.043     3270.566     1188.934        0.497        0.358       45.225       42.776        0.895      343.871       20.287      864.732
08/11/2014  08:01:00       22.188        4.658       38.194       25.590       30.212       27.678      654.860      912.781      766.061        0.215        0.117       22.671       16.544        0.532      343.946       20.417      864.746
08/11/2014  08:02:00       50.704      -63.758        8.009       28.975       36.535       26.837      839.557     1334.840      720.210        0.480        0.145       81.462       21.966        0.073      343.770       20.115      864.739
08/11/2014  08:03:00       14.956      -59.556       14.761       28.143       25.310       23.663      792.041      640.577      559.928        0.299        0.100       61.405       18.348        0.089      343.800       20.167      864.730
08/11/2014  08:04:00        1.631      -32.579       20.923       15.179       39.837       17.283      230.410     1586.992      298.716        0.181        0.106       32.620       14.167        0.189      343.894       20.327      864.712
08/11/2014  08:05:00       26.707       22.460       10.439       43.012       29.813       22.567     1850.046      888.807      509.285        0.229        0.162       34.896       14.554        0.174      343.741       20.066      864.703
08/11/2014  08:06:00       46.130       35.520        3.741       24.073       19.253       15.897      579.497      370.676      252.703        0.230        0.060       58.221       15.882        0.074      343.782       20.137      864.696
08/11/2014  08:07:00       56.126       56.129        6.077       24.078       17.881       19.873      579.768      319.728      394.939        0.382        0.065       79.376       13.251        0.028      343.711       20.015      864.692
08/11/2014  08:08:00       66.575       63.219       17.573       26.313       23.616       25.080      692.390      557.693      629.011        0.531        0.094       91.809       22.673        0.061      343.746       20.074      864.694
08/11/2014  08:09:00       50.042       42.253       18.818       31.411       29.064       23.142      986.634      844.734      535.569        0.350        0.118       65.494       19.231        0.086      343.803       20.172      864.683
08/11/2014  08:10:00       54.947       49.335       12.134       24.692       20.435       22.336      609.672      417.601      498.898        0.356        0.076       73.845       12.175        0.027      343.766       20.109      864.689
08/11/2014  08:11:00       33.901       31.507        6.411       15.952       10.841       12.043      254.474      117.521      145.034        0.135        0.026       46.281        6.671        0.021      343.701       19.997      864.693
08/11/2014  08:12:00       33.398       28.661       12.062       23.766       20.003       17.692      564.825      400.126      313.006        0.168        0.064       44.010       12.489        0.081      343.951       20.424      864.688
08/11/2014  08:13:00       44.187       55.647       -9.565       15.951       16.219       13.119      254.433      263.052      172.115        0.291        0.034       71.057        8.528        0.014      343.736       20.057      864.701
08/11/2014  08:14:00       44.099       56.982       -3.830       28.853       19.754       26.196      832.487      390.229      686.234        0.356        0.095       72.053       16.018        0.049      343.828       20.215      864.700
08/11/2014  08:15:00       38.795       41.620      -11.395       15.798       25.870       19.500      249.571      669.250      380.236        0.233        0.065       56.897       11.019        0.038      343.736       20.058      864.705
08/11/2014  08:16:00       52.369       56.349       -3.287       30.385       22.220       24.279      923.256      493.743      589.456        0.397        0.100       76.927       11.018        0.021      343.750       20.081      864.704
08/11/2014  08:17:00       45.264       41.385       -4.851       27.425       22.943       19.874      752.131      526.376      394.971        0.273        0.084       61.331       11.213        0.033      343.917       20.366      864.700
08/11/2014  08:18:00       18.840       32.701        3.369       29.153       22.572       16.530      849.898      509.484      273.245        0.153        0.082       37.740        8.672        0.053      344.028       20.557      864.700
08/11/2014  08:19:00       26.076       64.775        2.149       24.318       33.782       27.396      591.344     1141.250      750.523        0.368        0.124       69.827       23.810        0.116      344.096       20.673      864.688
08/11/2014  08:20:00       61.568       40.957        7.828       30.148       30.856       26.554      908.926      952.072      705.135        0.405        0.128       73.947       17.752        0.058      343.888       20.317      864.690
08/11/2014  08:21:00       75.416       56.744        1.900       19.538       18.239       18.708      381.728      332.668      349.991        0.499        0.053       94.379        8.963        0.009      343.735       20.054      864.695
08/11/2014  08:22:00       29.345       40.981       10.168       29.730       25.174       22.691      883.891      633.743      514.903        0.234        0.102       50.404       11.750        0.054      344.186       20.825      864.703
08/11/2014  08:23:00        3.015        1.371       40.383       31.449       53.103       24.795      989.029     2819.970      614.779        0.303        0.221        3.312       16.448       24.664      344.616       21.561      864.720
08/11/2014  08:24:00       27.696      -68.309       21.767       35.613       64.701       44.401     1268.270     4186.207     1971.473        0.667        0.371       73.710       44.018        0.357      344.162       20.786      864.720
08/11/2014  08:25:00       45.211       58.196       54.831       35.192       27.397       27.798     1238.464      750.569      772.729        0.560        0.138       73.694       27.098        0.135      344.098       20.677      864.724
08/11/2014  08:26:00       55.844       60.795       39.359       28.766       19.863       29.699      827.485      394.524      882.040        0.523        0.105       82.551       15.599        0.036      344.004       20.515      864.722
08/11/2014  08:27:00       46.606       53.560       10.920       14.874       21.362       27.415      221.249      456.329      751.559        0.329        0.071       70.999       10.747        0.023      344.022       20.546      864.720
08/11/2014  08:28:00       35.558       39.702       14.357       28.499       15.121       17.677      812.179      228.635      312.465        0.220        0.068       53.297       12.425        0.054      344.183       20.821      864.725
08/11/2014  08:29:00       17.123       47.004        3.032       30.958       30.110       29.428      958.383      906.629      865.998        0.262        0.137       50.025       23.298        0.217      344.298       21.018      864.727
08/11/2014  08:30:00       38.162       31.303        7.408       15.845       22.204       24.111      251.067      493.039      581.350        0.191        0.066       49.358       12.873        0.068      344.240       20.919      864.741
08/11/2014  08:31:00       54.669       41.100        5.037       18.666       24.544       24.897      348.436      602.393      619.846        0.314        0.079       68.395       12.823        0.035      344.188       20.829      864.732
08/11/2014  08:32:00       51.233       58.740       21.841       23.297       18.198       21.829      542.772      331.171      476.520        0.395        0.068       77.944        8.226        0.011      344.131       20.733      864.739
08/11/2014  08:33:00       17.680       44.223       54.047       23.909       31.238       19.876      571.632      975.801      395.040        0.357        0.097       47.627       17.313        0.132      344.735       21.765      864.728
08/11/2014  08:34:00       -1.992       31.452       59.426       28.345       37.950       21.403      803.455     1440.232      458.097        0.361        0.135       31.515       23.662        0.564      345.182       22.529      864.723
08/11/2014  08:35:00       16.199       33.186       62.242       39.549       38.253       26.319     1564.126     1463.301      692.696        0.448        0.186       36.929       24.118        0.427      344.942       22.118      864.717
08/11/2014  08:36:00        3.971       10.815       48.166       20.560       54.433       26.147      422.719     2962.964      683.683        0.326        0.203       11.521       31.394        7.426      344.565       21.475      864.713
08/11/2014  08:37:00       32.246      -75.927       -6.487       29.003       21.826       19.691      841.160      476.362      387.719        0.428        0.085       82.490       14.285        0.030      344.374       21.147      864.710
08/11/2014  08:38:00       12.895      -11.018       11.402       27.888       36.032       33.963      777.726     1298.333     1153.463        0.182        0.161       16.961       22.262        1.723      344.542       21.434      864.711
08/11/2014  08:39:00       -3.162        1.909       46.834       25.393       64.584       28.550      644.821     4171.124      815.130        0.392        0.282        3.693       29.371       63.239      344.683       21.677      864.714
08/11/2014  08:40:00       17.683       59.065       79.580       34.277       31.319       23.355     1174.896      980.882      545.474        0.642        0.135       61.655       22.675        0.135      344.690       21.688      864.712
08/11/2014  08:41:00       14.633       43.934       55.551       27.348       31.045       30.021      747.903      963.792      901.266        0.392        0.131       46.306       22.328        0.232      344.762       21.811      864.713
08/11/2014  08:42:00       21.669       27.652       39.976       35.785       27.115       28.818     1280.576      735.198      830.477        0.284        0.142       35.131       24.443        0.484      344.670       21.655      864.713
08/11/2014  08:43:00       13.059      -16.957       28.449       38.621       35.195       21.753     1491.573     1238.687      473.194        0.223        0.160       21.402       12.046        0.317      344.901       22.050      864.700
08/11/2014  08:44:00       28.280      -14.673       33.315       44.978       41.597       30.796     2023.036     1730.346      948.423        0.341        0.235       31.860       33.621        1.114      344.751       21.791      864.675
08/11/2014  08:45:00       18.681      -13.716       37.312       26.713       36.900       26.288      713.595     1361.622      691.062        0.235        0.138       23.176       22.522        0.944      344.900       22.047      864.669
08/11/2014  08:46:00        5.654       23.343       53.664       22.407       50.152       27.370      502.073     2515.267      749.132        0.361        0.188       24.018       26.390        1.207      344.923       22.086      864.653
08/11/2014  08:47:00       95.294       44.880        0.269       50.220       33.710       31.706     2522.059     1136.348     1005.254        0.788        0.233      105.334       14.852        0.020      344.375       21.150      864.657
08/11/2014  08:48:00       89.345       79.438       -4.430       43.003       28.189       29.281     1849.224      794.629      857.369        0.891        0.175      119.553       14.034        0.014      344.224       20.891      864.655
08/11/2014  08:49:00      106.664       78.668        8.593       30.496       32.085       29.876      929.979     1029.435      892.576        1.025        0.143      132.536       16.117        0.015      344.277       20.981      864.668
08/11/2014  08:50:00      111.173       72.096        7.817       31.644       41.820       31.512     1001.335     1748.880      993.037        1.068        0.187      132.503       13.595        0.011      344.412       21.213      864.672
08/11/2014  08:51:00      133.441       70.403        7.448       48.588       34.376       28.841     2360.797     1181.690      831.780        1.360        0.219      150.875       26.209        0.030      344.340       21.089      864.685
08/11/2014  08:52:00      156.336       93.099       -0.283       34.790       28.742       22.923     1210.366      826.080      525.478        1.783        0.128      181.956       11.284        0.004      344.193       20.839      864.688
08/11/2014  08:53:00       84.631       58.112       18.094       49.097       33.483       28.032     2410.541     1121.117      785.802        0.759        0.216      102.662       22.639        0.049      344.572       21.486      864.696
08/11/2014  08:54:00       93.736       53.797       14.573       37.596       35.839       33.110     1413.436     1284.432     1096.274        0.784        0.190      108.076       17.590        0.026      344.750       21.792      864.688
08/11/2014  08:55:00      114.148       48.888       21.325       72.199       71.796       42.279     5212.647     5154.611     1787.532        1.401        0.608      124.176       28.180        0.051      344.920       22.081      864.694
08/11/2014  08:56:00      132.463       86.788       24.905       80.978       49.497       43.781     6557.454     2449.908     1916.739        1.831        0.546      158.362       40.623        0.066      344.835       21.934      864.689
08/11/2014  08:57:00       85.246      109.100       77.506       75.043       68.212       55.091     5631.396     4652.879     3034.963        1.925        0.666      138.455       43.560        0.099      345.005       22.225      864.688
08/11/2014  08:58:00       50.032       74.020       83.016       58.080       50.733       41.959     3373.322     2573.793     1760.526        1.129        0.385       89.342       35.618        0.159      344.831       21.930      864.699
08/11/2014  08:59:00      122.118       86.834       79.232       74.557       64.868       47.761     5558.683     4207.875     2281.155        2.039        0.602      149.843       47.039        0.099      344.662       21.639      864.695
08/11/2014  09:00:00      138.433       63.197       36.134       55.438       51.221       45.456     3073.368     2623.620     2066.221        1.611        0.388      152.176       36.150        0.056      344.517       21.392      864.683
08/11/2014  09:01:00      135.589       86.454       25.828       39.172       40.476       39.239     1534.478     1638.269     1539.693        1.562        0.236      160.806       16.929        0.011      344.730       21.756      864.666
08/11/2014  09:02:00        2.550        8.134       34.699       44.818       39.244       30.058     2008.636     1540.131      903.466        0.286        0.223        8.524       19.861        5.429      345.334       22.791      864.646
08/11/2014  09:03:00      -12.467       23.104       71.109       28.630       45.950       26.332      819.661     2111.390      693.366        0.468        0.181       26.253       19.053        0.527      345.339       22.799      864.649
08/11/2014  09:04:00       40.268       33.040       56.110       45.214       34.866       32.301     2044.303     1215.641     1043.342        0.508        0.215       52.088       31.487        0.365      344.981       22.187      864.660
08/11/2014  09:05:00       37.481       70.361       65.849       44.940       33.455       33.466     2019.622     1119.248     1119.974        0.747        0.213       79.721       30.261        0.144      344.912       22.067      864.661
08/11/2014  09:06:00       39.053       60.074       52.632       27.157       38.876       24.733      737.522     1511.324      611.720        0.538        0.143       71.652       20.337        0.081      344.908       22.060      864.683
08/11/2014  09:07:00       86.036       67.652       40.779       59.571       40.374       48.844     3548.712     1630.090     2385.726        1.060        0.378      109.449       43.936        0.161      344.918       22.079      864.703
08/11/2014  09:08:00       95.038       66.477       14.113       63.248       51.333       33.783     4000.355     2635.121     1141.258        1.071        0.389      115.981       26.269        0.051      344.885       22.022      864.716
08/11/2014  09:09:00      159.275       98.579       13.237       51.203       48.121       28.626     2621.740     2315.586      819.424        2.051        0.288      187.313       20.655        0.012      344.795       21.866      864.730
08/11/2014  09:10:00      118.839       80.996       10.562       39.118       25.235       42.590     1530.243      636.805     1813.932        1.239        0.199      143.816       24.923        0.030      344.864       21.984      864.736
08/11/2014  09:11:00       33.240      -18.424       12.842       47.976       72.322       31.761     2301.672     5230.436     1008.792        0.507        0.427       38.005       31.557        0.689      345.236       22.623      864.746
08/11/2014  09:12:00       10.112        6.267       23.761       34.610       29.260       33.329     1197.867      856.132     1110.834        0.193        0.158       11.896       31.600        7.056      345.825       23.633      864.740
08/11/2014  09:13:00      -14.754      -49.885       18.385       45.553       51.372       29.120     2075.061     2639.097      847.951        0.430        0.278       52.021       28.314        0.296      345.357       22.831      864.749
08/11/2014  09:14:00       22.114       39.224       70.800       37.044       39.510       25.996     1372.253     1561.043      675.781        0.532        0.180       45.028       16.378        0.132      345.783       23.562      864.758
08/11/2014  09:15:00       71.361       51.003       34.825       42.546       31.980       51.161     1810.160     1022.751     2617.451        0.718        0.273       87.713       25.419        0.084      345.039       22.286      864.770
08/11/2014  09:16:00       56.908       72.569        9.435       50.881       39.003       33.211     2588.884     1521.252     1102.937        0.690        0.261       92.222       24.139        0.069      345.159       22.490      864.778
08/11/2014  09:17:00       91.655       73.965       52.702       55.386       43.411       37.890     3067.593     1884.532     1435.667        1.152        0.319      117.777       31.898        0.073      345.254       22.653      864.771
08/11/2014  09:18:00      132.126       78.816       35.892       54.104       34.713       30.244     2927.251     1204.984      914.695        1.500        0.252      153.848       24.255        0.025      344.832       21.931      864.773
08/11/2014  09:19:00       88.575       44.739       15.100       44.332       38.598       34.817     1965.297     1489.783     1212.204        0.737        0.233       99.233       25.140        0.064      345.091       22.374      864.760
08/11/2014  09:20:00       31.506       39.637       54.913       31.457       29.769       21.411      989.543      886.174      458.436        0.396        0.117       50.633       13.954        0.076      345.656       23.342      864.758
08/11/2014  09:21:00       46.950       13.591        4.768       45.736       34.918       23.204     2091.764     1219.301      538.409        0.313        0.192       48.878       18.743        0.147      345.699       23.416      864.752
08/11/2014  09:22:00       58.361       35.111       18.010       49.470       32.243       32.065     2447.253     1039.602     1028.174        0.474        0.226       68.109       21.718        0.102      345.710       23.437      864.760
08/11/2014  09:23:00      132.379       41.690        7.373       51.031       28.116       30.310     2604.154      790.534      918.677        1.181        0.216      138.789       21.793        0.025      345.164       22.500      864.754
08/11/2014  09:24:00       27.153      111.847       -9.255       47.435       55.385       30.604     2250.071     3067.547      936.631        0.979        0.313      115.096       32.267        0.079      345.149       22.473      864.763
08/11/2014  09:25:00       34.093      100.253        4.658       45.429       57.891       37.832     2063.838     3351.385     1431.267        0.904        0.342      105.892       32.800        0.096      345.574       23.202      864.760
08/11/2014  09:26:00       90.339       71.916       18.041       53.198       54.116       42.440     2829.994     2928.536     1801.196        1.061        0.378      115.469        9.584        0.007      345.693       23.405      864.762
08/11/2014  09:27:00        5.048       50.940       73.753       46.968       55.871       46.334     2206.028     3121.521     2146.824        0.777        0.374       51.190       27.402        0.287      345.983       23.905      864.764
08/11/2014  09:28:00       45.925       66.679       88.504       73.261       55.494       44.947     5367.205     3079.631     2020.272        1.243        0.523       80.964       49.451        0.373      345.589       23.228      864.782
08/11/2014  09:29:00       38.994      -23.487       26.323       49.806       58.800       40.233     2480.602     3457.430     1618.698        0.516        0.378       45.521       40.454        0.790      345.648       23.328      864.787
08/11/2014  09:30:00       25.484       50.465       85.246       48.017       46.306       24.962     2305.593     2144.204      623.093        0.777        0.254       56.534       10.849        0.037      346.029       23.984      864.788
08/11/2014  09:31:00        6.309       16.209       14.536       39.752       60.304       31.731     1580.185     3636.529     1006.880        0.337        0.311       17.394        9.642        0.307      345.576       23.206      864.798
08/11/2014  09:32:00        9.592       45.404       91.674       43.727       50.045       29.551     1912.011     2504.477      873.263        0.792        0.264       46.407       23.889        0.265      346.032       23.987      864.816
08/11/2014  09:33:00       51.874      -15.934       36.143       49.530       44.053       36.252     2453.241     1940.696     1314.192        0.498        0.285       54.266       27.207        0.251      345.620       23.281      864.838
08/11/2014  09:34:00       90.695       54.237       37.387       62.158       69.542       45.247     3863.626     4836.131     2047.307        1.165        0.537      105.675       43.389        0.169      345.289       22.712      864.841
08/11/2014  09:35:00       88.006      105.863       66.098       63.663       49.357       45.391     4053.033     2436.076     2060.321        1.593        0.427      137.667       36.943        0.072      345.262       22.667      864.853
08/11/2014  09:36:00       67.871       52.964       43.161       53.202       45.966       42.120     2830.447     2112.876     1774.060        0.799        0.336       86.091       34.376        0.159      345.630       23.297      864.857
08/11/2014  09:37:00       69.742       62.946       36.078       39.078       34.690       38.752     1527.124     1203.430     1501.714        0.718        0.212       93.947       13.538        0.021      345.649       23.329      864.857
08/11/2014  09:38:00      102.247       69.980       17.199       34.531       37.278       32.361     1192.403     1389.617     1047.231        0.964        0.181      123.901       17.078        0.019      345.110       22.408      864.869
08/11/2014  09:39:00       87.857       75.411       50.292       40.196       34.951       47.450     1615.688     1221.561     2251.502        1.051        0.254      115.783       30.018        0.067      345.227       22.605      864.885
08/11/2014  09:40:00       89.012      111.164       97.615       98.375       55.162       58.823     9677.671     3042.795     3460.130        2.299        0.809      142.410       66.408        0.217      345.238       22.624      864.886
08/11/2014  09:41:00      111.986       53.264       79.232       70.306       64.632       55.940     4942.877     4177.359     3129.340        1.695        0.612      124.008       50.092        0.163      345.330       22.783      864.895
08/11/2014  09:42:00      105.305       75.954       52.123       55.181       50.388       50.816     3044.982     2538.914     2582.226        1.387        0.408      129.839       37.201        0.082      345.248       22.642      864.894
08/11/2014  09:43:00       88.011       34.908       34.160       40.952       35.087       28.349     1677.032     1231.123      803.683        0.692        0.186       94.681       20.257        0.046      345.299       22.729      864.889
08/11/2014  09:44:00        7.502        4.582       12.261       31.321       44.422       30.358      981.027     1973.322      921.595        0.205        0.194        8.791       27.699        9.928      345.539       23.142      864.882
08/11/2014  09:45:00       22.171       31.078       13.143       33.385       26.116       20.132     1114.546      682.040      405.291        0.192        0.110       38.175       19.305        0.256      345.885       23.736      864.876
08/11/2014  09:46:00       -4.590       45.472        9.831       20.387       38.372       22.101      415.615     1472.447      488.464        0.228        0.119       45.703       19.872        0.189      345.838       23.656      864.879
08/11/2014  09:47:00       23.422       26.551        6.910       25.990       35.969       27.750      675.488     1293.764      770.052        0.202        0.137       35.406       23.867        0.454      345.836       23.651      864.888
08/11/2014  09:48:00       56.472       60.331       45.703       57.080       44.627       42.250     3258.080     1991.607     1785.052        0.797        0.352       82.638       28.683        0.120      345.723       23.458      864.886
08/11/2014  09:49:00      110.509       82.749       37.912       29.414       22.415       32.986      865.161      502.426     1088.080        1.148        0.123      138.057       17.950        0.017      345.354       22.825      864.896
08/11/2014  09:50:00      106.126       79.390       10.769       36.846       33.702       29.893     1357.617     1135.834      893.590        1.053        0.169      132.535        7.558        0.003      345.398       22.899      864.895
08/11/2014  09:51:00       71.067       60.321        6.290       53.477       55.978       34.559     2859.745     3133.534     1194.301        0.796        0.359       93.216       26.335        0.080      345.637       23.311      864.889
08/11/2014  09:52:00       41.046      102.061       -2.184       30.761       62.119       43.557      946.247     3858.801     1897.195        0.940        0.335      110.005       43.744        0.158      345.553       23.165      864.875
08/11/2014  09:53:00       43.876       60.369        9.395       39.919       45.067       35.221     1593.502     2031.011     1240.527        0.526        0.243       74.629       30.454        0.167      345.725       23.463      864.855
08/11/2014  09:54:00      109.647       65.648        2.832       48.816       42.642       32.846     2383.019     1818.320     1078.850        1.081        0.264      127.797       23.669        0.034      345.730       23.469      864.835
08/11/2014  09:55:00       97.725       55.821        8.896       52.690       40.930       38.378     2776.218     1675.274     1472.861        0.933        0.296      112.544       30.150        0.072      345.440       22.972      864.827
08/11/2014  09:56:00       84.240       66.906       38.392       26.683       23.861       33.769      711.969      569.348     1140.374        0.773        0.121      107.577       16.404        0.023      345.511       23.093      864.829
08/11/2014  09:57:00       32.566       15.250       16.166       34.971       20.577       21.611     1222.942      423.401      467.055        0.183        0.106       35.959       17.329        0.232      345.894       23.751      864.827
08/11/2014  09:58:00       41.775       56.645        3.195       26.015       27.772       20.850      676.770      771.269      434.722        0.342        0.094       70.383        8.117        0.013      345.648       23.327      864.817
08/11/2014  09:59:00       14.446       28.512       14.845       24.611       28.120       23.968      605.704      790.721      574.467        0.161        0.099       31.963       12.826        0.161      346.207       24.289      864.825
08/11/2014  10:00:00       46.174       65.240       58.242       46.438       40.841       45.987     2156.520     1668.012     2114.776        0.786        0.297       79.927       34.390        0.185      346.001       23.933      864.840
08/11/2014  10:01:00       21.851      -14.227       33.386       39.470       56.963       29.008     1557.905     3244.749      841.462        0.372        0.282       26.075       33.972        1.697      346.040       24.000      864.865
08/11/2014  10:02:00       66.111       71.452       49.829       57.087       49.456       46.705     3258.981     2445.883     2181.386        0.992        0.394       97.345       38.328        0.155      345.789       23.570      864.884
08/11/2014  10:03:00        5.345       16.303       18.361       32.192       22.580       20.625     1036.334      509.853      425.386        0.130        0.099       17.157       13.995        0.665      346.004       23.939      864.919
08/11/2014  10:04:00       38.006       63.008       81.785       54.149       48.069       26.993     2932.109     2310.582      728.622        0.904        0.299       73.583       26.642        0.131      346.093       24.093      864.949
08/11/2014  10:05:00      109.416       58.306       32.670       51.177       46.774       41.178     2619.134     2187.794     1695.641        1.147        0.325      123.981       29.789        0.058      345.696       23.411      864.963
08/11/2014  10:06:00      109.165       79.743       18.638       41.842       32.011       34.875     1750.761     1024.720     1216.288        1.131        0.200      135.188       20.011        0.022      345.843       23.664      864.979
08/11/2014  10:07:00       54.002       68.562       47.231       51.682       39.351       25.842     2671.030     1548.484      667.816        0.737        0.244       87.276       31.831        0.133      345.787       23.566      864.995
08/11/2014  10:08:00       22.619       12.102       31.282       41.869       36.188       25.124     1753.017     1309.541      631.232        0.266        0.185       25.653       16.595        0.419      346.159       24.207      864.990
08/11/2014  10:09:00      118.172       75.241       27.114       53.820       29.782       30.245     2896.551      886.990      914.775        1.253        0.235      140.093       16.809        0.014      345.908       23.775      864.976
08/11/2014  10:10:00       58.330       42.213       49.249       55.758       36.473       35.186     3108.967     1330.292     1238.054        0.664        0.284       72.002       29.168        0.164      346.330       24.500      864.965
08/11/2014  10:11:00       78.566       55.605       32.010       58.990       45.688       53.166     3479.790     2087.421     2826.628        0.934        0.420       96.252       28.595        0.088      346.160       24.207      864.945
08/11/2014  10:12:00       92.517       66.893       22.667       58.709       42.540       40.264     3446.744     1809.663     1621.200        1.021        0.344      114.167       39.525        0.120      346.156       24.201      864.922
08/11/2014  10:13:00       37.524       42.199      -10.874       49.932       27.050       25.151     2493.250      731.698      632.560        0.358        0.193       56.469       12.815        0.052      345.871       23.711      864.901
08/11/2014  10:14:00       19.998       26.575       44.029       39.667       26.118       26.576     1573.481      682.175      706.269        0.300        0.148       33.259       26.213        0.621      346.449       24.705      864.878
08/11/2014  10:15:00        2.861       36.949       19.096       32.380       35.692       32.416     1048.486     1273.931     1050.794        0.255        0.169       37.059       19.507        0.277      346.562       24.899      864.852
08/11/2014  10:16:00       43.193       52.093       14.067       44.720       25.217       26.853     1999.913      635.876      721.103        0.407        0.168       67.671        9.395        0.019      346.700       25.137      864.836
08/11/2014  10:17:00       66.680       63.941        5.334       31.138       36.287       41.457      969.601     1316.730     1718.686        0.628        0.200       92.383       27.337        0.088      346.099       24.103      864.812
08/11/2014  10:18:00       57.456       39.663       21.397       29.596       28.073       24.134      875.929      788.115      582.427        0.379        0.112       69.817       19.190        0.076      346.376       24.579      864.780
08/11/2014  10:19:00       77.743       90.715      -13.465       33.487       41.888       37.539     1121.347     1754.604     1409.179        0.937        0.214      119.471       28.476        0.057      346.394       24.611      864.774
08/11/2014  10:20:00       45.076       46.283        4.548       35.373       33.037       23.607     1251.253     1091.437      557.286        0.355        0.145       64.606       11.342        0.031      346.895       25.472      864.757
08/11/2014  10:21:00       13.412       20.068       23.575       36.762       43.109       26.074     1351.476     1858.426      679.837        0.251        0.194       24.137       24.957        1.069      347.166       25.938      864.768
08/11/2014  10:22:00       16.491       64.881        8.550       39.888       61.032       35.557     1591.092     3724.877     1264.284        0.557        0.329       66.944       33.394        0.249      346.767       25.251      864.774
08/11/2014  10:23:00      -42.778       89.013      -33.070       23.234       39.830       19.613      539.816     1586.454      384.663        0.668        0.126       98.759        8.885        0.008      345.947       23.842      864.793
08/11/2014  10:24:00       -5.837       54.135        2.548       27.804       46.371       30.877      773.051     2150.227      953.370        0.342        0.194       54.449       27.341        0.252      346.630       25.015      864.803
08/11/2014  10:25:00       24.605       61.394       -5.601       36.415       59.982       32.417     1326.080     3597.847     1050.838        0.519        0.299       66.141       26.111        0.156      346.575       24.921      864.806
08/11/2014  10:26:00      -11.272       59.087       11.705       24.238       42.202       26.650      587.470     1781.027      710.215        0.342        0.154       60.153       25.577        0.181      346.879       25.445      864.797
08/11/2014  10:27:00      -24.941      103.087      -15.734       48.563       53.354       35.076     2358.361     2846.604     1230.348        0.896        0.322      106.061       22.735        0.046      346.556       24.889      864.796
08/11/2014  10:28:00      -57.528       41.034       -5.974       28.771       37.175       26.841      827.744     1381.976      720.416        0.398        0.147       70.663       18.580        0.069      346.610       24.983      864.773
08/11/2014  10:29:00      -25.020       34.334       12.778       26.012       33.703       33.423      676.639     1135.918     1117.073        0.245        0.146       42.483       16.476        0.150      347.088       25.804      864.756
08/11/2014  10:30:00      -71.264       53.913       -3.947       41.247       48.123       30.397     1701.348     2315.851      923.974        0.647        0.247       89.360       24.481        0.075      346.673       25.089      864.742
08/11/2014  10:31:00      -36.534       78.462       13.642       39.536       49.205       32.616     1563.109     2421.180     1063.826        0.636        0.252       86.551       25.952        0.090      347.094       25.815      864.722
08/11/2014  10:32:00       23.973       60.351        6.580       35.874       38.345       32.602     1286.946     1470.309     1062.872        0.404        0.191       64.938       13.547        0.044      347.123       25.865      864.708
08/11/2014  10:33:00       50.037       41.185       20.609       25.375       20.867       30.515      643.895      435.431      931.157        0.332        0.101       64.806        9.660        0.022      346.754       25.230      864.691
08/11/2014  10:34:00       13.299       36.884       26.124       36.069       38.392       27.578     1300.973     1473.944      760.522        0.288        0.177       39.209       24.674        0.396      347.195       25.988      864.682
08/11/2014  10:35:00     -121.043      -10.645      -10.414       53.476       49.595       23.423     2859.679     2459.647      548.635        1.037        0.293      121.510       23.201        0.036      346.513       24.815      864.687
08/11/2014  10:36:00     -120.884       26.645       -6.408       36.392       30.474       18.820     1324.403      928.669      354.200        0.899        0.130      123.785       13.808        0.012      346.583       24.935      864.685
08/11/2014  10:37:00      -54.496      -28.937       -4.931       35.314       19.117       12.946     1247.059      365.475      167.590        0.281        0.089       61.703       12.849        0.043      346.577       24.926      864.689
08/11/2014  10:38:00      -35.827      -28.395       -3.204       30.299       24.428       14.427      918.058      596.705      208.138        0.191        0.086       45.715       12.499        0.075      346.851       25.395      864.682
08/11/2014  10:39:00      -11.451       16.309       20.373       19.863       30.599       18.845      394.525      936.270      355.134        0.125        0.084       19.928       11.500        0.333      347.880       27.170      864.688
08/11/2014  10:40:00       -4.886       22.831       25.697       28.564       35.740       27.384      815.903     1277.353      749.875        0.202        0.142       23.348       22.055        0.892      347.898       27.203      864.693
08/11/2014  10:41:00        2.984       32.484       20.172       30.888       21.994       31.739      954.081      483.730     1007.365        0.196        0.122       32.621       27.028        0.686      347.653       26.778      864.688
08/11/2014  10:42:00        1.877       23.218       -2.632       16.480       23.192       27.153      271.587      537.888      737.277        0.105        0.077       23.294       14.264        0.375      347.645       26.766      864.680
08/11/2014  10:43:00       -0.031       10.765        9.923       37.431       14.261       25.306     1401.107      203.377      640.390        0.123        0.112       10.765       24.520        5.188      347.616       26.715      864.669
08/11/2014  10:44:00       -8.622       29.701       25.271       24.391       22.473       19.280      594.912      505.053      371.703        0.153        0.074       30.928       11.419        0.136      348.184       27.696      864.665
08/11/2014  10:45:00      -19.399       89.023        5.065       24.546       58.877       28.592      602.507     3466.454      817.490        0.661        0.244       91.113       25.730        0.080      347.705       26.869      864.658
08/11/2014  10:46:00       15.386       73.334        9.126       36.806       52.269       33.045     1354.681     2732.004     1091.992        0.544        0.259       74.931       33.078        0.195      347.835       27.092      864.657
08/11/2014  10:47:00       52.798       48.610       11.471       35.801       31.854       38.929     1281.700     1014.676     1515.464        0.455        0.191       71.767       21.253        0.088      347.578       26.649      864.647
08/11/2014  10:48:00       19.150       65.172        9.523       32.539       49.993       31.506     1058.797     2499.283      992.642        0.463        0.228       67.928       26.368        0.151      347.799       27.031      864.657
08/11/2014  10:49:00       29.328       56.034       14.623       38.550       47.688       33.123     1486.113     2274.109     1097.152        0.453        0.243       63.245       29.420        0.216      348.151       27.639      864.671
08/11/2014  10:50:00      -22.001       24.570       17.045       27.882       29.652       27.900      777.410      879.223      778.415        0.191        0.122       32.981       18.769        0.324      348.228       27.772      864.679
08/11/2014  10:51:00        1.506       49.236        3.448       46.933       41.263       30.974     2202.677     1702.630      959.405        0.365        0.243       49.259       29.085        0.349      347.791       27.017      864.687
08/11/2014  10:52:00        8.569       41.602       13.574       29.369       42.431       31.643      862.520     1800.414     1001.275        0.283        0.183       42.476       21.827        0.264      348.056       27.475      864.689
08/11/2014  10:53:00       19.566       17.812       37.215       24.854       19.852       19.996      617.714      394.098      399.840        0.175        0.071       26.460        6.729        0.065      348.401       28.070      864.686
08/11/2014  10:54:00       94.028       75.822       10.403       63.703       33.881       37.286     4058.076     1147.914     1390.261        1.065        0.330      120.790       29.082        0.058      347.791       27.016      864.686
08/11/2014  10:55:00       89.493       77.303       -7.367       66.866       41.746       36.431     4470.996     1742.751     1327.186        1.079        0.377      118.258       19.137        0.026      347.228       26.046      864.682
08/11/2014  10:56:00      105.621       71.138       21.285       52.138       58.688       42.583     2718.325     3444.315     1813.344        1.232        0.399      127.344       33.510        0.069      347.649       26.772      864.683
08/11/2014  10:57:00       90.192       75.330       18.371       37.184       36.565       35.314     1382.614     1336.975     1247.106        0.906        0.198      117.512       21.525        0.034      347.370       26.290      864.673
08/11/2014  10:58:00       48.763       45.805       40.757       68.724       51.533       31.353     4723.027     2655.614      982.984        0.725        0.418       66.902       26.704        0.159      348.078       27.511      864.653
08/11/2014  10:59:00       66.537       58.885       12.887       45.855       33.765       39.740     2102.673     1140.094     1579.262        0.644        0.241       88.851       24.519        0.076      347.601       26.688      864.639
08/11/2014  11:00:00      166.846       89.746       31.270       87.285       57.914       43.321     7618.586     3353.993     1876.740        2.486        0.642      189.451       30.562        0.026      347.614       26.708      864.618
08/11/2014  11:01:00      191.205       81.809       10.098       71.765       45.784       44.429     5150.223     2096.154     1973.903        2.629        0.461      207.971       28.203        0.018      347.441       26.410      864.615
08/11/2014  11:02:00       81.748       75.624       17.310       51.684       44.938       36.668     2671.209     2019.437     1344.571        0.937        0.302      111.362        9.971        0.008      347.612       26.707      864.607
08/11/2014  11:03:00      106.385      108.365        3.347       81.408       57.248       42.870     6627.339     3277.371     1837.835        1.740        0.587      151.858       35.187        0.054      347.558       26.612      864.593
08/11/2014  11:04:00      140.385      109.166       21.395      103.503       59.645       49.738    10712.872     3557.580     2473.866        2.441        0.837      177.835       41.225        0.054      347.639       26.753      864.599
08/11/2014  11:05:00      111.702       79.767        8.999       35.299       33.451       31.931     1245.994     1118.982     1019.608        1.115        0.169      137.259       16.460        0.014      347.241       26.068      864.599
08/11/2014  11:06:00       59.616       70.138        1.862       36.260       29.394       25.731     1314.766      864.019      662.108        0.566        0.142       92.052       11.406        0.015      347.718       26.890      864.587
08/11/2014  11:07:00      151.403       71.856       20.414       80.249       63.173       47.811     6439.861     3990.785     2285.912        2.061        0.636      167.589       42.820        0.065      348.142       27.620      864.574
08/11/2014  11:08:00      140.795       92.295       24.975       59.572       52.579       46.122     3548.848     2764.499     2127.242        1.870        0.422      168.350       26.790        0.025      347.753       26.948      864.571
08/11/2014  11:09:00      120.063       68.753       33.423      107.428       74.709       54.412    11540.741     5581.475     2960.636        2.017        1.004      138.355       21.993        0.025      348.001       27.377      864.563
08/11/2014  11:10:00       93.139       67.295       22.687       71.121       48.951       41.201     5058.170     2396.238     1697.550        1.143        0.458      114.907       30.849        0.072      347.790       27.015      864.562
08/11/2014  11:11:00       39.750       26.815       22.529       53.251       48.291       36.409     2835.631     2332.059     1325.583        0.465        0.325       47.949       29.476        0.378      347.918       27.235      864.553
08/11/2014  11:12:00      108.147       97.574        6.369       59.043       45.321       45.014     3486.045     2053.965     2026.288        1.441        0.378      145.658       35.102        0.058      347.567       26.629      864.543
08/11/2014  11:13:00      105.437       93.504       31.140       57.670       53.541       49.489     3325.842     2866.655     2449.144        1.473        0.432      140.926       33.103        0.055      347.625       26.729      864.531
08/11/2014  11:14:00      218.446      143.060       60.955       79.589       65.521       68.420     6334.400     4292.945     4681.232        4.360        0.765      261.122       37.200        0.020      347.717       26.885      864.514
08/11/2014  11:15:00      151.008       69.914       36.734       90.544       74.800       64.422     8198.250     5595.042     4150.150        2.349        0.897      166.407       40.822        0.060      348.057       27.474      864.507
08/11/2014  11:16:00       86.139       84.600       41.949       60.940       65.129       56.874     3713.723     4241.835     3234.646        1.376        0.560      120.735       43.237        0.128      348.426       28.113      864.495
08/11/2014  11:17:00       66.827      119.717      128.122       92.637       84.300       72.901     8581.676     7106.500     5314.623        2.810        1.050      137.106       65.403        0.228      348.037       27.440      864.486
08/11/2014  11:18:00       49.155       81.639      117.660       88.353       90.786       65.603     7806.315     8242.150     4303.721        2.163        1.018       95.295       71.855        0.569      348.183       27.692      864.473
08/11/2014  11:19:00       65.532       25.352       56.958       73.843       65.014       39.367     5452.753     4226.852     1549.736        0.970        0.561       70.265       36.351        0.268      348.024       27.420      864.475
08/11/2014  11:20:00       14.550      -10.092       34.688       31.656       68.901       32.521     1002.123     4747.307     1057.618        0.416        0.340       17.708       31.175        3.099      348.136       27.613      864.465
08/11/2014  11:21:00      182.590      121.459       11.416      110.827       76.081       49.762    12282.678     5788.355     2476.290        3.438        1.027      219.298       41.850        0.036      347.574       26.640      864.455
08/11/2014  11:22:00      137.040       88.776       15.651      101.521       51.009       42.163    10306.430     2601.945     1777.729        2.079        0.734      163.282       35.085        0.046      347.547       26.594      864.452
08/11/2014  11:23:00       27.951       23.477        7.947       33.452       51.652       35.097     1119.055     2667.897     1231.777        0.321        0.251       36.502       26.625        0.532      347.837       27.096      864.443
08/11/2014  11:24:00       78.079       76.136       27.543       67.796       52.391       53.873     4596.354     2744.819     2902.301        1.145        0.512      109.055       34.182        0.098      347.899       27.204      864.426
08/11/2014  11:25:00      127.745       72.453       17.271       71.220       52.464       42.200     5072.344     2752.458     1780.803        1.573        0.480      146.861       26.760        0.033      347.774       26.986      864.420
08/11/2014  11:26:00      106.917       72.803        8.494       69.161       48.319       50.052     4783.198     2334.690     2505.233        1.321        0.481      129.350       27.463        0.045      347.700       26.859      864.396
08/11/2014  11:27:00       58.088       21.004       13.845       37.534       32.675       30.645     1408.786     1067.672      939.145        0.371        0.171       61.768        7.629        0.015      348.020       27.412      864.396
08/11/2014  11:28:00       58.510       82.914        4.232       69.368       81.374       36.223     4811.869     6621.749     1312.141        1.153        0.637      101.480       34.904        0.118      347.887       27.182      864.387
08/11/2014  11:29:00       22.250       51.340       42.088       48.113       48.608       32.456     2314.836     2362.786     1053.424        0.532        0.287       55.954       29.052        0.270      348.353       27.986      864.362
08/11/2014  11:30:00      130.415       82.675        8.809       62.110       63.859       47.587     3857.639     4078.002     2264.506        1.706        0.510      154.413       35.054        0.052      348.025       27.419      864.365
08/11/2014  11:31:00      146.138      100.903       -0.791       68.714       64.124       41.909     4721.573     4111.919     1756.361        2.106        0.529      177.588       29.742        0.028      347.549       26.598      864.370
08/11/2014  11:32:00       83.768       73.351       16.637       53.556       41.724       45.072     2868.197     1740.858     2031.461        0.966        0.332      111.344       28.985        0.068      347.736       26.920      864.371
08/11/2014  11:33:00       32.264       37.923       23.398       46.594       26.294       26.416     2171.023      691.360      697.781        0.329        0.178       49.791       14.568        0.086      348.010       27.394      864.354
08/11/2014  11:34:00      103.521      124.075       -9.316       71.231       63.525       64.601     5073.909     4035.443     4173.229        1.974        0.664      161.589       49.478        0.094      347.642       26.758      864.341
08/11/2014  11:35:00      136.081       86.301       11.885       71.375       46.196       42.969     5094.457     2134.084     1846.336        1.759        0.454      161.140       41.908        0.068      347.756       26.956      864.342
08/11/2014  11:36:00      138.534       81.394       16.890       65.532       50.475       44.847     4294.496     2547.688     2011.223        1.748        0.443      160.676       28.524        0.032      347.928       27.252      864.334
08/11/2014  11:37:00      134.758       62.382       28.839       73.074       45.962       37.966     5339.812     2112.505     1441.439        1.589        0.445      148.496       30.110        0.041      347.906       27.215      864.336
08/11/2014  11:38:00      185.734      105.188       55.368      100.942       72.649       68.640    10189.303     5277.902     4711.451        3.440        1.009      213.452       62.693        0.086      347.777       26.989      864.322
08/11/2014  11:39:00      242.936      164.932       39.282       85.315       65.362       63.527     7278.685     4272.147     4035.641        5.167        0.779      293.633       25.988        0.008      347.550       26.599      864.316
08/11/2014  11:40:00      249.185      163.099       45.246       72.699       65.266       64.355     5285.116     4259.606     4141.567        5.221        0.684      297.816       37.451        0.016      347.565       26.621      864.314
08/11/2014  11:41:00      103.205       30.189       35.769       79.574       67.418       47.277     6331.990     4545.162     2235.080        1.297        0.656      107.529       47.613        0.196      347.713       26.880      864.314
08/11/2014  11:42:00       46.144       62.375       99.448       55.054       69.980       45.920     3030.914     4897.268     2108.678        1.297        0.502       77.588       46.408        0.358      347.733       26.916      864.301
08/11/2014  11:43:00      137.477       80.917       54.673       83.327       53.855       47.228     6943.313     2900.371     2230.449        2.025        0.604      159.522       43.964        0.076      347.751       26.945      864.277
08/11/2014  11:44:00      139.754      113.549       93.317       75.261       56.303       59.974     5664.236     3169.975     3596.907        2.678        0.622      180.068       46.685        0.067      347.737       26.920      864.276
08/11/2014  11:45:00      137.807       95.804       59.978       80.969       56.635       59.715     6555.901     3207.494     3565.940        2.255        0.666      167.836       48.955        0.085      347.859       27.132      864.275
08/11/2014  11:46:00       99.189       60.033       27.360       56.245       43.785       44.953     3163.516     1917.118     2020.808        1.064        0.355      115.942       34.529        0.089      347.776       26.989      864.276
08/11/2014  11:47:00       64.181       62.694       61.160       60.200       52.306       43.880     3623.994     2735.895     1925.415        1.004        0.414       89.721       40.105        0.200      347.816       27.059      864.270
08/11/2014  11:48:00      100.745       27.579       32.045       75.066       43.256       39.815     5634.979     1871.094     1585.263        1.051        0.455      104.452       32.179        0.095      347.739       26.926      864.260
08/11/2014  11:49:00      121.040       72.934        8.573       48.222       40.952       33.747     2325.400     1677.094     1138.885        1.259        0.257      141.315       25.315        0.032      347.745       26.936      864.268
08/11/2014  11:50:00      103.744       54.782       26.940       72.471       43.182       44.956     5252.019     1864.662     2021.002        1.181        0.457      117.320       45.266        0.149      347.791       27.015      864.277
08/11/2014  11:51:00       17.447       44.295       59.357       37.806       47.827       36.621     1429.282     2287.402     1341.069        0.542        0.253       47.607       36.783        0.597      347.917       27.234      864.287
08/11/2014  11:52:00       -6.329        9.610       20.260       40.046       30.788       21.471     1603.681      947.926      461.002        0.178        0.151       11.507       12.455        1.171      348.006       27.388      864.285
08/11/2014  11:53:00       21.544       27.194       45.969       26.684       25.587       22.782      712.018      654.696      519.037        0.260        0.094       34.694       18.412        0.282      348.049       27.462      864.282
08/11/2014  11:54:00       73.982       50.525       22.891       42.349       35.319       32.034     1793.460     1247.398     1026.169        0.631        0.203       89.589       19.772        0.049      347.871       27.153      864.281
08/11/2014  11:55:00      108.082       48.651       -2.266       50.014       26.826       26.672     2501.377      719.659      711.389        0.899        0.197      118.527       14.676        0.015      347.724       26.901      864.274
08/11/2014  11:56:00       82.379       64.267        8.987       32.139       30.429       20.069     1032.928      925.911      402.756        0.668        0.118      104.482       12.483        0.014      347.812       27.050      864.255
08/11/2014  11:57:00       58.858       48.325       32.074       47.574       34.302       25.834     2263.297     1176.636      667.390        0.547        0.205       76.155       21.696        0.081      347.967       27.319      864.242
08/11/2014  11:58:00       38.760       19.621        7.743       46.127       28.140       22.916     2127.693      791.838      525.151        0.270        0.172       43.444       26.247        0.365      348.207       27.734      864.226
08/11/2014  11:59:00       46.031       45.886       32.141       66.622       42.353       38.570     4438.489     1793.805     1487.627        0.649        0.386       64.995       26.853        0.171      348.391       28.052      864.197
08/11/2014  12:00:00       95.946       74.486       33.094       63.096       46.511       27.987     3981.107     2163.283      783.264        1.139        0.346      121.465       32.711        0.073      348.015       27.403      864.177
08/11/2014  12:01:00       53.764       35.293       27.605       43.708       59.416       46.322     1910.407     3530.290     2145.715        0.624        0.379       64.313       38.352        0.356      348.153       27.641      864.167
08/11/2014  12:02:00       26.502       40.746       45.760       39.285       43.826       25.905     1543.310     1920.723      671.065        0.430        0.207       48.607       19.534        0.161      348.497       28.236      864.142
08/11/2014  12:03:00       63.475       12.116        7.078       39.867       30.543       22.667     1589.354      932.892      513.799        0.363        0.152       64.621       18.134        0.079      348.072       27.502      864.119
08/11/2014  12:04:00      -31.969       15.491        4.419       54.694       36.387       22.499     2991.417     1323.999      506.197        0.305        0.241       35.525       10.983        0.096      348.476       28.200      864.100
08/11/2014  12:05:00      -75.358       35.974       -4.353       46.701       51.524       49.093     2180.939     2654.699     2410.152        0.712        0.362       83.504       29.160        0.122      348.568       28.358      864.085
08/11/2014  12:06:00      -62.146       10.556       10.216       32.198       33.886       33.620     1036.726     1148.252     1130.308        0.370        0.166       63.036       25.067        0.158      348.329       27.945      864.082
08/11/2014  12:07:00      -27.724       48.555      -13.168       26.626       43.318       30.449      708.964     1876.429      927.151        0.341        0.176       55.913       20.638        0.136      348.424       28.110      864.064
08/11/2014  12:08:00       29.701       70.485       20.049       67.739       70.865       46.020     4588.562     5021.909     2117.805        0.899        0.586       76.488       44.229        0.334      348.776       28.719      864.045
08/11/2014  12:09:00      -44.081       -5.429       20.730       47.151       37.200       27.154     2223.192     1383.835      737.343        0.337        0.217       44.414       30.291        0.465      349.011       29.127      864.022
08/11/2014  12:10:00        6.525       -5.603       21.927       14.447       19.946       13.463      208.720      397.855      181.246        0.067        0.039        8.601        8.759        1.037      349.550       30.060      864.007
08/11/2014  12:11:00      -37.253       -5.913       -2.697       49.291       17.486       17.634     2429.560      305.769      310.945        0.224        0.152       37.720        9.978        0.070      348.692       28.573      863.995
08/11/2014  12:12:00      -23.746        2.566        7.350       31.824       17.390       16.436     1012.786      302.413      270.143        0.110        0.079       23.884       18.374        0.592      348.812       28.782      863.988
08/11/2014  12:13:00       21.508       21.031       28.203       67.121       39.641       33.908     4505.176     1571.371     1149.768        0.446        0.361       30.082       29.698        0.975      349.197       29.451      863.970
08/11/2014  12:14:00       46.375       30.421       36.069       72.258       56.393       46.669     5221.268     3180.210     2178.026        0.748        0.529       55.463       34.813        0.394      348.814       28.786      863.951
08/11/2014  12:15:00       81.927       28.443       34.908       73.925       49.138       48.632     5464.950     2414.511     2365.095        0.949        0.512       86.724       31.931        0.136      348.550       28.328      863.932
08/11/2014  12:16:00       83.549       84.282       47.556       55.404       34.417       45.634     3069.582     1184.526     2082.450        1.134        0.317      118.676       35.954        0.092      348.588       28.394      863.902
08/11/2014  12:17:00       62.950       70.837       60.442       91.619       76.787       57.968     8394.017     5896.182     3360.320        1.514        0.883       94.766       51.640        0.297      348.830       28.812      863.877
08/11/2014  12:18:00       93.205       39.043       32.184       70.601       79.418       46.101     4984.567     6307.230     2125.340        1.233        0.671      101.052       20.023        0.039      348.248       27.805      863.872
08/11/2014  12:19:00       94.479       50.802       18.967       76.324       66.372       46.514     5825.341     4405.290     2163.595        1.213        0.620      107.271       36.118        0.113      348.518       28.272      863.847
08/11/2014  12:20:00      151.196      110.707       37.324       53.360       54.100       59.096     2847.340     2926.817     3492.353        2.289        0.463      187.393       38.186        0.042      348.299       27.892      863.831
08/11/2014  12:21:00      109.832       60.815        5.762       67.072       43.338       38.116     4498.697     1878.162     1452.837        1.181        0.391      125.545       28.651        0.052      348.505       28.250      863.801
08/11/2014  12:22:00      171.930      122.877       34.406       95.840       58.012       50.390     9185.261     3365.417     2539.198        3.046        0.754      211.326       23.790        0.013      348.584       28.382      863.771
08/11/2014  12:23:00      144.734      108.421       14.413      106.526       72.797       57.214    11347.832     5299.438     3273.468        2.641        0.996      180.840       50.028        0.077      348.395       28.058      863.766
08/11/2014  12:24:00      113.850       97.149        9.062      103.894       79.748       63.798    10793.984     6359.744     4070.221        2.185        1.061      149.665       49.340        0.109      348.146       27.627      863.750
08/11/2014  12:25:00       70.063      129.226      -12.851       55.598       76.815       40.384     3091.180     5900.492     1630.870        1.620        0.531      146.997       35.755        0.059      348.423       28.107      863.725
08/11/2014  12:26:00      167.332       85.736       57.777      123.330       68.017       71.667    15210.293     4626.338     5136.166        3.183        1.249      188.018       50.869        0.073      348.542       28.311      863.707
08/11/2014  12:27:00       38.897      176.046       12.208       44.046      108.687       61.184     1940.019    11812.881     3743.486        2.507        0.875      180.292       68.195        0.143      348.367       28.008      863.693
08/11/2014  12:28:00       36.590      126.508       -4.592       45.136       75.723       41.479     2037.281     5734.001     1720.535        1.343        0.475      131.693       44.235        0.113      348.517       28.270      863.672
08/11/2014  12:29:00      189.133      104.939       24.338       58.504       48.578       52.216     3422.746     2359.788     2726.520        2.794        0.425      216.295       28.216        0.017      348.131       27.598      863.669
08/11/2014  12:30:00       78.148       16.246       44.878       57.341       43.643       50.115     3288.006     1904.749     2511.532        0.804        0.385       79.819       25.506        0.102      348.535       28.304      863.651
08/11/2014  12:31:00      150.258       92.128       11.857      151.616      113.958       62.147    22987.287    12986.409     3862.294        3.551        1.992      176.253       38.775        0.048      348.398       28.061      863.637
08/11/2014  12:32:00      265.359      163.832       25.791       81.597       70.231       56.033     6658.023     4932.439     3139.700        5.632        0.737      311.860       36.379        0.014      348.063       27.481      863.648
08/11/2014  12:33:00       70.483       -4.563        3.151       55.248       61.947       29.177     3052.334     3837.395      851.322        0.637        0.387       70.631       21.320        0.091      348.168       27.668      863.661
08/11/2014  12:34:00        8.463       31.758       11.383       28.236       30.543       24.590      797.274      932.870      604.663        0.177        0.117       32.866       18.829        0.328      348.877       28.894      863.640
08/11/2014  12:35:00       -6.507       47.928       13.400       30.425       47.076       24.106      925.684     2216.105      581.084        0.312        0.186       48.368       11.862        0.060      349.224       29.494      863.633
08/11/2014  12:36:00      -62.509      -10.011      -24.111       48.790       26.634       20.295     2380.428      709.345      411.882        0.404        0.175       63.306       25.790        0.166      348.331       27.948      863.609
08/11/2014  12:37:00        7.211     -101.150      -21.446       72.252       46.664       28.932     5220.369     2177.556      837.057        0.949        0.412      101.406       18.421        0.033      348.328       27.945      863.591
08/11/2014  12:38:00       20.023      -34.678       38.686       74.429       71.840       39.089     5539.731     5160.986     1527.947        0.766        0.611       40.044       14.484        0.131      349.239       29.523      863.572
08/11/2014  12:39:00       56.789       68.587       56.015       43.233       31.990       43.619     1869.084     1023.345     1902.581        0.793        0.240       89.046       29.360        0.109      348.449       28.154      863.578
08/11/2014  12:40:00       99.599       34.029       31.166       83.911       47.569       41.948     7041.009     2262.851     1759.613        1.155        0.553      105.251       28.826        0.075      348.652       28.502      863.559
08/11/2014  12:41:00      133.373       50.848       13.132       76.329       67.719       55.705     5826.042     4585.874     3103.062        1.703        0.676      142.737       39.963        0.078      348.671       28.537      863.548
08/11/2014  12:42:00       53.665       12.784       15.493       64.017       44.166       33.841     4098.184     1950.607     1145.212        0.524        0.360       55.167       20.089        0.133      349.157       29.379      863.549
08/11/2014  12:43:00      172.381      118.297       20.153      115.598       58.174       55.437    13362.986     3384.207     3073.273        3.196        0.991      209.068       23.907        0.013      348.780       28.724      863.526
08/11/2014  12:44:00       91.709       77.424       62.855       96.411       61.208       53.410     9295.141     3746.464     2852.614        1.712        0.795      120.021       28.515        0.056      348.947       29.014      863.514
08/11/2014  12:45:00      177.128      115.367       23.362       49.532       60.816       47.200     2453.404     3698.622     2227.859        2.680        0.419      211.385       30.528        0.021      348.512       28.259      863.516
08/11/2014  12:46:00       34.873       16.087       31.910       64.802       54.162       29.937     4199.267     2933.535      896.216        0.526        0.401       38.405       30.937        0.649      349.290       29.610      863.503
08/11/2014  12:47:00        2.277       12.582       23.596       49.327       24.543       24.846     2433.107      602.371      617.317        0.219        0.183       12.786       14.278        1.247      349.646       30.228      863.485
08/11/2014  12:48:00      -14.201       52.998       -2.244       40.488       71.581       29.213     1639.294     5123.822      853.404        0.531        0.381       54.867       38.862        0.502      349.035       29.169      863.468
08/11/2014  12:49:00       11.575       47.115       20.119       54.946       57.818       42.993     3019.017     3342.935     1848.403        0.548        0.411       48.516       43.213        0.793      349.266       29.570      863.428
08/11/2014  12:50:00      -46.504       26.334       -7.820       39.773       46.403       37.829     1581.863     2153.262     1431.007        0.404        0.258       53.442       32.252        0.364      349.146       29.360      863.409
08/11/2014  12:51:00       -8.117      110.039      -14.846       36.267       42.517       24.604     1315.309     1807.675      605.342        0.806        0.186      110.338       21.420        0.038      349.253       29.546      863.388
08/11/2014  12:52:00      -24.090      123.187        4.297       27.694       72.999       37.510      766.942     5328.920     1406.981        1.164        0.375      125.520       33.156        0.070      349.076       29.239      863.372
08/11/2014  12:53:00       56.059       51.990       22.342       50.104       50.620       34.511     2510.427     2562.375     1191.010        0.630        0.313       76.457       21.931        0.082      349.007       29.119      863.350
08/11/2014  12:54:00       80.372      -59.443       37.881      110.398      145.630       81.106    12187.778    21207.993     6578.112        2.569        1.999       99.965       99.616        0.993      348.899       28.931      863.318
08/11/2014  12:55:00       82.960     -125.486        9.253       55.219       71.729       38.344     3049.130     5145.060     1470.262        1.619        0.483      150.430       39.873        0.070      348.701       28.588      863.289
08/11/2014  12:56:00       -4.897      -40.729       16.975       58.205      107.022       41.167     3387.807    11453.732     1694.709        0.925        0.827       41.023       45.541        1.232      349.162       29.388      863.229
08/11/2014  12:57:00       34.585      -24.699       89.563       87.520       95.380       73.970     7659.767     9097.357     5471.496        1.602        1.111       42.499       52.081        1.502      349.604       30.152      863.185
08/11/2014  12:58:00       87.372      -44.291       17.003       89.023      150.135       52.169     7925.145    22540.368     2721.613        2.153        1.659       97.957       64.356        0.432      349.015       29.131      863.205
08/11/2014  12:59:00      158.525     -249.017      -42.771       91.535       84.723       60.776     8378.648     7178.039     3693.666        5.411        0.963      295.194       50.614        0.029      349.035       29.162      863.167
08/11/2014  13:00:00      130.241     -176.769      -13.573       97.159      168.270       61.676     9439.835    28314.915     3803.944        4.497        2.078      219.568       44.826        0.042      349.273       29.576      863.135
08/11/2014  13:01:00      140.790     -288.402      -33.949      111.651      127.781       59.433    12466.001    16327.995     3532.324        6.823        1.616      320.932       68.947        0.046      348.887       28.907      863.125
08/11/2014  13:02:00      186.326     -304.097      -27.045       81.389       67.294       47.976     6624.104     4528.502     2301.742        7.069        0.673      356.640       42.142        0.014      348.535       28.297      863.114
08/11/2014  13:03:00      105.075     -114.974       26.823       99.027      143.020       77.815     9806.439    20454.800     6055.163        3.064        1.816      155.756       94.131        0.365      349.076       29.237      863.083
08/11/2014  13:04:00        6.507       27.055       52.295       37.861       49.072       47.042     1433.427     2408.095     2212.980        0.478        0.303       27.826       39.989        2.065      349.450       29.886      863.052
08/11/2014  13:05:00      201.365     -297.229      -49.563       98.994       79.624       35.875     9799.862     6340.038     1286.993        7.438        0.871      359.017       35.561        0.010      348.623       28.451      863.012
08/11/2014  13:06:00       65.026     -125.635       10.733       64.737      108.208       61.367     4190.890    11708.992     3765.929        1.989        0.983      141.466       66.900        0.224      348.951       29.021      862.991
08/11/2014  13:07:00       82.693     -200.997        4.408       57.832      104.951       42.057     3344.514    11014.621     1768.767        3.169        0.806      217.343       44.062        0.041      348.807       28.771      862.967
08/11/2014  13:08:00       41.224      -61.223       26.324       66.470       74.873       48.810     4418.247     5605.900     2382.463        0.927        0.620       73.808       47.289        0.410      349.331       29.680      862.944
08/11/2014  13:09:00       43.669      -13.100       69.088       62.265       85.048       53.681     3876.931     7233.204     2881.606        1.042        0.700       45.591       41.909        0.845      349.424       29.842      862.917
08/11/2014  13:10:00        8.647        0.947       -5.674       50.584       35.071       30.357     2558.755     1229.973      921.558        0.241        0.236        8.698       20.370        5.484      349.362       29.733      862.899
08/11/2014  13:11:00      -23.472       56.313      -10.387       57.027       87.836       30.877     3252.077     7715.093      953.401        0.787        0.596       61.009       21.185        0.121      349.046       29.188      862.873
08/11/2014  13:12:00       39.228       34.596       12.921       37.584       35.685       29.727     1412.552     1273.452      883.710        0.324        0.178       52.304       20.208        0.149      349.066       29.222      862.878
08/11/2014  13:13:00      105.880       46.959        6.970       48.874       33.579       31.029     2388.641     1127.575      962.790        0.897        0.224      115.827       19.898        0.030      348.854       28.854      862.893
08/11/2014  13:14:00       43.684       56.820       57.665       59.300       76.387       52.343     3516.494     5834.985     2739.754        1.027        0.605       71.671       47.982        0.448      349.374       29.754      862.915
08/11/2014  13:15:00      100.779       59.014       87.435       76.681       83.764       53.630     5879.995     7016.481     2876.199        1.853        0.789      116.786       55.694        0.227      349.075       29.236      862.917
08/11/2014  13:16:00      212.880      105.954      140.052      155.688      118.379      111.346    24238.599    14013.495    12397.859        6.339        2.532      237.790      107.959        0.206      349.148       29.358      862.882
08/11/2014  13:17:00      155.536      189.270      172.816      149.248      118.657      110.170    22275.024    14079.461    12137.539        6.918        2.425      244.979      107.742        0.193      349.184       29.422      862.897
08/11/2014  13:18:00      159.060      193.276      163.976      102.144      116.635       99.328    10433.484    13603.687     9866.028        6.172        1.695      250.311       82.347        0.108      348.885       28.904      862.923
08/11/2014  13:19:00      164.418      145.037      152.113      131.002      123.466      101.127    17161.396    15243.749    10226.765        5.691        2.132      219.247       88.731        0.164      348.926       28.974      862.913
08/11/2014  13:20:00      196.244      126.879       94.968      124.554      106.058       78.245    15513.762    11248.208     6122.292        4.825        1.644      233.688       71.983        0.095      348.898       28.927      862.908
08/11/2014  13:21:00      120.810      143.312      126.653      147.448       63.504       83.384    21740.901     4032.747     6952.938        4.194        1.636      187.439       68.612        0.134      349.096       29.269      862.910
08/11/2014  13:22:00      284.579      136.043       57.275      112.092       90.365       67.026    12564.600     8165.874     4492.468        6.399        1.261      315.425       42.378        0.018      348.935       28.991      862.915
08/11/2014  13:23:00      190.546      101.729       27.486       92.149       83.455       72.338     8491.478     6964.656     5232.754        3.405        1.034      216.001       49.207        0.052      348.997       29.097      862.918
08/11/2014  13:24:00       81.293       40.752       13.740       66.488       45.914       44.707     4420.718     2108.087     1998.696        0.849        0.426       90.935       29.995        0.109      349.301       29.629      862.906
08/11/2014  13:25:00       17.279       -6.067       -2.170       67.098       56.814       39.865     4502.171     3227.826     1589.185        0.483        0.466       18.313       30.143        2.709      349.433       29.858      862.884
08/11/2014  13:26:00       85.584       43.068       32.227       76.580       64.202       40.008     5864.457     4121.906     1600.659        1.090        0.579       95.810       24.841        0.067      349.517       30.004      862.880
08/11/2014  13:27:00      186.173      129.379       99.979      133.749      109.012       93.048    17888.768    11883.528     8658.001        4.990        1.922      226.714       72.680        0.103      349.378       29.759      862.863
08/11/2014  13:28:00      110.516      104.472       55.577       92.653       74.970       61.325     8584.539     5620.435     3760.752        2.209        0.898      152.080       57.063        0.141      349.581       30.112      862.882
08/11/2014  13:29:00      108.436      122.869      124.072      110.158       95.344       82.360    12134.768     9090.480     6783.209        3.512        1.400      163.875       67.606        0.170      349.601       30.147      862.892
08/11/2014  13:30:00      147.825       28.338       58.674      145.701       85.778       64.975    21228.906     7357.842     4221.721        2.945        1.640      150.517       64.117        0.181      349.510       29.989      862.897
08/11/2014  13:31:00      279.625      197.925       50.314      141.868      108.250       90.691    20126.561    11718.099     8224.919        7.997        2.003      342.585       59.757        0.030      349.340       29.693      862.906
08/11/2014  13:32:00      405.318      249.728       38.490      198.922      143.319      117.507    39570.123    20540.441    13808.006       15.101        3.696      476.074       28.601        0.004      348.918       28.963      862.900
08/11/2014  13:33:00      319.046      178.522       30.340      116.183       95.029       67.176    13498.433     9030.589     4512.680        8.081        1.352      365.596       26.704        0.005      348.738       28.650      862.960
08/11/2014  13:34:00      106.254       77.481      -29.489       79.971       58.996       37.336     6395.338     3480.501     1393.978        1.471        0.563      131.504       28.275        0.046      348.771       28.709      862.962
08/11/2014  13:35:00      154.106      105.482       24.122      107.209       75.332       69.660    11493.772     5674.871     4852.530        2.873        1.101      186.748       42.630        0.052      348.888       28.911      862.954
08/11/2014  13:36:00       25.466       14.532       31.042       87.812       57.610       52.097     7710.972     3318.934     2714.143        0.778        0.687       29.321       12.191        0.173      349.579       30.110      862.959
08/11/2014  13:37:00        3.226      126.330       -2.449       41.195      121.627       35.110     1697.032    14793.180     1232.683        1.685        0.886      126.371       47.932        0.144      349.340       29.696      862.956
08/11/2014  13:38:00       72.374       83.957        7.979       72.676       81.148       55.721     5281.826     6585.016     3104.795        1.366        0.749      110.846       53.647        0.234      349.283       29.597      862.945
08/11/2014  13:39:00       72.063       83.155        9.754       55.260       62.681       37.136     3053.654     3928.935     1379.079        1.028        0.418      110.036       29.612        0.072      349.165       29.393      862.921
08/11/2014  13:40:00       86.837       67.523       32.269       43.361       40.774       38.186     1880.199     1662.497     1458.178        0.907        0.250      110.000       16.534        0.023      349.376       29.758      862.902
08/11/2014  13:41:00      112.433       82.730       61.746      100.977       65.859       59.149    10196.272     4337.411     3498.592        2.066        0.902      139.591       61.527        0.194      349.092       29.265      862.928
08/11/2014  13:42:00      180.620       84.790       76.133      112.786       97.986       70.795    12720.794     9601.197     5011.948        3.647        1.367      199.531       71.898        0.130      349.157       29.376      862.974
08/11/2014  13:43:00      165.547       36.331      126.320      137.901      173.272      103.519    19016.633    30023.186    10716.153        5.221        2.988      169.486       93.191        0.302      349.317       29.652      862.972
08/11/2014  13:44:00      170.698       78.366      128.632      137.689      121.335       88.719    18958.208    14722.212     7871.036        4.668        2.078      187.827       84.626        0.203      349.155       29.373      862.976
08/11/2014  13:45:00      165.181      115.765       67.059      128.399       96.474       72.414    16486.263     9307.267     5243.814        3.810        1.552      201.709       58.020        0.083      349.432       29.853      862.969
08/11/2014  13:46:00       11.549       50.041       93.245       52.647       59.824       53.240     2771.673     3578.865     2834.450        1.026        0.459       51.356       52.922        1.062      349.492       29.957      862.965
08/11/2014  13:47:00       70.809       83.934       70.031       74.059       64.852       53.088     5484.750     4205.815     2818.345        1.473        0.625      109.813       40.000        0.133      349.140       29.349      862.952
08/11/2014  13:48:00       76.280       92.880       73.778       90.482       67.542       51.227     8187.055     4561.886     2624.228        1.763        0.769      120.188       49.538        0.170      349.109       29.295      862.920
08/11/2014  13:49:00       32.046       47.610       67.901       53.994       66.789       42.288     2915.346     4460.819     1788.248        0.853        0.458       57.390       40.029        0.486      349.209       29.469      862.894
08/11/2014  13:50:00      188.810      152.578       90.975      112.012       54.721       49.718    12546.763     2994.339     2471.897        4.261        0.901      242.753       56.849        0.055      348.922       28.971      862.861
08/11/2014  13:51:00      208.246      114.073       80.031      109.642       77.648       76.070    12021.355     6029.149     5786.682        4.331        1.192      237.443       66.781        0.079      349.008       29.117      862.820
08/11/2014  13:52:00      216.250      153.107      109.846      125.711       94.497       77.805    15803.163     8929.608     6053.658        5.652        1.539      264.964       69.763        0.069      348.996       29.097      862.783
08/11/2014  13:53:00      189.706       46.580       71.373      109.780       90.897       75.868    12051.705     8262.312     5755.985        3.466        1.304      195.341       69.383        0.126      349.090       29.259      862.757
08/11/2014  13:54:00      221.523      124.763       62.931       98.426       71.862       79.664     9687.662     5164.170     6346.378        4.489        1.060      254.241       56.002        0.049      348.842       28.829      862.693
08/11/2014  13:55:00      140.433       83.555       30.575       35.903       31.259       32.913     1289.055      977.115     1083.283        1.549        0.167      163.410       12.661        0.006      348.788       28.739      862.622
08/11/2014  13:56:00       89.200       52.789       38.009       71.271       62.540       50.800     5079.619     3911.288     2580.623        1.188        0.579      103.650       34.822        0.113      348.941       29.004      862.581
08/11/2014  13:57:00       66.180      -15.800       57.806      123.264       82.559       69.982    15193.904     6815.918     4897.473        1.743        1.345       68.040       46.772        0.473      349.154       29.373      862.542
08/11/2014  13:58:00      111.551       16.542       86.582      116.817      105.496       90.637    13646.208    11129.475     8214.992        2.660        1.650      112.771       70.198        0.387      349.100       29.278      862.521
08/11/2014  13:59:00      104.685       23.978       84.107       92.630      107.884       59.045     8580.362    11638.990     3486.356        2.115        1.185      107.397       66.145        0.379      348.992       29.091      862.522
08/11/2014  14:00:00      153.784      115.547       72.407       95.069       66.620       55.257     9038.087     4438.262     3053.293        2.938        0.826      192.355       33.519        0.030      348.862       28.864      862.503
08/11/2014  14:01:00      117.887       66.325       48.048       64.997       50.913       40.100     4224.608     2592.179     1608.025        1.451        0.421      135.264       28.583        0.045      348.872       28.886      862.495
08/11/2014  14:02:00       90.249       -1.403       24.202       48.068       44.170       33.197     2310.499     1951.005     1102.050        0.705        0.268       90.260       29.443        0.106      349.029       29.156      862.492
08/11/2014  14:03:00      166.555       60.788       34.875       86.192       58.338       51.854     7429.145     3403.348     2688.860        2.308        0.676      177.301       29.396        0.027      348.932       28.987      862.506
08/11/2014  14:04:00       98.492       38.514       51.438       79.478       61.793       51.773     6316.674     3818.389     2680.459        1.332        0.641      105.754       40.837        0.149      348.961       29.040      862.509
08/11/2014  14:05:00       72.539       51.665       29.237       91.402       50.826       32.866     8354.274     2583.271     1080.174        1.040        0.601       89.057       34.917        0.154      349.006       29.118      862.538
08/11/2014  14:06:00      162.703       54.748       72.627      113.534      109.628       81.801    12889.868    12018.320     6691.482        3.317        1.580      171.667       76.741        0.200      348.982       29.072      862.562
08/11/2014  14:07:00      113.769       81.046       37.785       77.174       75.608       72.676     5955.856     5716.628     5281.830        1.894        0.848      139.685       27.269        0.038      349.008       29.119      862.571
08/11/2014  14:08:00      308.987      232.252       17.749      153.945      112.663       77.590    23698.996    12693.041     6020.158        9.606        2.121      386.541       43.725        0.013      348.915       28.957      862.617
08/11/2014  14:09:00      251.769      124.161       51.242       95.150       91.522       63.086     9053.596     8376.302     3979.889        5.142        1.070      280.720       39.477        0.020      348.867       28.872      862.644
08/11/2014  14:10:00      180.969      122.377       40.728       80.515       55.852       50.440     6482.719     3119.400     2544.232        3.076        0.607      218.463       22.194        0.010      348.916       28.956      862.677
08/11/2014  14:11:00       81.545       61.107       42.576       72.720       42.506       34.036     5288.126     1806.795     1158.438        1.022        0.413      101.900       31.654        0.096      349.052       29.197      862.704
08/11/2014  14:12:00       52.040       12.763        1.054       32.009       48.338       34.464     1024.571     2336.596     1187.766        0.371        0.227       53.583        5.574        0.011      348.993       29.095      862.714
08/11/2014  14:13:00      104.620       58.964       36.997       64.008       60.655       50.544     4097.061     3679.014     2554.741        1.306        0.517      120.092       39.308        0.107      349.040       29.175      862.732
08/11/2014  14:14:00       64.922       58.206       66.607       61.474       63.851       47.732     3779.018     4076.897     2278.385        1.108        0.507       87.194       38.661        0.197      348.949       29.018      862.731
08/11/2014  14:15:00       72.453       54.635       20.351       88.413       58.839       46.853     7816.832     3462.060     2195.249        1.106        0.674       90.744       21.493        0.056      348.970       29.054      862.739
08/11/2014  14:16:00      183.636      116.644       42.901       55.222       62.279       40.401     3049.475     3878.643     1632.252        2.886        0.428      217.550       30.612        0.020      348.953       29.022      862.739
08/11/2014  14:17:00      177.784      103.812       58.369       71.749       60.076       57.121     5147.884     3609.145     3262.790        2.890        0.601      205.874       44.581        0.047      348.913       28.953      862.738
08/11/2014  14:18:00      149.503       76.534       40.082       85.621       66.084       56.027     7330.996     4367.147     3138.989        2.232        0.742      167.954       46.109        0.075      348.948       29.015      862.723
08/11/2014  14:19:00      117.331       66.085       54.768       96.464       73.594       68.697     9305.236     5416.022     4719.334        2.028        0.972      134.662       42.758        0.101      348.916       28.960      862.684
08/11/2014  14:20:00      344.343      175.280       90.221      158.831      122.007      110.130    25227.161    14885.639    12128.544       10.483        2.612      386.388       62.825        0.026      348.874       28.885      862.658
08/11/2014  14:21:00      183.609      117.910      105.386      160.236      110.321      102.861    25675.609    12170.765    10580.407        5.356        2.421      218.209       90.474        0.172      348.893       28.918      862.593
08/11/2014  14:22:00      293.692      168.488       49.948       97.923       96.168       80.160     9588.864     9248.232     6425.653        7.120        1.263      338.591       41.123        0.015      348.931       28.985      862.608
08/11/2014  14:23:00      229.572      116.967       69.769      136.371      120.775       78.477    18596.923    14586.548     6158.631        5.529        1.967      257.652       44.242        0.029      348.878       28.892      862.610
08/11/2014  14:24:00      199.220       83.811       89.807      140.154      113.450       90.312    19643.023    12871.002     8156.228        4.772        2.034      216.132       78.195        0.131      348.897       28.925      862.611
08/11/2014  14:25:00      182.963       91.649       30.075      118.949       85.826       63.490    14148.843     7366.151     4030.999        3.416        1.277      204.634       64.411        0.099      348.845       28.836      862.624
08/11/2014  14:26:00      253.787      168.724       51.921      129.942       90.453       62.522    16884.994     8181.741     3909.032        6.227        1.449      304.755       47.023        0.024      348.831       28.810      862.664
08/11/2014  14:27:00      159.330       78.691       42.505      204.207      117.933      100.732    41700.345    13908.230    10146.926        4.956        3.288      177.703       42.230        0.056      348.827       28.807      862.689
08/11/2014  14:28:00      231.475      134.304       43.611      141.248      128.109       71.873    19951.090    16411.881     5165.784        5.752        2.076      267.616       39.547        0.022      348.806       28.768      862.717
08/11/2014  14:29:00      142.360      -65.144       49.463      143.112      135.355       89.872    20481.165    18321.022     8076.999        3.691        2.344      156.557       86.973        0.309      348.839       28.825      862.818
08/11/2014  14:30:00      114.496     -218.088        9.536       99.391      123.974       77.584     9878.559    15369.661     6019.352        4.601        1.563      246.317       71.886        0.085      348.881       28.895      862.927
08/11/2014  14:31:00      104.706     -193.081       -6.934       90.328      110.481       64.772     8159.139    12206.103     4195.372        3.642        1.228      219.644       52.647        0.057      348.901       28.932      863.046
08/11/2014  14:32:00       40.581     -196.828      -30.293       92.993      104.827       51.959     8647.726    10988.717     2699.775        3.182        1.117      200.967       26.236        0.017      348.816       28.786      863.149
08/11/2014  14:33:00      -13.387     -309.310       13.487      119.421      229.065       73.882    14261.260    52470.917     5458.554        8.410        3.610      309.599       47.209        0.023      348.700       28.584      863.308
08/11/2014  14:34:00     -161.338     -389.450       -7.742      198.962      157.628      100.966    39586.008    24846.618    10194.064       12.618        3.731      421.547      101.418        0.058      347.909       27.217      863.378
08/11/2014  14:35:00     -386.911     -307.447       -5.176      218.749      152.983       89.628    47851.020    23403.876     8033.126       16.175        3.964      494.190      100.833        0.042      347.613       26.704      863.388
08/11/2014  14:36:00     -251.665     -246.990       -8.865      140.401      147.869       83.579    19712.398    21865.331     6985.379        8.648        2.428      352.617       75.079        0.045      347.441       26.409      863.380
08/11/2014  14:37:00     -203.381     -152.272       -7.171      102.390      113.131       53.793    10483.698    12798.598     2893.699        4.538        1.309      254.068       57.314        0.051      347.409       26.353      863.386
08/11/2014  14:38:00     -315.888     -162.821      -12.457      204.632      144.108       69.737    41874.319    20767.163     4863.254        9.696        3.375      355.381       85.932        0.058      347.358       26.266      863.412
08/11/2014  14:39:00     -191.183      -64.915       19.854      169.140      123.722       87.651    28608.453    15307.181     7682.781        4.637        2.580      201.903       82.855        0.168      347.253       26.085      863.424
08/11/2014  14:40:00     -336.691     -198.416        9.275      200.360      125.288       81.597    40143.936    15697.012     6658.053       10.765        3.125      390.807       95.731        0.060      347.060       25.751      863.416
08/11/2014  14:41:00     -245.297     -167.389        6.739      201.803      154.154       89.897    40724.403    23763.532     8081.419        8.039        3.628      296.968      104.517        0.124      346.940       25.547      863.417
08/11/2014  14:42:00     -283.630      -95.175      -12.217      129.689      106.383       58.187    16819.180    11317.400     3385.772        6.058        1.576      299.173       64.104        0.046      346.935       25.536      863.383
08/11/2014  14:43:00     -141.696     -112.798       -1.384      104.941       74.659       56.200    11012.585     5573.892     3158.400        2.627        0.987      181.111       60.411        0.111      346.945       25.556      863.297
08/11/2014  14:44:00     -152.556      -16.431        1.980       92.010       64.549       41.636     8465.796     4166.594     1733.530        1.895        0.718      153.438       48.669        0.101      346.934       25.536      863.236
08/11/2014  14:45:00     -263.651      -26.235      -13.398      115.844       91.676       53.496    13419.879     8404.544     2861.874        4.753        1.234      264.953       53.593        0.041      346.753       25.225      863.210
08/11/2014  14:46:00      -96.165       48.027       -1.102       93.561       92.376       52.773     8753.586     8533.297     2784.983        1.581        1.004      107.491       48.032        0.200      346.742       25.208      863.114
08/11/2014  14:47:00       48.376      156.991       -2.038       97.927       62.793       48.620     9589.650     3943.001     2363.926        2.144        0.795      164.275       51.573        0.099      346.696       25.126      862.982
08/11/2014  14:48:00      -11.982        6.402        7.990       47.950      119.305       46.139     2299.213    14233.779     2128.847        0.945        0.933       13.585       31.474        5.368      346.697       25.130      862.998
08/11/2014  14:49:00     -251.159     -184.630       -9.983      211.805      147.695       72.404    44861.440    21813.770     5242.341        8.458        3.596      311.720       76.991        0.061      346.532       24.843      863.102
08/11/2014  14:50:00     -206.983     -285.995       11.012      251.576      219.611       95.134    63290.421    48228.908     9050.535       12.264        6.028      353.037       99.641        0.080      346.102       24.105      863.132
08/11/2014  14:51:00     -208.775     -274.133       -1.037      198.700      179.713       86.958    39481.610    32296.614     7561.714        9.902        3.967      344.581       84.056        0.060      345.850       23.672      863.143
08/11/2014  14:52:00     -153.436     -298.630       -5.762      207.555      112.066       74.676    43079.271    12558.692     5576.528        8.697        3.061      335.742       66.578        0.039      345.545       23.147      863.290
08/11/2014  14:53:00      -43.678      -91.975       11.282       78.842      141.544       72.875     6216.035    20034.706     5310.703        2.102        1.578      101.820       80.049        0.618      345.432       22.957      863.361
08/11/2014  14:54:00      -64.037     -116.684       -2.106      105.077       72.752       49.696    11041.096     5292.805     2469.712        1.826        0.940      133.101       34.991        0.069      345.255       22.653      863.409
08/11/2014  14:55:00     -229.667     -169.348       20.205      209.094      175.972       96.175    43720.505    30966.144     9249.579        8.287        4.197      285.352       89.943        0.099      344.838       21.938      863.505
08/11/2014  14:56:00     -355.118     -191.589       -5.432      230.598      172.177       79.867    53175.258    29644.952     6378.658       12.600        4.460      403.504       79.404        0.039      344.547       21.440      863.633
08/11/2014  14:57:00     -456.944     -284.795       31.429      279.106      201.344      112.800    77900.182    40539.328    12723.911       21.100        6.558      538.430      128.589        0.057      344.227       20.891      863.828
08/11/2014  14:58:00     -355.050     -283.904       -8.452      207.524      163.388       95.622    43066.192    26695.689     9143.515       14.280        3.945      454.601       85.017        0.035      344.080       20.644      864.054
08/11/2014  14:59:00     -434.806     -337.618      -12.650      213.672      180.100       92.549    45655.774    32435.991     8565.284       19.491        4.333      550.492       96.988        0.031      344.083       20.646      864.085
08/11/2014  15:00:00     -391.049     -244.114        5.157      236.173      202.145       99.657    55777.709    40862.775     9931.568       15.953        5.329      460.989      113.677        0.061      343.961       20.439      864.057
08/11/2014  15:01:00     -580.723     -181.070       -1.824      269.410      194.319      101.404    72581.765    37760.068    10282.774       24.530        6.031      608.297      120.673        0.039      343.423       19.520      863.953
08/11/2014  15:02:00     -696.909     -230.300      -28.791      266.157      217.879      107.092    70839.593    47471.402    11468.695       33.464        6.489      733.975      106.375        0.021      343.308       19.325      863.897
08/11/2014  15:03:00     -769.751     -257.316      -33.611      308.965      234.922      126.322    95459.069    55188.386    15957.157       41.320        8.330      811.621      132.878        0.027      344.178       20.809      863.781
08/11/2014  15:04:00     -727.053     -363.858      -44.976      219.935      238.413      128.991    48371.511    56840.637    16638.704       39.241        6.093      813.018      116.859        0.021      343.655       19.917      863.810
08/11/2014  15:05:00     -646.745     -259.783      -16.687      249.700      177.039      108.479    62349.916    31342.852    11767.777       29.573        5.273      696.969      115.752        0.028      343.543       19.726      864.011
08/11/2014  15:06:00     -464.910     -218.853        8.100      224.201      217.768       99.818    50266.182    47423.048     9963.559       18.586        5.383      513.846      119.300        0.054      344.152       20.766      864.219
08/11/2014  15:07:00     -494.804     -288.348       -4.973      230.294      188.912       95.849    53035.103    35687.859     9187.072       21.294        4.896      572.692       79.307        0.019      344.787       21.850      864.201
08/11/2014  15:08:00     -354.798     -239.230      -19.491      184.376      139.596       75.049    33994.602    19487.106     5632.293       12.129        2.956      427.917       89.743        0.044      344.465       21.299      864.118
08/11/2014  15:09:00     -377.114     -171.040      -15.340      175.317      126.133       73.704    30736.087    15909.580     5432.241       11.188        2.604      414.089       75.931        0.034      344.265       20.958      863.942
08/11/2014  15:10:00     -447.028     -119.063       -2.308      169.875      122.496       79.765    28857.464    15005.330     6362.463       13.211        2.511      462.612       78.125        0.029      343.802       20.167      863.860
08/11/2014  15:11:00     -385.100      -58.558      -16.110      162.186       91.668       72.084    26304.435     8402.933     5196.144        9.594        1.995      389.526       78.006        0.040      343.247       19.220      863.857
08/11/2014  15:12:00     -387.903      -57.318       -2.977      148.854      106.816       72.350    22157.588    11409.657     5234.573        9.628        1.940      392.115       76.203        0.038      342.727       18.335      863.899
08/11/2014  15:13:00     -252.216      -39.290       11.776      172.194       89.155       61.999    29650.703     7948.555     3843.880        5.336        2.072      255.258       71.792        0.079      342.788       18.442      863.931
08/11/2014  15:14:00     -189.035      -59.495       -1.250       99.412       78.505       56.201     9882.811     6162.979     3158.551        2.924        0.960      198.176       53.845        0.074      342.932       18.687      863.965
08/11/2014  15:15:00     -267.899     -143.829       -8.678      108.418      109.620       55.512    11754.441    12016.568     3081.627        5.969        1.343      304.067       54.606        0.032      342.874       18.586      863.996
08/11/2014  15:16:00     -290.455     -119.218       -1.758      149.494      120.597       71.975    22348.575    14543.517     5180.426        7.032        2.104      313.970       57.277        0.033      342.996       18.794      863.980
08/11/2014  15:17:00     -267.972     -113.512       -1.482      136.157      127.535       67.133    18538.707    16265.069     4506.889        6.200        1.966      291.022       64.797        0.050      343.135       19.030      863.960
08/11/2014  15:18:00     -218.731      -68.890        7.190      146.603       89.032       61.605    21492.482     7926.704     3795.195        4.292        1.661      229.323       69.593        0.092      342.986       18.777      863.953
08/11/2014  15:19:00     -316.510      -54.245       -3.947      139.868       94.791       58.877    19562.960     8985.242     3466.531        6.757        1.601      321.125       64.495        0.040      342.868       18.577      863.970
08/11/2014  15:20:00     -251.952      -58.383       10.636      126.060       82.923       61.712    15891.045     6876.225     3808.398        4.678        1.329      258.628       67.649        0.068      343.102       18.976      863.978
08/11/2014  15:21:00     -213.879      -88.052       -2.502       82.536       74.979       41.200     6812.216     5621.805     1697.405        3.381        0.707      231.295       38.350        0.027      343.549       19.735      863.976
08/11/2014  15:22:00     -282.656      -14.429      -19.104       71.663       64.527       42.048     5135.638     4163.691     1768.063        4.577        0.553      283.024       33.693        0.014      343.712       20.013      863.954
08/11/2014  15:23:00     -266.289       33.056      -26.553       56.443       62.785       36.315     3185.831     3941.920     1318.760        4.058        0.422      268.333       27.163        0.010      343.820       20.195      863.898
08/11/2014  15:24:00     -162.905       -5.972       -5.773       82.962       62.617       42.396     6882.691     3920.915     1797.429        1.960        0.630      163.015       44.211        0.074      343.839       20.232      863.868
08/11/2014  15:25:00     -144.343      -14.477      -15.013       41.741       54.593       35.713     1742.289     2980.377     1275.429        1.363        0.300      145.067       24.711        0.029      343.854       20.260      863.844
08/11/2014  15:26:00     -187.233       38.667      -22.178       89.951       53.191       38.756     8091.252     2829.232     1502.022        2.473        0.621      191.184       29.726        0.024      343.578       19.786      863.842
08/11/2014  15:27:00     -204.722       33.484      -25.702       87.927       92.724       53.570     7731.126     8597.795     2869.757        3.144        0.960      207.443       57.010        0.076      343.548       19.735      863.841
08/11/2014  15:28:00     -176.202       16.546      -11.416       65.551       73.334       49.646     4296.900     5377.816     2464.758        2.179        0.607      176.977       43.204        0.060      343.780       20.130      863.818
08/11/2014  15:29:00     -136.081      -37.028       19.468       79.456       76.001       51.677     6313.230     5776.208     2670.516        1.751        0.738      141.029       56.800        0.162      343.744       20.070      863.802
08/11/2014  15:30:00     -105.621       62.728        2.801       42.992       74.670       33.656     1848.287     5575.578     1132.759        1.183        0.428      122.844       34.331        0.078      343.959       20.433      863.777
08/11/2014  15:31:00     -123.815       83.149      -18.796       43.832       58.502       37.913     1921.244     3422.498     1437.371        1.469        0.339      149.144       26.609        0.032      344.002       20.510      863.748
08/11/2014  15:32:00     -148.231        8.104      -14.129       49.559       50.497       33.391     2456.080     2549.911     1114.928        1.418        0.306      148.453       27.303        0.034      343.838       20.232      863.721
08/11/2014  15:33:00     -148.757      -23.451       -0.913       76.790       48.202       43.861     5896.661     2323.436     1923.812        1.641        0.507      150.594       47.345        0.099      343.548       19.736      863.687
08/11/2014  15:34:00     -179.289       34.334      -16.892       60.084       71.033       36.120     3610.107     5045.653     1304.643        2.178        0.498      182.547       36.558        0.040      343.866       20.278      863.665
08/11/2014  15:35:00     -103.683      -19.339       -8.027       63.421       49.690       33.186     4022.224     2469.101     1101.296        0.939        0.380      105.471       33.968        0.104      343.863       20.274      863.684
08/11/2014  15:36:00      -52.256      -45.383       17.339       73.768       47.792       29.607     5441.653     2284.087      876.594        0.684        0.430       69.212       34.873        0.254      343.609       19.840      863.732
08/11/2014  15:37:00     -171.482      -71.066       -1.571       57.564       64.980       36.767     3313.570     4222.422     1351.781        2.167        0.444      185.624       32.436        0.031      343.657       19.921      863.798
08/11/2014  15:38:00     -149.711      -37.078       -5.288       53.411       54.403       36.591     2852.738     2959.644     1338.897        1.548        0.358      154.234       33.298        0.047      343.854       20.259      863.860
08/11/2014  15:39:00     -101.974      -46.039       -1.935       41.051       47.139       23.980     1685.210     2222.109      575.052        0.850        0.224      111.886       19.910        0.032      343.951       20.425      863.942
08/11/2014  15:40:00     -164.747      -81.398      -11.891       41.267       58.795       25.595     1702.940     3456.819      655.094        1.986        0.291      183.758       17.852        0.009      344.029       20.557      864.019
08/11/2014  15:41:00     -129.080      -63.788      -13.165       51.326       52.216       28.447     2634.330     2726.509      809.233        1.354        0.309      143.981        8.755        0.004      343.948       20.420      864.083
08/11/2014  15:42:00      -22.977      -21.696       15.472       47.415       60.994       29.229     2248.202     3720.269      854.357        0.403        0.341       31.601       23.908        0.572      344.035       20.569      864.197
08/11/2014  15:43:00      -14.184       53.144        7.175       28.766       32.362       21.289      827.490     1047.317      453.229        0.270        0.116       55.005       17.787        0.105      344.082       20.646      864.233
08/11/2014  15:44:00      -64.143      102.745      -14.727       39.844       42.481       22.922     1587.560     1804.626      525.400        0.940        0.196      121.124       19.773        0.027      344.266       20.961      864.219
08/11/2014  15:45:00      -59.702      127.860      -17.185       38.903       31.613       17.419     1513.466      999.395      303.432        1.151        0.141      141.112       13.962        0.010      344.286       20.996      864.192
08/11/2014  15:46:00      -21.827      135.967      -16.902       24.834       25.998       15.859      616.723      675.921      251.502        1.040        0.077      137.708       11.449        0.007      344.129       20.728      864.173
08/11/2014  15:47:00      -54.765      164.356      -18.414       43.808       42.806       27.770     1919.140     1832.333      771.179        1.744        0.226      173.240       19.098        0.012      344.075       20.635      864.154
08/11/2014  15:48:00      -74.492      272.637      -33.677       47.674       45.151       30.220     2272.791     2038.569      913.273        4.312        0.261      282.630       18.690        0.004      344.382       21.156      864.121
08/11/2014  15:49:00      -67.365      261.190      -30.391       48.598       73.986       32.496     2361.723     5473.909     1055.987        4.129        0.445      269.738       33.503        0.015      344.412       21.209      864.099
08/11/2014  15:50:00      -37.440      262.315      -31.285       51.876       95.946       41.314     2691.134     9205.595     1706.831        4.239        0.680      264.973       43.427        0.027      344.407       21.201      864.092
08/11/2014  15:51:00       -0.581      253.909      -16.957       66.465      125.579       56.465     4417.546    15770.071     3188.294        4.406        1.169      253.909       66.007        0.068      344.448       21.270      864.076
08/11/2014  15:52:00       21.976      314.979      -41.821       60.276       99.573       41.662     3633.179     9914.870     1735.697        5.836        0.764      315.745       53.743        0.029      344.443       21.261      864.061
08/11/2014  15:53:00      -28.620      245.317      -32.012       42.382       39.341       25.069     1796.230     1547.679      628.475        3.300        0.199      246.981       20.755        0.007      344.618       21.559      864.019
08/11/2014  15:54:00      -26.770      300.532      -32.608       56.315       66.537       33.771     3171.404     4427.140     1140.492        5.042        0.437      301.721       32.147        0.011      344.673       21.654      863.933
08/11/2014  15:55:00      -76.226      280.433      -39.686       56.589       76.773       43.960     3202.326     5894.107     1932.470        4.853        0.551      290.608       41.138        0.020      344.900       22.045      863.858
08/11/2014  15:56:00     -146.486      138.217      -33.973       68.939       79.184       42.303     4752.571     6270.163     1789.582        2.726        0.641      201.400       41.418        0.042      344.918       22.076      863.817
08/11/2014  15:57:00     -136.859       95.302      -24.000       86.760       63.107       38.349     7527.373     3982.431     1470.650        2.068        0.649      166.772       34.041        0.042      344.979       22.180      863.789
08/11/2014  15:58:00     -192.385      -30.223      -10.027       71.638       65.328       40.080     5131.944     4267.762     1606.392        2.451        0.550      194.745       27.184        0.019      344.838       21.939      863.733
08/11/2014  15:59:00     -179.446      -47.271       -2.575       61.864       50.263       38.477     3827.131     2526.322     1480.493        2.114        0.392      185.567       34.931        0.035      345.090       22.372      863.720
08/11/2014  16:00:00     -300.670     -105.837       -6.153      152.867      112.921       65.526    23368.219    12751.125     4293.625        7.102        2.021      318.753       66.440        0.043      345.524       23.112      863.652
08/11/2014  16:01:00     -189.305      -79.752        7.720      150.203      107.366       63.829    22560.840    11527.352     4074.083        4.020        1.908      205.418       63.859        0.097      345.581       23.212      863.617
08/11/2014  16:02:00     -324.608      -16.603      -14.802      129.315      152.034       70.129    16722.308    23114.226     4918.011        7.530        2.238      325.033       73.960        0.052      345.669       23.361      863.621
08/11/2014  16:03:00     -237.149       79.659      -21.614       92.185      123.522       40.446     8498.097    15257.595     1635.912        4.422        1.270      250.171       32.987        0.017      345.955       23.852      863.583
08/11/2014  16:04:00     -203.613      -18.293      -14.322       78.641       68.759       47.471     6184.369     4727.769     2253.473        2.758        0.658      204.433       38.619        0.036      345.106       22.397      863.603
08/11/2014  16:05:00      -71.933       87.025      -13.503       65.202       68.890       37.925     4251.285     4745.823     1438.280        1.168        0.522      112.906       26.923        0.057      345.164       22.498      863.599
08/11/2014  16:06:00     -190.478        2.268      -37.652       91.647       91.132       54.398     8399.106     8305.102     2959.124        2.868        0.983      190.492       56.055        0.087      344.997       22.212      863.579
08/11/2014  16:07:00     -238.399       12.176      -19.281       82.277       74.637       44.705     6769.444     5570.657     1998.575        3.584        0.717      238.710       36.845        0.024      344.805       21.880      863.560
08/11/2014  16:08:00     -178.463       38.698      -31.446       66.888       62.462       39.371     4473.946     3901.514     1550.110        2.213        0.496      182.610       27.714        0.023      345.208       22.573      863.563
08/11/2014  16:09:00     -137.649      261.840      -21.878       79.903      109.397       67.586     6384.482    11967.760     4567.834        5.545        1.146      295.816       53.747        0.033      345.695       23.406      863.533
08/11/2014  16:10:00     -113.272       72.931       -4.171       77.395      123.140       41.511     5990.026    15163.472     1723.187        2.052        1.144      134.720       44.899        0.111      345.967       23.875      863.533
08/11/2014  16:11:00      -51.543      -54.864       -6.581       72.807       63.433       30.409     5300.931     4023.764      924.701        0.798        0.512       75.277       23.101        0.094      345.936       23.824      863.589
08/11/2014  16:12:00       -0.533      -29.477       34.756       53.701       66.987       47.926     2883.842     4487.267     2296.857        0.587        0.483       29.482       41.219        1.955      345.437       22.966      863.645
08/11/2014  16:13:00      120.303     -153.798      -26.249       89.395      121.148       62.022     7991.509    14676.867     3846.699        3.266        1.326      195.260       57.818        0.088      345.292       22.717      863.694
08/11/2014  16:14:00      175.406     -150.461      -37.269      124.775      124.659       79.778    15568.816    15539.814     6364.512        4.613        1.874      231.097       87.594        0.144      345.465       23.013      863.722
08/11/2014  16:15:00      116.493      -62.525       52.347      128.830      156.663      111.215    16597.233    24543.249    12368.811        3.685        2.675      132.212      127.864        0.935      345.489       23.054      863.730
08/11/2014  16:16:00      158.850     -143.621        1.639      103.044      107.240       51.789    10617.967    11500.347     2682.126        3.533        1.240      214.150       58.470        0.075      345.536       23.132      863.754
08/11/2014  16:17:00       64.808     -119.290        2.949       57.738       49.689       40.448     3333.669     2468.999     1636.030        1.294        0.372      135.758       29.759        0.048      345.529       23.121      863.768
08/11/2014  16:18:00       32.773      -97.522        7.071       58.549       54.365       28.741     3427.972     2955.535      826.029        0.892        0.360      102.882       20.346        0.039      345.547       23.156      863.796
08/11/2014  16:19:00        6.881      -67.472        3.519       37.363       38.267       26.035     1396.013     1464.343      677.821        0.407        0.177       67.822       20.953        0.095      345.522       23.112      863.812
08/11/2014  16:20:00       21.190      -50.011        8.083       38.184       33.335       28.321     1457.991     1111.194      802.097        0.319        0.169       54.315       22.431        0.171      345.598       23.243      863.835
08/11/2014  16:21:00       24.161     -121.362        3.259       43.472       92.719       40.317     1889.842     8596.760     1625.432        1.372        0.606      123.744       46.990        0.144      345.941       23.832      863.845
08/11/2014  16:22:00       -4.005      -13.751       44.982       19.740       36.999       18.459      389.675     1368.911      340.720        0.216        0.105       14.322       16.228        1.284      346.034       23.991      863.837
08/11/2014  16:23:00        7.131      -63.467       -0.238       43.032       42.751       36.723     1851.745     1827.671     1348.604        0.455        0.251       63.866       31.615        0.245      345.860       23.694      863.847
08/11/2014  16:24:00       26.487       12.622       61.097       37.538       35.003       35.680     1409.100     1225.237     1273.065        0.425        0.195       29.340       22.388        0.582      345.959       23.863      863.849
08/11/2014  16:25:00       48.362      -34.001       31.724       55.088       81.822       53.079     3034.733     6694.836     2817.420        0.852        0.627       59.118       54.322        0.844      345.940       23.830      863.849
08/11/2014  16:26:00       84.336      -68.821       21.161       69.933      111.440       54.000     4890.682    12418.898     2915.978        1.626        1.011      108.852       76.201        0.490      346.032       23.985      863.852
08/11/2014  16:27:00       33.002       16.160       64.442       47.424       56.270       39.577     2249.011     3166.295     1566.311        0.624        0.349       36.746       38.079        1.074      346.113       24.128      863.864
08/11/2014  16:28:00      151.525     -121.515      -13.785       70.565       56.080       43.691     4979.467     3144.959     1908.932        2.397        0.502      194.231       39.416        0.041      346.144       24.177      863.859
08/11/2014  16:29:00       70.175      -86.553       15.240       78.072       62.312       42.597     6095.191     3882.848     1814.538        1.222        0.590      111.427       28.336        0.065      346.209       24.292      863.876
08/11/2014  16:30:00      124.629     -150.046      -12.557       54.217       58.763       31.596     2939.439     3453.073      998.297        2.280        0.370      195.054       27.809        0.020      346.197       24.270      863.874
08/11/2014  16:31:00       98.342      -55.932       22.127       67.979      100.701       67.269     4621.154    10140.650     4525.155        1.628        0.964      113.135       74.671        0.436      346.276       24.407      863.875
08/11/2014  16:32:00      121.396     -112.168       -9.797       43.159       33.726       24.986     1862.725     1137.471      624.319        1.552        0.181      165.284       20.275        0.015      346.388       24.599      863.863
08/11/2014  16:33:00      -23.681      -63.942       -4.442       39.807       25.234       16.684     1584.573      636.740      278.343        0.358        0.125       68.186        7.104        0.011      346.163       24.212      863.857
08/11/2014  16:34:00      -55.071      -55.444       -5.987       55.550       26.353       19.453     3085.763      694.488      378.404        0.515        0.208       78.146       24.691        0.100      346.104       24.112      863.844
08/11/2014  16:35:00       29.464      -81.861        6.918       44.576       60.704       38.493     1987.043     3685.013     1481.712        0.738        0.358       87.002       37.878        0.190      346.432       24.677      863.824
08/11/2014  16:36:00        9.309      -53.112        1.017       21.749       31.445       25.676      473.026      988.790      659.255        0.251        0.106       53.922       19.340        0.129      346.509       24.807      863.803
08/11/2014  16:37:00       -4.787        7.353       20.376       13.798       18.122       20.112      190.395      328.401      404.507        0.071        0.046        8.774       14.700        2.807      346.714       25.161      863.783
08/11/2014  16:38:00      -16.730       -7.457        5.841       17.084       12.897       10.316      291.856      166.324      106.414        0.047        0.028       18.317        9.611        0.275      346.571       24.914      863.771
08/11/2014  16:39:00       10.357      -22.862        4.773       15.672       16.778       12.445      245.597      281.511      154.869        0.067        0.034       25.098        9.895        0.155      346.430       24.672      863.763
08/11/2014  16:40:00       -1.258      -12.379       -4.218       10.728       12.553        9.610      115.098      157.584       92.361        0.027        0.018       12.443        6.377        0.263      346.410       24.637      863.751
08/11/2014  16:41:00       -9.032      -19.964        8.444       10.009       13.240       13.783      100.178      175.295      189.969        0.051        0.023       21.912        9.932        0.205      346.460       24.724      863.738
08/11/2014  16:42:00        0.714      -27.933       15.387       13.659       23.724       20.506      186.580      562.811      420.501        0.109        0.058       27.942       12.726        0.207      346.513       24.814      863.731
08/11/2014  16:43:00       -0.072      -39.427        8.935       22.177       27.560       18.608      491.809      759.529      346.254        0.162        0.080       39.427       13.541        0.118      346.409       24.636      863.734
08/11/2014  16:44:00      -27.793       -4.121       14.834       12.133       17.552       12.883      147.209      308.067      165.972        0.082        0.031       28.097        9.332        0.110      346.340       24.518      863.726
08/11/2014  16:45:00        9.664      -48.900        0.501       21.483       25.119       15.090      461.512      630.968      227.702        0.190        0.066       49.846        6.131        0.015      346.288       24.428      863.730
08/11/2014  16:46:00       -0.450      -46.266       20.173       27.112       38.898       22.508      735.079     1513.059      506.603        0.265        0.138       46.268       20.372        0.194      346.435       24.681      863.752
08/11/2014  16:47:00      -27.370      -52.869        6.874       53.979       33.162       24.692     2913.759     1099.743      609.711        0.411        0.231       59.533       18.726        0.099      346.230       24.327      863.782
08/11/2014  16:48:00      -43.011     -131.438      -15.178       96.617       50.198       30.734     9334.868     2519.872      944.589        1.608        0.640      138.296       23.278        0.028      346.252       24.364      863.803
08/11/2014  16:49:00      -21.007     -155.216        8.635      100.396       70.512       55.506    10079.433     4971.909     3080.875        2.137        0.907      156.631       32.501        0.043      346.250       24.361      863.812
08/11/2014  16:50:00      -21.823     -198.538       -3.283       77.077       90.538       36.359     5940.924     8197.076     1321.974        2.768        0.773      199.734       30.796        0.024      346.288       24.424      863.831
08/11/2014  16:51:00      -31.447     -116.491      -12.418       84.962       65.797       54.664     7218.497     4329.270     2988.116        1.462        0.727      120.661       50.141        0.173      346.245       24.353      863.872
08/11/2014  16:52:00      147.474     -193.444      -19.335      146.116      152.975       82.613    21349.903    23401.360     6824.929        5.555        2.579      243.247       87.112        0.128      346.141       24.171      863.928
08/11/2014  16:53:00       80.047      -34.728       89.148      185.727      161.340      110.659    34494.475    26030.663    12245.388        4.415        3.639       87.255      104.548        1.436      345.794       23.577      863.933
08/11/2014  16:54:00       52.708     -119.487       17.053      128.960      121.527       66.505    16630.785    14768.722     4422.963        2.658        1.791      130.596       73.485        0.317      345.689       23.398      863.983
08/11/2014  16:55:00        0.240      -48.928       19.118      119.761      123.897       73.470    14342.718    15350.406     5397.807        1.892        1.755       48.928       72.500        2.196      345.652       23.333      863.976
08/11/2014  16:56:00      153.828     -260.348      -31.158      119.075      107.528       72.665    14178.780    11562.196     5280.252        6.171        1.551      302.397       58.220        0.037      345.455       22.994      863.979
08/11/2014  16:57:00       27.888      -35.923       76.049       70.589      105.631       64.162     4982.864    11157.832     4116.704        1.405        1.013       45.478       51.381        1.276      345.529       23.123      863.964
08/11/2014  16:58:00       25.734     -113.171       10.602       94.789       91.390       54.700     8985.032     8352.076     2992.062        1.695        1.016      116.060       43.409        0.140      345.446       22.979      863.991
08/11/2014  16:59:00      118.816     -206.941        6.888      179.766      206.804       92.179    32315.771    42768.076     8496.966        7.027        4.179      238.625      118.859        0.248      345.376       22.858      864.013
08/11/2014  17:00:00       50.380     -208.232       24.073      106.149      113.919       88.485    11267.666    12977.481     7829.513        3.927        1.604      214.240       69.449        0.105      345.319       22.762      863.992
08/11/2014  17:01:00      -71.378     -122.314        4.171      104.809       89.130       43.987    10984.879     7944.192     1934.855        2.046        1.043      141.617       42.742        0.091      345.314       22.754      863.981
08/11/2014  17:02:00      -68.424     -122.561        2.288      112.357       89.837       69.152    12624.155     8070.608     4782.045        2.259        1.274      140.368       43.792        0.097      345.285       22.705      863.943
08/11/2014  17:03:00       70.680     -133.330        7.843      126.383      113.693       62.635    15972.552    12926.071     3923.168        2.782        1.641      150.905       47.968        0.101      345.313       22.751      863.925
08/11/2014  17:04:00      -26.142      -20.790       14.075       59.341       48.317       29.150     3521.374     2334.517      849.701        0.401        0.335       33.401       28.263        0.716      345.414       22.929      863.883
08/11/2014  17:05:00       16.167      -50.442       10.416       50.303       43.085       32.126     2530.433     1856.355     1032.106        0.417        0.271       52.969       29.047        0.301      345.420       22.937      863.854
08/11/2014  17:06:00      -22.307      -58.821        0.047       40.303       49.671       33.042     1624.356     2467.227     1091.743        0.457        0.259       62.909       22.932        0.133      345.412       22.922      863.824
08/11/2014  17:07:00      -84.481      -65.030       -4.428       68.208       56.035       24.910     4652.264     3139.922      620.504        0.990        0.421      106.611       15.571        0.021      345.386       22.881      863.777
08/11/2014  17:08:00      -43.245      -73.412        3.464       64.420       43.251       29.951     4149.968     1870.622      897.083        0.709        0.346       85.202       17.235        0.041      345.403       22.908      863.788
08/11/2014  17:09:00     -159.369     -229.088      -14.724      106.490       70.564       44.273    11340.015     4979.226     1960.134        4.818        0.914      279.069       45.542        0.027      345.236       22.618      863.788
08/11/2014  17:10:00      -91.003     -194.308       -8.464       81.629      137.369       50.894     6663.314    18870.204     2590.235        3.711        1.406      214.563       58.506        0.074      345.272       22.680      863.763
08/11/2014  17:11:00      -31.927     -154.542       -2.394       68.890       81.128       60.090     4745.891     6581.822     3610.842        1.992        0.747      157.805       49.910        0.100      345.283       22.699      863.766
08/11/2014  17:12:00      -90.120      -99.596       -3.556       80.883       87.058       37.934     6542.000     7579.100     1439.003        1.680        0.778      134.317       14.856        0.012      345.222       22.595      863.786
08/11/2014  17:13:00     -152.077     -134.803       13.056      116.105       93.191       48.779    13480.289     8684.521     2379.418        3.300        1.227      203.223       50.928        0.063      345.195       22.548      863.790
08/11/2014  17:14:00      -72.675     -179.417        5.935       79.916       85.052       42.806     6386.570     7233.899     1832.367        2.648        0.773      193.577       40.427        0.044      345.178       22.519      863.815
08/11/2014  17:15:00     -111.535     -150.636       -6.365       58.764       85.127       36.387     3453.187     7246.611     1324.014        2.360        0.601      187.433       25.600        0.019      345.165       22.497      863.818
08/11/2014  17:16:00     -107.180     -151.930       -4.553       87.113       66.037       39.001     7588.630     4360.826     1521.060        2.403        0.674      185.931       37.588        0.041      345.209       22.572      863.820
08/11/2014  17:17:00     -135.135      -71.760        0.138      103.023       59.425       48.376    10613.737     3531.368     2340.268        1.994        0.824      153.006       52.275        0.117      345.224       22.597      863.817
08/11/2014  17:18:00     -168.623     -146.910       -9.569       93.262       81.167       40.855     8697.736     6588.152     1669.132        3.353        0.848      223.643       42.597        0.036      345.226       22.601      863.799
08/11/2014  17:19:00     -140.577     -104.481       -5.785       67.073       51.617       36.690     4498.724     2664.306     1346.138        1.961        0.425      175.152       40.847        0.054      345.233       22.616      863.796
08/11/2014  17:20:00      -68.802      -84.586        2.791       41.079       38.220       27.025     1687.503     1460.773      730.355        0.789        0.194      109.034       20.987        0.037      345.264       22.668      863.791
08/11/2014  17:21:00     -108.574      -46.994       -3.983       62.588       62.917       29.052     3917.289     3958.586      844.024        1.136        0.436      118.308       30.898        0.068      345.328       22.778      863.761
08/11/2014  17:22:00      -74.110      -27.085        9.137       74.054       36.902       30.060     5484.043     1361.794      903.623        0.703        0.387       78.904       31.448        0.159      345.342       22.803      863.748
08/11/2014  17:23:00     -132.691      -30.581       -7.417       68.502       52.258       31.175     4692.559     2730.937      971.874        1.349        0.420      136.170       35.478        0.068      345.339       22.796      863.721
08/11/2014  17:24:00     -124.182       37.618      -16.791       37.443       52.317       23.509     1401.963     2737.058      552.678        1.090        0.235      129.755       15.591        0.014      345.294       22.722      863.679
08/11/2014  17:25:00      -99.271       78.734       -6.614       39.695       45.934       31.509     1575.720     2109.905      992.812        1.039        0.234      126.703       25.926        0.042      345.185       22.535      863.661
08/11/2014  17:26:00     -122.755      129.323      -25.396       41.883       66.180       33.729     1754.174     4379.729     1137.671        1.985        0.364      178.307       29.981        0.028      345.069       22.335      863.655
08/11/2014  17:27:00     -126.720      121.252      -30.960       38.634       42.185       23.607     1492.551     1779.542      557.298        1.777        0.191      175.385       12.176        0.005      345.059       22.319      863.642
08/11/2014  17:28:00     -124.590       88.520      -31.936       38.406       46.101       25.225     1475.034     2125.266      636.314        1.431        0.212      152.835       27.615        0.033      345.108       22.402      863.634
08/11/2014  17:29:00     -112.235      132.387      -22.458       42.326       45.526       28.503     1791.493     2072.606      812.431        1.765        0.234      173.560       24.398        0.020      345.129       22.440      863.625
08/11/2014  17:30:00     -111.753      142.296       -9.612       53.982       55.117       46.582     2914.089     3037.873     2169.851        2.047        0.406      180.933       39.813        0.048      345.153       22.481      863.614
08/11/2014  17:31:00      -94.578      114.943      -23.207       58.681       43.704       26.178     3443.414     1910.010      685.307        1.437        0.302      148.852       29.081        0.038      345.151       22.477      863.602
08/11/2014  17:32:00      -60.209      116.246      -22.327       43.336       38.266       30.897     1878.003     1464.276      954.646        1.097        0.215      130.913       26.302        0.040      345.182       22.532      863.586
08/11/2014  17:33:00      -41.786       85.643        5.904       52.822       61.516       29.217     2790.214     3784.206      853.617        0.827        0.371       95.293       26.201        0.076      345.256       22.654      863.581
08/11/2014  17:34:00      -79.362      102.646       -8.600       44.165       45.604       36.241     1950.548     2079.763     1313.441        1.113        0.267      129.748       37.576        0.084      345.231       22.614      863.580
08/11/2014  17:35:00     -105.193      131.523      -21.965       36.640       51.528       27.438     1342.461     2655.164      752.846        1.680        0.238      168.416       20.733        0.015      345.250       22.645      863.575
08/11/2014  17:36:00      -87.013       84.393      -12.436       37.357       39.374       25.646     1395.578     1550.304      657.715        0.923        0.180      121.216       26.936        0.049      345.291       22.716      863.569
08/11/2014  17:37:00      -94.563       95.874      -16.004       43.600       50.357       29.405     1900.953     2535.841      864.635        1.184        0.265      134.662       32.848        0.060      345.313       22.756      863.565
08/11/2014  17:38:00      -75.542      115.089      -18.578       52.763       47.764       29.650     2783.915     2281.395      879.117        1.262        0.297      137.667       34.180        0.062      345.363       22.839      863.573
08/11/2014  17:39:00      -56.234      146.308      -15.488       37.136       33.429       23.767     1379.080     1117.511      564.855        1.393        0.153      156.743       19.044        0.015      345.394       22.891      863.573
08/11/2014  17:40:00      -44.928       93.588       -9.206       32.168       31.225       22.696     1034.797      975.028      515.125        0.669        0.126      103.814       19.774        0.036      345.419       22.935      863.577
08/11/2014  17:41:00      -57.821       97.514      -12.553       37.131       42.582       25.231     1378.681     1813.254      636.596        0.842        0.191      113.368       17.358        0.023      345.419       22.935      863.580
08/11/2014  17:42:00      -25.419      103.346       -5.669       22.231       53.460       20.718      494.216     2858.021      429.229        0.757        0.189      106.426       27.110        0.065      345.494       23.063      863.584
08/11/2014  17:43:00      -26.134      186.417      -26.985       32.537       42.100       18.026     1058.641     1772.385      324.936        1.966        0.158      188.240       13.692        0.005      345.454       22.992      863.581
08/11/2014  17:44:00        2.614      183.738      -27.642       42.928       33.583       21.158     1842.853     1127.814      447.654        1.897        0.171      183.757       19.662        0.011      345.375       22.858      863.587
08/11/2014  17:45:00      -16.812      203.847      -28.786       31.770       28.052       16.817     1009.333      786.903      282.824        2.237        0.104      204.539       10.932        0.003      345.348       22.811      863.600
08/11/2014  17:46:00      -19.342      204.956      -29.680       24.132       29.430       14.584      582.345      866.114      212.689        2.246        0.083      205.866        8.946        0.002      345.369       22.849      863.607
08/11/2014  17:47:00      -27.436      176.420      -25.573       24.648       30.367       15.764      607.537      922.127      248.519        1.715        0.089      178.541       14.098        0.006      345.396       22.897      863.611
08/11/2014  17:48:00      -31.977      109.518      -10.888       27.017       26.294       17.023      729.904      691.364      289.779        0.742        0.086      114.091        8.314        0.005      345.427       22.947      863.601
08/11/2014  17:49:00      -56.755      156.690      -17.156       25.376       48.291       24.120      643.965     2332.047      581.753        1.581        0.178      166.652       23.200        0.019      345.495       23.063      863.576
08/11/2014  17:50:00      -79.791       87.499      -17.940       37.302       41.715       25.305     1391.426     1740.156      640.360        0.906        0.189      118.417       18.297        0.024      345.526       23.117      863.550
08/11/2014  17:51:00      -83.299      153.761      -24.685       41.781       40.360       29.273     1745.626     1628.954      856.894        1.771        0.212      174.875       19.018        0.012      345.605       23.255      863.525
08/11/2014  17:52:00      -67.419       98.850      -11.314       36.729       36.106       25.389     1349.030     1303.650      644.623        0.887        0.165      119.652       22.451        0.035      345.651       23.333      863.497
08/11/2014  17:53:00      -59.064       98.153       -8.101       41.465       36.907       24.761     1719.356     1362.138      613.099        0.844        0.185      114.554       25.201        0.048      345.726       23.464      863.489
08/11/2014  17:54:00      -53.318       61.331       -7.976       33.875       31.063       18.206     1147.526      964.940      331.453        0.456        0.122       81.267       14.709        0.033      345.726       23.463      863.480
08/11/2014  17:55:00      -35.956      111.167      -13.400       35.523       29.825       21.182     1261.872      889.534      448.659        0.821        0.130      116.838       12.243        0.011      345.778       23.553      863.475
08/11/2014  17:56:00      -28.359       58.201        3.544       24.677       33.947       22.876      608.943     1152.380      523.317        0.324        0.114       64.743       14.708        0.052      345.821       23.627      863.470
08/11/2014  17:57:00      -13.389       70.895       -3.057       29.043       42.120       14.353      843.502     1774.065      206.008        0.402        0.141       72.148       15.649        0.047      345.817       23.618      863.470
08/11/2014  17:58:00      -25.965      153.627      -15.656       21.599       44.219       20.284      466.518     1955.352      411.447        1.368        0.142      155.806       19.487        0.016      345.846       23.669      863.484
08/11/2014  17:59:00      -18.547      125.711      -14.892       22.601       33.557       17.355      510.824     1126.041      301.180        0.915        0.097      127.071       14.121        0.012      345.851       23.677      863.498
08/11/2014  18:00:00      -26.040      100.916        1.367       33.447       39.361       25.682     1118.681     1549.263      659.550        0.710        0.166      104.222       25.385        0.059      345.896       23.753      863.515
08/11/2014  18:01:00       -5.799       49.208       -6.126       34.425       24.276       13.851     1185.084      589.346      191.844        0.223        0.098       49.548       17.778        0.129      345.872       23.711      863.547
08/11/2014  18:02:00       44.533       37.692       10.881       21.900       22.863       17.013      479.594      522.722      289.445        0.241        0.065       58.343       11.087        0.036      345.889       23.741      863.573
08/11/2014  18:03:00       61.013       20.370       -2.668       27.213       25.162       18.313      740.533      633.143      335.380        0.293        0.085       64.324       13.551        0.044      345.890       23.744      863.599
08/11/2014  18:04:00       31.771       43.245       29.668       18.994       19.206       18.897      360.764      368.882      357.102        0.242        0.054       53.662        4.167        0.006      345.877       23.719      863.616
08/11/2014  18:05:00       39.469       60.887       34.160       28.387       19.599       16.723      805.805      384.139      279.661        0.395        0.073       72.561        7.794        0.012      345.848       23.670      863.631
08/11/2014  18:06:00       25.893       47.686       40.910       27.529       25.765       20.173      757.853      663.829      406.933        0.322        0.091       54.262       12.934        0.057      345.864       23.698      863.636
08/11/2014  18:07:00       24.528       45.241       52.805       27.264       28.355       16.186      743.348      804.010      261.991        0.362        0.090       51.462        9.882        0.037      345.874       23.717      863.639
08/11/2014  18:08:00       56.610       52.668       44.376       27.505       24.372       25.412      756.526      593.996      645.756        0.497        0.100       77.322       11.583        0.022      345.793       23.577      863.634
08/11/2014  18:09:00       44.650       47.134       43.427       38.173       22.067       21.454     1457.142      486.951      460.275        0.425        0.120       64.925       20.744        0.102      345.803       23.594      863.621
08/11/2014  18:10:00       55.824       49.168       37.188       34.817       19.518       22.569     1212.241      380.971      509.381        0.451        0.105       74.390       20.636        0.077      345.797       23.586      863.603
08/11/2014  18:11:00       70.609       55.255       32.563       35.999       19.050       22.326     1295.958      362.919      498.471        0.563        0.108       89.659       20.230        0.051      345.794       23.580      863.570
08/11/2014  18:12:00       84.829       54.185       37.983       34.129       26.518       23.078     1164.821      703.193      532.576        0.699        0.120      100.657       18.374        0.033      345.800       23.590      863.536
08/11/2014  18:13:00       94.106       35.357       13.171       38.100       32.676       34.917     1451.580     1067.712     1219.204        0.701        0.187      100.529       23.107        0.053      345.794       23.580      863.504
08/11/2014  18:14:00       86.396       47.892       21.119       30.635       18.392       19.536      938.482      338.261      381.652        0.593        0.083       98.782       12.229        0.015      345.819       23.623      863.469
08/11/2014  18:15:00       83.106       49.802       29.437       16.515       11.650       15.856      272.746      135.729      251.417        0.546        0.033       96.885       12.012        0.015      345.817       23.620      863.448
08/11/2014  18:16:00       71.412       55.613       12.357       26.064       22.698       15.489      679.344      515.213      239.914        0.489        0.072       90.512       11.279        0.016      345.783       23.559      863.423
08/11/2014  18:17:00       65.662       45.962        6.472       37.852       29.090       15.904     1432.764      846.220      252.946        0.450        0.127       80.150        9.778        0.015      345.822       23.629      863.400
08/11/2014  18:18:00      139.881       55.221       28.824       72.227       35.512       37.364     5216.773     1261.088     1396.065        1.566        0.394      150.386       37.375        0.062      345.821       23.623      863.371
08/11/2014  18:19:00       92.165       53.943       35.974       69.390       45.380       36.350     4814.969     2059.364     1321.332        1.045        0.410      106.791       33.796        0.100      345.843       23.663      863.356
08/11/2014  18:20:00      112.876       78.416       12.076       29.651       31.365       22.880      879.172      983.789      523.499        1.071        0.119      137.441       15.682        0.013      345.788       23.568      863.354
08/11/2014  18:21:00      148.891       76.205       22.757       59.003       48.363       36.300     3481.410     2338.959     1317.710        1.781        0.357      167.259       32.326        0.037      345.858       23.688      863.348
08/11/2014  18:22:00       68.093       52.930       39.565       37.536       32.643       38.499     1408.985     1065.538     1482.169        0.648        0.198       86.245       30.261        0.123      345.790       23.572      863.347
08/11/2014  18:23:00       25.567       37.761       12.547       27.953       26.100       30.283      781.375      681.210      917.079        0.231        0.119       45.602       15.812        0.120      345.892       23.749      863.346
08/11/2014  18:24:00       26.317        8.196        6.206       30.186       39.708       28.660      911.193     1576.710      821.379        0.205        0.165       27.563       20.268        0.541      345.920       23.794      863.349
08/11/2014  18:25:00       10.296       22.359       11.216       19.768       27.108       16.659      390.773      734.864      277.535        0.107        0.070       24.616        9.254        0.141      345.898       23.757      863.350
08/11/2014  18:26:00       22.493       30.545       10.029       24.244       18.107       17.786      587.768      327.872      316.330        0.139        0.062       37.933       10.947        0.083      345.890       23.746      863.366
08/11/2014  18:27:00       25.584       24.505       21.154       25.836       16.962       21.845      667.503      287.721      477.211        0.157        0.072       35.426       12.733        0.129      345.920       23.795      863.383
08/11/2014  18:28:00       41.198       24.006       30.179       16.640       15.005       16.183      276.875      225.163      261.887        0.197        0.038       47.682        9.812        0.042      345.922       23.802      863.397
08/11/2014  18:29:00       19.500       -0.425       31.296       20.237       16.046       11.799      409.556      257.475      139.206        0.108        0.040       19.505        8.238        0.178      345.996       23.926      863.399
08/11/2014  18:30:00       11.785      -17.929       24.691       18.213       27.383       19.945      331.697      749.826      397.783        0.127        0.074       21.455        8.223        0.147      346.004       23.939      863.395
08/11/2014  18:31:00       16.392      -31.076        6.582       26.873       51.835       23.324      722.185     2686.907      544.007        0.261        0.198       35.134       26.275        0.559      346.027       23.978      863.396
08/11/2014  18:32:00       61.661      -78.092        1.786       41.183       59.856       21.991     1696.051     3582.768      483.587        0.783        0.288       99.502       28.363        0.081      345.967       23.875      863.390
08/11/2014  18:33:00       93.156      -98.171       -5.900       37.417       37.601       28.164     1400.017     1413.805      793.210        1.098        0.180      135.335       19.230        0.020      345.990       23.916      863.387
08/11/2014  18:34:00       29.034       -9.423        7.380       26.373       31.177       26.566      695.520      972.021      705.738        0.168        0.119       30.525       14.472        0.225      345.977       23.892      863.386
08/11/2014  18:35:00       -2.062       -6.782       14.927       16.137       19.028       23.483      260.400      362.064      551.450        0.072        0.059        7.089       17.738        6.261      346.000       23.934      863.385
08/11/2014  18:36:00       -4.495      -13.427       -2.604       17.565       17.344       11.071      308.522      300.821      122.561        0.047        0.037       14.159       10.165        0.515      345.896       23.754      863.378
08/11/2014  18:37:00        1.319       19.484       31.475       14.826       15.499       14.150      219.825      240.226      200.227        0.102        0.033       19.528       10.743        0.303      346.031       23.988      863.374
08/11/2014  18:38:00        2.545      -10.482        7.891       24.086       25.354       20.149      580.116      642.811      405.994        0.090        0.081       10.786        7.002        0.421      345.987       23.911      863.353
08/11/2014  18:39:00       18.313      -49.488       11.487       39.256       73.888       41.068     1541.031     5459.499     1686.611        0.580        0.434       52.768       47.207        0.800      345.996       23.925      863.348
08/11/2014  18:40:00       36.810      104.776      159.874       71.655       89.978       60.602     5134.370     8095.977     3672.594        2.739        0.845      111.054       59.169        0.284      345.939       23.826      863.343
08/11/2014  18:41:00       80.767      -66.080       38.240       84.362      140.979       66.615     7116.995    19874.965     4437.509        2.188        1.571      104.354       90.338        0.749      345.963       23.869      863.313
08/11/2014  18:42:00      124.447     -119.718       -7.247       85.831       94.769       63.645     7366.987     8981.180     4050.693        2.513        1.020      172.683       70.076        0.165      345.925       23.803      863.274
08/11/2014  18:43:00      -10.034       24.287       55.453       25.564       47.069       36.257      653.525     2215.492     1314.603        0.397        0.209       26.278       32.633        1.542      346.027       23.979      863.234
08/11/2014  18:44:00       -6.620        0.717       16.547       19.955       29.030       19.819      398.217      842.731      392.811        0.098        0.082        6.659       15.795        5.626      346.031       23.985      863.191
08/11/2014  18:45:00        3.546      -11.075       16.461       29.907       23.746       22.034      894.448      563.870      485.478        0.117        0.097       11.629       21.617        3.456      346.153       24.195      863.166
08/11/2014  18:46:00       25.300      -73.121        3.909       35.982       46.141       24.830     1294.670     2128.972      616.511        0.502        0.202       77.375       24.589        0.101      346.007       23.944      863.143
08/11/2014  18:47:00       64.784      -45.899       27.726       36.489       73.658       50.641     1331.476     5425.527     2564.470        0.820        0.466       79.396       54.474        0.471      345.950       23.847      863.113
08/11/2014  18:48:00      107.527     -124.690       16.526       85.771      125.875       65.199     7356.713    15844.441     4250.907        2.741        1.373      164.650       83.024        0.254      345.943       23.832      863.084
08/11/2014  18:49:00       71.949      -88.005       10.043       70.083       91.778       54.209     4911.614     8423.142     2938.607        1.464        0.814      113.673       54.453        0.229      346.054       24.023      863.052
08/11/2014  18:50:00       59.540       62.017       80.445       61.367       62.981       56.951     3765.959     3966.586     3243.455        1.242        0.549       85.971       42.492        0.244      346.032       23.989      863.036
08/11/2014  18:51:00      101.141       60.658      106.779       81.320       59.275       48.359     6613.001     3513.539     2338.592        1.889        0.623      117.936       44.630        0.143      346.030       23.982      863.012
08/11/2014  18:52:00       30.734      -30.985       35.580       52.629       68.826       33.329     2769.819     4737.013     1110.822        0.589        0.431       43.642       33.498        0.589      346.103       24.110      862.991
08/11/2014  18:53:00       72.481      -38.649        8.781       59.318       60.198       46.974     3518.592     3623.745     2206.525        0.808        0.467       82.142       45.973        0.313      346.093       24.091      862.975
08/11/2014  18:54:00      113.325     -105.028       -3.403       49.680       52.056       32.037     2468.093     2709.822     1026.396        1.504        0.310      154.510       32.147        0.043      346.075       24.061      862.961
08/11/2014  18:55:00       72.263      -90.029       -9.189       31.867       37.378       24.394     1015.490     1397.117      595.078        0.821        0.150      115.443       18.938        0.027      346.096       24.098      862.947
08/11/2014  18:56:00       34.606      -12.695       15.028       33.314       44.120       33.280     1109.822     1946.617     1107.556        0.287        0.208       36.862       34.250        0.863      346.190       24.259      862.948
08/11/2014  18:57:00       82.044       26.514       72.115       75.046       71.666       62.074     5631.889     5136.052     3853.224        1.363        0.731       86.222       63.729        0.546      346.101       24.106      862.936
08/11/2014  18:58:00      124.502      -47.366       49.754       77.730      126.793       73.027     6041.989    16076.355     5332.877        2.383        1.373      133.207       84.818        0.405      346.124       24.144      862.911
08/11/2014  18:59:00       70.744      -22.030       43.864       85.121       66.744       44.336     7245.550     4454.793     1965.647        1.054        0.683       74.095       48.360        0.426      346.180       24.241      862.900
08/11/2014  19:00:00       51.214      -39.628       36.339       64.718       73.947       45.162     4188.482     5468.176     2039.567        0.860        0.585       64.755       48.348        0.557      346.236       24.338      862.904
08/11/2014  19:01:00      100.588      -99.208        4.404       69.221       59.760       45.978     4791.551     3571.251     2114.019        1.523        0.524      141.280       47.332        0.112      346.177       24.235      862.905
08/11/2014  19:02:00      104.582      -15.201       41.291       92.956       79.048       56.232     8640.842     6248.622     3162.042        1.546        0.903      105.681       60.606        0.329      346.147       24.184      862.917
08/11/2014  19:03:00      129.543      -53.829       29.886       88.638       94.274       51.175     7856.681     8887.621     2618.913        1.996        0.968      140.282       54.607        0.152      346.111       24.122      862.937
08/11/2014  19:04:00      120.200      -59.988       30.539       66.495       86.750       49.089     4421.617     7525.589     2409.777        1.667        0.718      134.338       41.739        0.097      346.098       24.099      862.959
08/11/2014  19:05:00       64.514       46.672       90.308       61.223       86.281       62.263     3748.243     7444.446     3876.619        1.478        0.753       79.626       65.680        0.680      346.134       24.162      862.969
08/11/2014  19:06:00       40.125      -26.174       43.903       61.686       73.554       46.256     3805.121     5410.231     2139.629        0.779        0.568       47.908       47.737        0.993      346.212       24.298      862.971
08/11/2014  19:07:00       92.882        7.582       83.695      104.916      136.513       73.876    11007.411    18635.699     5457.636        2.539        1.755       93.191      101.700        1.191      346.178       24.236      862.967
08/11/2014  19:08:00      130.441      -81.737       18.407       85.726       97.637       55.454     7348.999     9533.056     3075.194        2.199        0.998      153.935       68.103        0.196      346.196       24.267      862.974
08/11/2014  19:09:00      152.560     -148.153        7.872      128.022      120.810       54.496    16389.711    14595.167     2969.816        3.961        1.698      212.659       65.989        0.096      346.191       24.257      862.988
08/11/2014  19:10:00      110.843      -68.556       43.087       98.591      122.665       75.458     9720.235    15046.714     5693.976        2.465        1.523      130.330       90.999        0.488      346.197       24.269      863.003
08/11/2014  19:11:00       88.643      -32.223       40.353       94.398      113.325       67.847     8910.898    12842.488     4603.270        1.844        1.318       94.318       85.891        0.829      346.223       24.312      863.011
08/11/2014  19:12:00       72.520      -38.153       47.416       78.602       84.577       55.788     6178.207     7153.297     3112.341        1.270        0.822       81.944       55.805        0.464      346.244       24.351      863.023
08/11/2014  19:13:00       34.925      -44.845       42.680       42.718       67.373       51.935     1824.836     4539.120     2697.292        0.705        0.453       56.840       50.557        0.791      346.230       24.327      863.030
08/11/2014  19:14:00      132.026      -93.687       17.492       82.948       80.562       47.004     6880.327     6490.183     2209.408        2.104        0.779      161.889       51.423        0.101      346.219       24.305      863.025
08/11/2014  19:15:00      124.891     -102.729        5.160       71.485      102.109       58.201     5110.086    10426.154     3387.386        2.255        0.946      161.713       70.464        0.190      346.222       24.312      863.008
08/11/2014  19:16:00        3.465       21.817       69.276       33.006       53.824       35.798     1089.388     2897.069     1281.475        0.528        0.263       22.091       31.588        2.045      346.271       24.399      862.984
08/11/2014  19:17:00      -15.469       20.064       35.550       23.456       36.405       33.873      550.171     1325.302     1147.347        0.246        0.151       25.335       25.685        1.028      346.266       24.389      862.964
08/11/2014  19:18:00       66.150     -119.663      -19.030       65.218       53.581       24.270     4253.385     2870.916      589.020        1.338        0.386      136.730       27.384        0.040      346.223       24.317      862.933
08/11/2014  19:19:00       57.770       -9.334       29.616       42.741       75.425       41.701     1826.795     5688.905     1738.958        0.678        0.463       58.519       51.871        0.786      346.182       24.246      862.916
08/11/2014  19:20:00       50.876       46.239       59.847       55.133       51.512       33.113     3039.602     2653.519     1096.488        0.755        0.339       68.749       39.304        0.327      346.200       24.278      862.902
08/11/2014  19:21:00       26.530       16.331       23.815       47.564       34.142       29.083     2262.301     1165.670      845.831        0.290        0.214       31.153       17.625        0.320      346.182       24.245      862.903
08/11/2014  19:22:00       93.356       49.054       20.026       39.278       34.326       38.400     1542.794     1178.285     1474.551        0.786        0.210      105.459       15.375        0.021      346.086       24.081      862.911
08/11/2014  19:23:00       57.024       50.771       44.808       54.534       34.488       41.415     2973.981     1189.406     1715.210        0.686        0.294       76.351       42.929        0.316      346.113       24.126      862.901
08/11/2014  19:24:00       93.567       49.627       29.030       45.117       37.641       39.336     2035.588     1416.871     1547.328        0.853        0.250      105.914       28.282        0.071      346.128       24.151      862.900
08/11/2014  19:25:00       67.208       28.791       14.075       45.486       42.167       30.245     2068.999     1778.058      914.764        0.515        0.238       73.115       21.705        0.088      346.118       24.136      862.898
08/11/2014  19:26:00       62.845       11.932       39.011       45.058       63.945       35.123     2030.256     4088.984     1233.644        0.648        0.368       63.968       38.676        0.366      346.119       24.137      862.898
08/11/2014  19:27:00       33.850       24.707       45.768       30.229       43.117       24.053      913.793     1859.068      578.559        0.360        0.168       41.908       24.046        0.329      346.136       24.165      862.905
08/11/2014  19:28:00       13.381        3.039       29.628       26.345       28.995       17.715      694.078      840.694      313.821        0.146        0.092       13.722       20.022        2.129      346.200       24.276      862.924
08/11/2014  19:29:00       42.088       34.859       24.510       36.501       26.856       22.381     1332.297      721.250      500.915        0.307        0.128       54.649        9.544        0.030      346.118       24.135      862.945
08/11/2014  19:30:00        3.923      -24.424        0.761       25.301       22.704       19.195      640.162      515.466      368.443        0.107        0.076       24.737       16.971        0.471      346.053       24.024      862.964
08/11/2014  19:31:00        7.246      -45.043        0.342       14.995       18.167       14.401      224.859      330.040      207.389        0.142        0.038       45.622        5.374        0.014      346.079       24.069      862.985
08/11/2014  19:32:00       -8.673      -15.122       19.080       29.409       37.062       29.650      864.869     1373.608      879.117        0.189        0.156       17.432       26.407        2.295      346.130       24.155      862.988
08/11/2014  19:33:00      -12.184      -63.209       -7.374       20.221       17.852       12.698      408.899      318.711      161.238        0.254        0.044       64.373        9.039        0.020      346.099       24.102      862.992
08/11/2014  19:34:00       15.438      -44.233       -8.135       26.663       23.138       15.888      710.898      535.358      252.416        0.188        0.075       46.849       12.151        0.067      346.117       24.134      862.986
08/11/2014  19:35:00       22.404       -9.497       28.432       33.755       68.278       33.179     1139.402     4661.911     1100.818        0.415        0.345       24.334       38.292        2.476      346.092       24.089      862.980
08/11/2014  19:36:00       44.532      -76.384       -0.479       40.360       56.073       36.236     1628.933     3144.127     1313.055        0.695        0.304       88.417       31.472        0.127      346.169       24.223      862.981
08/11/2014  19:37:00       38.634      -62.724       15.628       46.299       69.739       50.210     2143.563     4863.583     2521.025        0.760        0.476       73.667       53.475        0.527      346.120       24.138      862.990
08/11/2014  19:38:00       25.315      -35.187       20.954       30.621       54.896       36.304      937.634     3013.614     1317.957        0.379        0.263       43.348       34.181        0.622      346.042       24.004      863.012
08/11/2014  19:39:00       40.447      -54.224       -0.897       47.773       35.645       34.949     2282.266     1270.575     1221.428        0.467        0.239       67.648       23.891        0.125      346.043       24.005      863.037
08/11/2014  19:40:00       26.362       -4.469       37.068       43.918       53.867       34.966     1928.810     2901.620     1222.603        0.407        0.303       26.738       40.852        2.334      346.032       23.986      863.069
08/11/2014  19:41:00       -2.537       69.194       85.987       21.877       37.932       28.996      478.590     1438.829      840.765        0.747        0.138       69.240       26.819        0.150      346.044       24.009      863.094
08/11/2014  19:42:00       20.850       13.127       40.088       27.819       27.396       22.046      773.884      750.533      486.017        0.211        0.101       24.638       20.310        0.680      346.053       24.023      863.118
08/11/2014  19:43:00       28.185       -6.554       35.925       29.803       39.206       28.651      888.218     1537.136      820.892        0.269        0.162       28.937       23.225        0.644      346.032       23.987      863.139
08/11/2014  19:44:00       30.180       24.272       36.932       20.971       20.749       13.237      439.801      430.510      175.231        0.195        0.052       38.729        9.503        0.060      345.998       23.931      863.160
08/11/2014  19:45:00       22.091       -2.174       45.006       33.552       60.940       34.511     1125.722     3713.637     1191.037        0.427        0.302       22.198       39.648        3.190      346.033       23.988      863.176
08/11/2014  19:46:00       16.440       40.741       68.932       32.521       35.954       20.800     1057.584     1292.655      432.619        0.473        0.139       43.933       13.907        0.100      346.052       24.021      863.191
08/11/2014  19:47:00       77.890      -75.081        0.014       34.035       51.095       33.514     1158.394     2610.714     1123.201        0.830        0.245      108.185       33.879        0.098      346.069       24.051      863.200
08/11/2014  19:48:00       50.930       33.396       41.036       36.999       30.590       26.669     1368.939      935.758      711.220        0.420        0.151       60.903       20.166        0.110      346.013       23.954      863.212
08/11/2014  19:49:00       51.669      -14.831       17.902       29.998       47.032       30.149      899.901     2211.987      908.933        0.361        0.201       53.756       26.108        0.236      346.021       23.970      863.216
08/11/2014  19:50:00       50.737        9.117        8.370       34.694       65.054       25.820     1203.640     4232.055      666.689        0.441        0.305       51.550       29.199        0.321      345.929       23.811      863.208
08/11/2014  19:51:00       64.442       36.577       16.826       35.810       23.937       22.189     1282.378      572.966      492.358        0.406        0.117       74.099       15.027        0.041      345.894       23.753      863.194
08/11/2014  19:52:00       56.198       41.920       11.588       28.286       26.280       20.553      800.115      690.636      422.428        0.348        0.096       70.110       14.008        0.040      345.866       23.703      863.207
08/11/2014  19:53:00       76.141       54.368       38.119       41.468       29.268       23.471     1719.623      856.599      550.904        0.667        0.156       93.559        8.045        0.007      345.861       23.693      863.224
08/11/2014  19:54:00       41.304       54.421       52.874       37.475       27.417       21.940     1404.355      751.719      481.381        0.505        0.132       68.321       12.344        0.033      345.898       23.759      863.247
08/11/2014  19:55:00        1.459       -0.551       48.358       23.611       44.364       28.612      557.463     1968.172      818.662        0.284        0.167        1.560       25.470      266.611      346.028       23.981      863.283
08/11/2014  19:56:00       25.134       13.339       61.189       42.490       57.060       29.396     1805.431     3255.846      864.102        0.524        0.296       28.455       30.800        1.172      345.990       23.916      863.319
08/11/2014  19:57:00       52.043      -47.096       23.446       37.746       46.736       29.843     1424.787     2184.249      890.578        0.499        0.225       70.189       29.440        0.176      346.001       23.936      863.355
08/11/2014  19:58:00       58.218      -15.877       23.685       47.226       41.261       33.366     2230.297     1702.508     1113.286        0.462        0.252       60.344       35.104        0.338      345.972       23.885      863.388
08/11/2014  19:59:00       34.459       52.342       65.483       44.678       35.896       23.693     1996.151     1288.538      561.372        0.603        0.192       62.666       17.458        0.078      345.892       23.748      863.416
08/11/2014  20:00:00       87.593      -56.623       17.889       58.825       54.893       42.228     3460.359     3013.287     1783.220        0.973        0.413      104.301       35.894        0.118      345.942       23.834      863.448
08/11/2014  20:01:00       53.643        0.069       42.588       50.405       57.019       40.179     2540.641     3251.114     1614.318        0.605        0.370       53.643       36.037        0.451      345.937       23.824      863.492
08/11/2014  20:02:00       59.677      -15.570       55.240       54.305       82.983       37.718     2949.033     6886.126     1422.673        0.905        0.563       61.675       40.792        0.437      345.935       23.823      863.501
08/11/2014  20:03:00       89.305       -0.171       83.044       90.255       89.916       65.631     8146.052     8084.921     4307.372        1.770        1.027       89.306       56.970        0.407      345.901       23.763      863.503
08/11/2014  20:04:00       53.380       89.074      133.489       73.329      102.096       65.319     5377.095    10423.552     4266.538        2.433        1.003      103.844       72.626        0.489      345.875       23.717      863.521
08/11/2014  20:05:00      123.479     -142.990       31.371       80.322      135.113       69.352     6451.651    18255.567     4809.642        3.309        1.476      188.927       69.826        0.137      345.898       23.754      863.519
08/11/2014  20:06:00      180.987      -36.030       82.536      113.587      148.758       87.497    12902.087    22128.800     7655.672        4.177        2.134      184.538      102.305        0.307      345.881       23.726      863.508
08/11/2014  20:07:00       94.991       48.756       81.870      120.799      104.259       63.496    14592.366    10869.881     4031.755        2.379        1.475      106.773       59.923        0.315      345.880       23.726      863.508
08/11/2014  20:08:00       90.263      -44.962       64.578      117.229      131.924       85.525    13742.661    17403.983     7314.608        2.639        1.923      100.841      101.474        1.013      345.885       23.733      863.519
08/11/2014  20:09:00       70.399      -95.497       20.729       73.714      133.324       74.934     5433.824    17775.239     5615.171        2.166        1.441      118.641       76.314        0.414      345.915       23.785      863.517
08/11/2014  20:10:00      174.427     -134.044       -3.702      115.021      148.690       86.664    13229.732    22108.665     7510.591        4.562        2.142      219.984       92.727        0.178      345.969       23.877      863.520
08/11/2014  20:11:00      113.585      -43.611       62.490      106.395      155.376      101.830    11319.855    24141.736    10369.281        3.226        2.292      121.669      117.381        0.931      345.972       23.883      863.549
08/11/2014  20:12:00       95.819      -18.197      102.536      112.475      167.767      107.669    12650.691    28145.821    11592.585        3.620        2.619       97.532      121.868        1.561      346.001       23.932      863.537
08/11/2014  20:13:00      167.906     -253.986      -23.855      122.754      139.348       71.625    15068.437    19417.800     5130.168        6.644        1.981      304.469       57.925        0.036      346.052       24.018      863.579
08/11/2014  20:14:00      109.339      -19.347      115.020      145.511      165.601      111.064    21173.524    27423.562    12335.155        4.323        3.047      111.038      130.494        1.381      346.052       24.018      863.591
08/11/2014  20:15:00       48.398      -31.005       80.836       99.192      138.877       77.162     9838.970    19286.819     5954.050        2.245        1.754       57.478       62.874        1.197      346.030       23.982      863.602
08/11/2014  20:16:00       66.204      -99.067       43.789      120.602      106.646       72.117    14544.774    11373.346     5200.925        2.361        1.556      119.152       55.378        0.216      346.053       24.023      863.602
08/11/2014  20:17:00       46.112      -70.014       18.141       47.823       70.035       50.441     2287.082     4904.945     2544.266        0.854        0.487       83.835       48.002        0.328      346.056       24.028      863.606
08/11/2014  20:18:00       95.395     -147.188       -6.548       63.624       85.673       47.554     4047.985     7339.924     2261.345        2.223        0.682      175.399       32.354        0.034      346.105       24.110      863.601
08/11/2014  20:19:00       -0.444      -45.735       48.034       62.436       97.401       62.626     3898.204     9486.988     3922.050        1.085        0.865       45.737       63.093        1.903      346.067       24.046      863.595
08/11/2014  20:20:00      126.330     -135.083       28.894      103.522      202.742      100.103    10716.887    41104.268    10020.673        4.843        3.092      184.950      124.943        0.456      346.161       24.206      863.563
08/11/2014  20:21:00      125.195     -198.894      -17.142      102.538      123.900       53.924    10514.054    15351.232     2907.750        4.214        1.439      235.016       57.541        0.060      346.158       24.201      863.563
08/11/2014  20:22:00       36.392      -67.859       40.849       72.813      117.516       60.745     5301.788    13810.099     3689.990        1.520        1.140       77.002       66.665        0.750      346.150       24.188      863.545
08/11/2014  20:23:00       -5.933      -97.619       16.801       74.796      103.987       63.521     5594.483    10813.291     4034.898        1.514        1.022       97.799       59.439        0.369      346.110       24.120      863.556
08/11/2014  20:24:00       56.227      -64.961       26.294       76.905      105.028       54.527     5914.313    11030.884     2973.154        1.399        0.996       85.915       59.541        0.480      346.136       24.164      863.555
08/11/2014  20:25:00       35.197        3.701       50.312       49.658       83.097       60.663     2465.962     6905.142     3679.959        0.841        0.653       35.392       63.663        3.236      346.100       24.103      863.551
08/11/2014  20:26:00       -6.074       -2.814       58.129       55.766       90.640       59.477     3109.804     8215.580     3537.464        0.914        0.743        6.694       63.020       88.620      346.097       24.099      863.544
08/11/2014  20:27:00       81.534       12.974       54.724       81.561       62.762       45.414     6652.245     3939.052     2062.462        1.123        0.633       82.560       54.684        0.439      346.127       24.150      863.528
08/11/2014  20:28:00       39.669      -16.035       64.111       62.609      109.580       60.425     3919.871    12007.748     3651.237        1.276        0.979       42.787       66.292        2.400      346.125       24.145      863.543
08/11/2014  20:29:00       92.479     -143.979       19.421      100.408      138.654       66.840    10081.691    19224.921     4467.626        3.171        1.689      171.121       77.178        0.203      346.157       24.202      863.551
08/11/2014  20:30:00      -11.404       48.897      119.996       47.112       90.030       72.532     2219.524     8105.488     5260.948        1.625        0.779       50.209       66.954        1.778      346.144       24.178      863.565
08/11/2014  20:31:00       72.425      -11.619      110.684       88.352      125.787       85.690     7806.027    15822.374     7342.696        2.430        1.549       73.351       88.656        1.461      346.152       24.192      863.572
08/11/2014  20:32:00      141.567     -164.777       -4.279       81.174       95.944       54.226     6589.189     9205.259     2940.420        3.297        0.937      217.239       57.924        0.071      346.166       24.216      863.598
08/11/2014  20:33:00      213.697     -141.397       14.477      143.300      184.780      113.991    20534.853    34143.717    12993.954        6.676        3.384      256.241      143.483        0.314      346.120       24.137      863.596
08/11/2014  20:34:00      128.406      -75.872       42.612      104.369      141.737       90.502    10892.842    20089.394     8190.662        3.161        1.959      149.146      103.705        0.483      346.094       24.092      863.591
08/11/2014  20:35:00      107.557     -142.140       -7.337       81.232      110.074       49.008     6598.687    12116.202     2401.740        2.647        1.056      178.248       50.331        0.080      346.079       24.064      863.615
08/11/2014  20:36:00       98.181     -122.943       -4.547       55.082       56.462       43.611     3034.075     3187.917     1901.932        1.645        0.406      157.336       36.053        0.053      346.076       24.062      863.629
08/11/2014  20:37:00       92.813      -91.665        6.586       70.458      104.592       61.176     4964.358    10939.433     3742.524        1.835        0.982      130.448       72.155        0.306      346.046       24.010      863.633
08/11/2014  20:38:00       69.458      -65.437       32.109       58.049       82.621       49.322     3369.732     6826.229     2432.680        1.138        0.631       95.427       53.622        0.316      346.023       23.971      863.651
08/11/2014  20:39:00       16.366      -33.749       34.883       33.259       67.604       42.236     1106.168     4570.335     1783.855        0.504        0.373       37.507       50.520        1.814      346.021       23.968      863.658
08/11/2014  20:40:00       16.126       16.968       56.691       38.972       48.083       48.010     1518.833     2311.972     2304.934        0.495        0.307       23.409       38.322        2.680      345.989       23.914      863.656
08/11/2014  20:41:00       67.075      -35.490       38.902       75.130       85.928       59.327     5644.461     7383.631     3519.643        1.191        0.827       75.885       65.518        0.745      346.002       23.936      863.637
08/11/2014  20:42:00       80.741      -86.337        7.370       74.008       69.026       39.667     5477.115     4764.574     1573.506        1.292        0.591      118.208       52.373        0.196      345.987       23.911      863.619
08/11/2014  20:43:00       38.568      -19.568       47.199       49.353       71.586       45.024     2435.702     5124.600     2027.131        0.684        0.479       43.248       53.824        1.549      345.961       23.866      863.611
08/11/2014  20:44:00       33.009       46.539       80.023       59.387       73.116       55.216     3526.803     5345.894     3048.812        1.079        0.596       57.057       63.905        1.254      345.954       23.853      863.598
08/11/2014  20:45:00       18.554       37.955       67.891       34.746       43.661       30.975     1207.250     1906.271      959.480        0.523        0.204       42.247       25.067        0.352      345.936       23.823      863.586
08/11/2014  20:46:00       82.977      -46.070       21.760       55.472       74.825       43.257     3077.158     5598.852     1871.187        1.001        0.527       94.908       39.934        0.177      345.963       23.870      863.612
08/11/2014  20:47:00      103.503     -119.946       -7.831       61.234       69.790       50.690     3749.578     4870.605     2569.526        1.817        0.559      158.429       51.669        0.106      345.987       23.911      863.615
08/11/2014  20:48:00       81.597      -82.642        9.768       66.017       88.551       52.931     4358.296     7841.303     2801.694        1.429        0.750      116.137       58.104        0.250      345.994       23.922      863.606
08/11/2014  20:49:00       45.846      -67.555        6.006       43.224       56.275       39.117     1868.278     3166.883     1530.126        0.663        0.328       81.642       34.050        0.174      346.079       24.068      863.608
08/11/2014  20:50:00       22.581      -25.672       23.179       24.574       40.881       29.938      603.887     1671.249      896.288        0.244        0.159       34.190       23.293        0.464      345.940       23.830      863.597
08/11/2014  20:51:00       29.721      -41.701        1.298       37.411       41.167       29.883     1399.613     1694.732      893.005        0.330        0.199       51.209       25.213        0.242      345.914       23.787      863.576
08/11/2014  20:52:00       59.590      -90.964       -1.063       40.971       47.992       26.521     1678.656     2303.279      703.375        0.826        0.234      108.745       21.248        0.038      345.937       23.824      863.531
08/11/2014  20:53:00       53.238      -28.521       12.262       41.992       37.035       20.462     1763.337     1371.568      418.689        0.368        0.178       60.396       15.957        0.070      345.936       23.822      863.478
08/11/2014  20:54:00       14.275      -42.544        9.737       27.031       41.788       31.047      730.679     1746.211      963.932        0.277        0.172       44.875       31.471        0.492      345.922       23.799      863.436
08/11/2014  20:55:00        4.874        8.866       28.140       15.903       23.959       13.135      252.895      574.031      172.523        0.095        0.050       10.117       14.302        1.998      345.899       23.759      863.423
08/11/2014  20:56:00      -22.339      -34.449       15.778       32.049       43.023       26.464     1027.155     1850.978      700.331        0.276        0.179       41.058       10.218        0.062      345.895       23.753      863.417
08/11/2014  20:57:00      -70.798      -31.665        2.639       49.389       31.306       16.535     2439.239      980.036      273.410        0.486        0.185       77.556        6.990        0.008      345.807       23.600      863.433
08/11/2014  20:58:00      -52.410      -63.233        3.482       32.989       25.168       16.925     1088.260      633.439      286.444        0.438        0.100       82.130        7.950        0.009      345.875       23.720      863.434
08/11/2014  20:59:00      -88.778      -54.278        2.663       36.346       26.949       22.533     1321.011      726.224      507.730        0.669        0.128      104.056       23.074        0.049      345.818       23.620      863.442
08/11/2014  21:00:00     -127.979      -80.501        0.581       49.790       49.499       31.789     2479.066     2450.185     1010.536        1.440        0.297      151.192       30.780        0.041      345.875       23.718      863.439
08/11/2014  21:01:00     -150.785      -56.356       -2.294       54.853       44.714       31.010     3008.868     1999.376      961.601        1.594        0.298      160.973       23.722        0.022      345.919       23.794      863.408
08/11/2014  21:02:00     -171.530      -85.912        0.724      101.907       62.156       31.797    10385.035     3863.395     1011.071        2.603        0.763      191.842       37.612        0.038      345.919       23.791      863.359
08/11/2014  21:03:00     -181.949      -52.555       -5.229       71.476       67.353       34.673     5108.816     4536.488     1202.186        2.337        0.542      189.387       36.899        0.038      345.911       23.778      863.321
08/11/2014  21:04:00     -175.252      -99.655      -24.193       57.853       90.077       36.000     3346.978     8113.815     1295.982        2.699        0.638      201.604       34.475        0.029      345.930       23.810      863.263
08/11/2014  21:05:00     -212.361      -33.176       -9.617       65.220       69.398       37.031     4253.584     4816.111     1371.259        2.836        0.522      214.937       37.540        0.031      345.826       23.632      863.214
08/11/2014  21:06:00     -190.177        8.591      -12.930      114.044       82.224       45.751    13006.069     6760.807     2093.132        2.913        1.093      190.371       49.302        0.067      345.751       23.504      863.149
08/11/2014  21:07:00     -335.659       -5.876      -28.389      100.400       90.893       47.104    10080.094     8261.516     2218.769        6.703        1.028      335.711       45.909        0.019      345.809       23.602      863.089
08/11/2014  21:08:00     -348.643      -46.472      -38.102      118.362       70.325       41.139    14009.499     4945.562     1692.450        7.290        1.032      351.726       49.641        0.020      345.755       23.507      863.068
08/11/2014  21:09:00     -213.359      -61.851       -1.388       99.652       80.003       42.233     9930.513     6400.474     1783.629        3.373        0.906      222.143       39.424        0.031      345.685       23.389      863.058
08/11/2014  21:10:00     -228.659      -41.661      -10.623       90.536       63.931       42.671     8196.752     4087.146     1820.820        3.412        0.705      232.423       43.542        0.035      345.646       23.319      863.053
08/11/2014  21:11:00     -241.806      -33.184       -2.794      102.710       69.449       52.804    10549.250     4823.157     2788.270        3.887        0.908      244.072       49.115        0.040      345.690       23.399      863.034
08/11/2014  21:12:00     -282.517      -32.578       -6.478      100.694       88.302       49.040    10139.190     7797.271     2404.875        5.063        1.017      284.389       48.527        0.029      345.781       23.554      863.001
08/11/2014  21:13:00     -264.673      -85.898       -4.769       94.737       62.847       43.795     8975.045     3949.693     1918.033        4.614        0.742      278.263       31.534        0.013      345.723       23.455      862.983
08/11/2014  21:14:00     -182.270      -40.504       -1.079      100.824       72.666       38.149    10165.419     5280.309     1455.360        2.588        0.845      186.716       47.612        0.065      345.692       23.400      862.968
08/11/2014  21:15:00     -174.585      -43.134        0.746       61.383       52.820       32.843     3767.843     2789.906     1078.635        1.999        0.382      179.835       36.125        0.040      345.700       23.416      862.944
08/11/2014  21:16:00     -189.287      -23.592      -11.007       62.643       64.363       33.757     3924.158     4142.585     1139.535        2.285        0.460      190.751       36.354        0.036      345.709       23.431      862.918
08/11/2014  21:17:00     -110.561      -41.072       -4.671       45.157       50.053       31.074     2039.170     2505.316      965.592        0.972        0.276      117.944       25.807        0.048      345.697       23.412      862.920
08/11/2014  21:18:00      -32.828      -51.960       17.409       69.467       42.372       33.224     4825.662     1795.346     1103.854        0.590        0.386       61.462       36.611        0.355      345.692       23.403      862.944
08/11/2014  21:19:00     -121.380      -25.690       10.447       58.826       50.711       34.929     3460.532     2571.578     1220.069        1.138        0.363      124.069       32.674        0.069      345.670       23.368      863.004
08/11/2014  21:20:00      -37.523      -89.239       -1.045       71.943       44.461       27.212     5175.838     1976.792      740.494        0.863        0.395       96.807        7.029        0.005      345.754       23.510      863.073
08/11/2014  21:21:00      -23.812     -149.428       -4.289       40.631       65.333       26.038     1650.860     4268.447      677.980        1.475        0.330      151.314       19.070        0.016      345.857       23.687      863.143
08/11/2014  21:22:00      -39.353     -139.926       -1.082       38.902       56.156       25.240     1513.400     3153.477      637.079        1.322        0.265      145.355       21.040        0.021      345.828       23.638      863.225
08/11/2014  21:23:00       -4.699        4.830       30.371       21.738       53.730       24.108      472.528     2886.902      581.198        0.245        0.197        6.738       12.553        3.470      345.691       23.402      863.261
08/11/2014  21:24:00       13.263       16.894       48.755       27.901       44.080       31.767      778.454     1943.043     1009.161        0.328        0.187       21.478       23.371        1.184      345.665       23.357      863.286
08/11/2014  21:25:00       29.564      -65.987       -5.578       43.399       28.174       22.776     1883.445      793.760      518.743        0.423        0.160       72.307       14.099        0.038      345.685       23.391      863.312
08/11/2014  21:26:00        5.498      -49.030       -8.619       57.335       30.021       17.324     3287.308      901.240      300.136        0.350        0.224       49.338       19.677        0.159      345.730       23.467      863.333
08/11/2014  21:27:00       19.797      -23.240        6.788       33.225       35.963       23.163     1103.923     1293.366      536.533        0.196        0.147       30.529       22.478        0.542      345.643       23.320      863.354
08/11/2014  21:28:00       73.972      -62.171       30.301       67.045      125.446       75.979     4495.075    15736.719     5772.841        1.812        1.300       96.628       87.506        0.820      345.666       23.357      863.374
08/11/2014  21:29:00       10.316      126.141      141.418       35.918       64.357       35.714     1290.123     4141.830     1275.470        2.136        0.335      126.562       37.097        0.086      345.668       23.362      863.368
08/11/2014  21:30:00       36.727       18.174       81.888       49.900      106.079       63.524     2489.981    11252.851     4035.285        1.308        0.889       40.977       77.525        3.579      345.636       23.307      863.385
08/11/2014  21:31:00       -3.171       85.638      104.911       31.100       50.195       38.167      967.240     2519.539     1456.697        1.165        0.247       85.697       39.031        0.207      345.625       23.287      863.393
08/11/2014  21:32:00       85.193      -31.288       42.529       77.167       73.426       44.559     5954.706     5391.329     1985.468        1.169        0.667       90.757       49.043        0.292      345.614       23.270      863.397
08/11/2014  21:33:00       83.957      -71.476       16.980       59.532       60.745       39.510     3544.102     3689.964     1561.022        1.062        0.440      110.262       32.450        0.087      345.581       23.212      863.406
08/11/2014  21:34:00       56.341      -35.547       17.840       40.579       67.773       30.504     1646.648     4593.130      930.518        0.596        0.359       66.618       34.350        0.266      345.557       23.172      863.412
08/11/2014  21:35:00       30.997       34.168       48.898       36.215       27.311       24.615     1311.535      745.866      605.880        0.359        0.133       46.133       17.206        0.139      345.500       23.074      863.410
08/11/2014  21:36:00       32.450       55.430       58.622       55.393       37.849       35.066     3068.366     1432.526     1229.653        0.665        0.287       64.230       38.510        0.359      345.555       23.169      863.403
08/11/2014  21:37:00       70.544       17.054       21.834       42.907       32.002       30.438     1841.011     1024.112      926.502        0.477        0.190       72.576       25.074        0.119      345.614       23.270      863.392
08/11/2014  21:38:00       57.558       52.041       41.926       26.914       20.001       19.374      724.368      400.059      375.342        0.464        0.075       77.596       15.035        0.038      345.565       23.184      863.395
08/11/2014  21:39:00       72.984       24.726       43.875       72.493       45.240       36.588     5255.248     2046.693     1338.663        0.825        0.432       77.058       38.431        0.249      345.544       23.148      863.414
08/11/2014  21:40:00       30.712       11.172       64.848       60.849       90.510       45.562     3702.619     8191.973     2075.903        0.962        0.699       32.680       53.763        2.706      345.523       23.113      863.430
08/11/2014  21:41:00      125.181     -123.781      -13.170       75.226       67.379       45.938     5659.004     4539.902     2110.307        2.173        0.615      176.046       41.321        0.055      345.583       23.215      863.446
08/11/2014  21:42:00       61.519      -30.804       46.083       82.875      117.133       79.281     6868.335    13720.072     6285.546        1.686        1.344       68.800       93.714        1.855      345.525       23.115      863.450
08/11/2014  21:43:00       69.904     -152.818      -16.121       60.338       40.547       40.765     3640.652     1644.094     1661.766        1.772        0.347      168.048       27.606        0.027      345.585       23.219      863.470
08/11/2014  21:44:00       72.789     -133.689       -1.966       62.454       54.863       41.443     3900.560     3010.003     1717.496        1.590        0.431      152.221       37.359        0.060      345.508       23.087      863.467
08/11/2014  21:45:00       26.793        9.100       67.154       40.460       59.802       41.901     1636.972     3576.232     1755.727        0.614        0.348       28.296       39.563        1.955      345.414       22.927      863.451
08/11/2014  21:46:00       31.398        2.443       29.575       36.645       62.911       37.641     1342.856     3957.838     1416.824        0.429        0.336       31.493       39.692        1.588      345.458       23.003      863.430
08/11/2014  21:47:00       74.703      -35.244       30.512       58.927       73.008       37.274     3472.401     5330.225     1389.387        0.897        0.510       82.599       44.813        0.294      345.500       23.074      863.427
08/11/2014  21:48:00       36.284      -81.674       -2.777       40.207       56.139       25.124     1616.620     3151.600      631.210        0.670        0.270       89.371       29.465        0.109      345.454       22.994      863.423
08/11/2014  21:49:00      110.005     -136.197      -13.614       35.359       50.209       27.811     1250.224     2520.895      773.431        1.769        0.227      175.074       16.610        0.009      345.459       23.002      863.409
08/11/2014  21:50:00       35.084      -91.144        6.636       49.129       39.195       36.409     2413.620     1536.250     1325.606        0.743        0.264       97.663       28.306        0.084      345.341       22.802      863.404
08/11/2014  21:51:00       50.248     -127.376      -12.940       69.829       45.258       37.968     4876.037     2048.322     1441.606        1.364        0.418      136.928       36.148        0.070      345.334       22.790      863.402
08/11/2014  21:52:00       33.256     -119.695       -7.118       48.758       62.286       28.056     2377.377     3879.593      787.132        1.126        0.352      124.229       24.030        0.037      345.316       22.757      863.410
08/11/2014  21:53:00        5.669     -100.460      -18.589       52.393       48.142       25.052     2745.049     2317.692      627.610        0.808        0.285      100.620       22.860        0.052      345.250       22.647      863.413
08/11/2014  21:54:00      -59.960      -75.609       -3.102       31.804       37.585       23.762     1011.474     1412.651      564.642        0.615        0.149       96.498       11.227        0.014      345.199       22.560      863.413
08/11/2014  21:55:00      -39.452      -68.860       -3.304       44.095       44.146       24.948     1944.361     1948.867      622.381        0.541        0.226       79.361       17.655        0.049      345.198       22.557      863.411
08/11/2014  21:56:00      -25.948      -58.571       -8.597       37.433       31.763       22.320     1401.244     1008.910      498.195        0.354        0.145       64.061       16.386        0.065      345.197       22.556      863.423
08/11/2014  21:57:00       -2.083      -73.797       -1.226       44.251       55.844       33.046     1958.149     3118.599     1092.030        0.581        0.308       73.826       34.228        0.215      345.148       22.470      863.423
08/11/2014  21:58:00      -29.735      -65.821       -6.976       36.642       24.683       19.546     1342.603      609.237      382.060        0.380        0.117       72.226        8.689        0.014      345.113       22.412      863.424
08/11/2014  21:59:00      -12.952      -81.967       -9.801       52.108       38.696       27.432     2715.239     1497.352      752.530        0.597        0.248       82.984       14.197        0.029      345.042       22.290      863.422
08/11/2014  22:00:00      -43.990      -89.633      -13.470       36.620       39.490       28.540     1340.994     1559.486      814.506        0.693        0.186       99.846       22.144        0.049      345.058       22.317      863.420
08/11/2014  22:01:00      -30.628     -128.407      -12.283       36.306       35.097       31.934     1318.142     1231.831     1019.776        1.057        0.178      132.009       18.300        0.019      345.094       22.380      863.399
08/11/2014  22:02:00      -59.664      -79.859       -9.456       44.621       39.002       23.024     1991.052     1521.142      530.121        0.703        0.202       99.686       20.953        0.044      345.018       22.249      863.375
08/11/2014  22:03:00      -70.949     -112.425       -9.042       40.311       48.644       20.194     1624.992     2366.276      407.808        1.108        0.220      132.940       18.823        0.020      345.024       22.258      863.352
08/11/2014  22:04:00      -69.687      -89.861       -2.737       34.657       49.671       24.214     1201.096     2467.182      586.309        0.860        0.213      113.716       19.575        0.030      344.994       22.207      863.327
08/11/2014  22:05:00      -44.507     -167.642       -5.458       37.511       32.850       26.517     1407.108     1079.133      703.135        1.665        0.159      173.450       20.346        0.014      344.960       22.150      863.310
08/11/2014  22:06:00      -68.324     -108.691       -3.237       75.938       48.175       46.550     5766.564     2320.854     2166.863        1.337        0.513      128.382       32.454        0.064      344.921       22.083      863.318
08/11/2014  22:07:00      -22.367      -78.230        3.907       59.252       35.694       26.916     3510.742     1274.076      724.459        0.607        0.275       81.365       26.103        0.103      344.905       22.054      863.324
08/11/2014  22:08:00      -24.535      -50.926       -3.830       38.601       43.339       31.090     1490.000     1878.274      966.617        0.377        0.217       56.529       21.054        0.139      344.848       21.959      863.331
08/11/2014  22:09:00       -8.007      -57.579        0.271       26.051       41.476       24.515      678.680     1720.238      600.980        0.319        0.150       58.133       15.729        0.073      344.798       21.873      863.363
08/11/2014  22:10:00       23.598      -85.323       -3.334       49.285       49.313       41.168     2429.034     2431.777     1694.838        0.720        0.328       88.526       31.076        0.123      344.795       21.867      863.372
08/11/2014  22:11:00        6.042      -55.086       14.462       31.591       53.440       31.734      997.980     2855.783     1007.033        0.407        0.243       55.416       27.622        0.248      344.778       21.837      863.381
08/11/2014  22:12:00        6.959      -10.628       39.507       24.801       44.646       37.567      615.102     1993.294     1411.314        0.287        0.201       12.704       27.262        4.605      344.718       21.735      863.405
08/11/2014  22:13:00       34.091       30.222       64.226       63.190       69.541       48.579     3992.953     4835.895     2359.901        0.869        0.559       45.559       52.677        1.337      344.832       21.933      863.424
08/11/2014  22:14:00       85.529      -31.938       58.861       74.097       71.610       53.821     5490.371     5127.935     2896.678        1.265        0.676       91.298       55.334        0.367      344.911       22.066      863.431
08/11/2014  22:15:00       10.285       45.296      105.681       64.358       82.528       53.565     4142.015     6810.897     2869.240        1.357        0.691       46.449       63.164        1.849      344.939       22.114      863.418
08/11/2014  22:16:00       69.354     -103.584        5.922       59.362       87.119       51.601     3523.828     7589.756     2662.618        1.467        0.689      124.658       61.703        0.245      344.926       22.091      863.405
08/11/2014  22:17:00       36.883      -31.210       19.598       38.459       44.998       31.452     1479.105     2024.859      989.226        0.360        0.225       48.316       21.326        0.195      344.947       22.128      863.391
08/11/2014  22:18:00        9.571      -52.594       14.236       28.829       27.388       26.132      831.099      750.114      682.867        0.266        0.113       53.458       16.474        0.095      345.030       22.269      863.371
08/11/2014  22:19:00      -27.681       -4.127       -8.784       16.823       18.896       15.452      283.004      357.057      238.762        0.087        0.044       27.987       10.210        0.133      344.768       21.820      863.345
08/11/2014  22:20:00       -7.359       -9.270       -2.633       20.213       25.500       10.390      408.576      650.241      107.953        0.066        0.058       11.836        8.175        0.477      344.802       21.881      863.327
08/11/2014  22:21:00        4.712      -35.261        0.838       26.305       18.920       17.993      691.939      357.985      323.754        0.132        0.069       35.574       12.255        0.119      344.965       22.159      863.326
08/11/2014  22:22:00       21.205      -33.431        8.690       15.157       26.647       17.524      229.729      710.059      307.086        0.144        0.062       39.589       13.756        0.121      344.900       22.047      863.327
08/11/2014  22:23:00       29.484       25.587       -0.482        8.707       16.971        9.123       75.806      288.020       83.236        0.099        0.022       39.039        7.312        0.035      344.871       21.999      863.318
08/11/2014  22:24:00       11.150        2.768        6.796       14.415       18.100       11.397      207.798      327.599      129.890        0.042        0.033       11.489        7.635        0.442      344.668       21.650      863.328
08/11/2014  22:25:00      -15.818        6.438        1.228       14.991        9.187        8.936      224.725       84.408       79.855        0.034        0.019       17.078        8.115        0.226      344.693       21.692      863.326
08/11/2014  22:26:00      -51.615       45.961      -11.013       37.761       27.455       10.269     1425.903      753.780      105.454        0.359        0.114       69.112       14.020        0.041      344.736       21.767      863.299
08/11/2014  22:27:00      -81.592       73.435      -10.955       13.847       16.219       10.768      191.753      263.047      115.955        0.637        0.029      109.773        4.902        0.002      344.589       21.516      863.266
08/11/2014  22:28:00      -51.355       71.133      -14.706       17.038       18.149       10.870      290.291      329.387      118.167        0.433        0.037       87.733        4.299        0.002      344.544       21.438      863.243
08/11/2014  22:29:00      -35.118       68.969      -16.000       18.729       21.229       10.841      350.768      450.670      117.518        0.358        0.046       77.395       10.030        0.017      344.591       21.520      863.231
08/11/2014  22:30:00      -35.303       58.572      -11.397       13.582       17.088       11.579      184.466      291.995      134.085        0.271        0.031       68.389        9.630        0.020      344.473       21.317      863.226
08/11/2014  22:31:00      -32.075       31.764       -7.447       16.359       11.949        8.411      267.601      142.790       70.744        0.129        0.024       45.142        6.405        0.020      344.442       21.264      863.220
08/11/2014  22:32:00      -32.557       21.190       -8.640       12.299       10.807        9.210      151.276      116.795       84.822        0.097        0.018       38.846        5.320        0.019      344.431       21.244      863.213
08/11/2014  22:33:00      -15.118       30.601       -3.968       14.643       24.948        8.021      214.409      622.409       64.330        0.104        0.045       34.131        7.359        0.046      344.538       21.429      863.216
08/11/2014  22:34:00       29.474       51.465       -1.564       12.788       21.628       13.876      163.543      467.769      192.537        0.217        0.041       59.308       12.967        0.048      344.656       21.629      863.231
08/11/2014  22:35:00       37.761       64.136       -1.728       23.146       40.952       19.879      535.721     1677.064      395.173        0.407        0.130       74.426       20.542        0.076      344.684       21.679      863.245
08/11/2014  22:36:00       57.088       54.544       -2.530       35.126       29.413       23.621     1233.831      865.099      557.962        0.445        0.133       78.957       20.452        0.067      344.695       21.697      863.256
08/11/2014  22:37:00       62.321       40.028       19.402       35.073       20.362       19.917     1230.097      414.612      396.697        0.395        0.102       74.069       12.079        0.027      344.622       21.571      863.270
08/11/2014  22:38:00       27.912       29.848        5.609       21.217       14.826        7.769      450.181      219.815       60.351        0.122        0.037       40.865       10.423        0.065      344.695       21.693      863.280
08/11/2014  22:39:00       42.710       21.627        6.043       18.015       13.350       12.495      324.532      178.218      156.136        0.149        0.033       47.873        5.448        0.013      344.654       21.628      863.300
08/11/2014  22:40:00       41.170       27.322       20.096       24.477       25.101       16.580      599.140      630.068      274.891        0.217        0.075       49.411       12.772        0.067      344.493       21.351      863.311
08/11/2014  22:41:00       31.257       -0.324        4.884       20.605       38.885       16.500      424.556     1512.009      272.259        0.160        0.110       31.259        6.883        0.048      344.512       21.382      863.323
08/11/2014  22:42:00        7.374       13.090       37.783       19.904       22.001       10.894      396.153      484.028      118.674        0.133        0.050       15.024        6.505        0.187      344.272       20.973      863.344
08/11/2014  22:43:00       30.131       -5.222       25.392       30.107       33.060       24.547      906.414     1092.944      602.543        0.209        0.130       30.580       22.442        0.539      344.558       21.462      863.365
08/11/2014  22:44:00       30.438      -48.646       25.413       34.779       49.708       40.602     1209.550     2470.898     1648.535        0.463        0.266       57.383       36.888        0.413      344.542       21.435      863.379
08/11/2014  22:45:00       38.992      -82.115       -5.392       39.520       30.527       21.946     1561.835      931.918      481.625        0.563        0.149       90.902       18.807        0.043      344.562       21.469      863.383
08/11/2014  22:46:00        7.082      -41.513       12.227       33.273       32.249       19.399     1107.073     1039.999      376.327        0.222        0.126       42.113       17.656        0.176      344.448       21.274      863.374
08/11/2014  22:47:00       13.756      -26.964        7.305       27.219       39.041       23.644      740.848     1524.233      559.022        0.190        0.141       30.270       26.063        0.741      344.515       21.387      863.362
08/11/2014  22:48:00       69.354      -72.368       -1.222       64.967       79.413       30.507     4220.735     6306.428      930.703        1.075        0.573      100.235       42.367        0.179      344.587       21.511      863.360
08/11/2014  22:49:00       43.999      -26.348       17.322       37.506       51.152       38.785     1406.716     2616.533     1504.274        0.423        0.276       51.285       33.101        0.417      344.467       21.306      863.355
08/11/2014  22:50:00       61.142      -36.876        9.883       41.749       64.712       33.083     1742.962     4187.612     1094.505        0.611        0.351       71.402       44.159        0.382      344.571       21.484      863.366
08/11/2014  22:51:00       49.057       31.657       22.733       24.370       26.008       20.686      593.879      676.395      427.903        0.281        0.085       58.384       15.207        0.068      344.425       21.236      863.353
08/11/2014  22:52:00       66.266       27.857       12.679       39.604       28.999       17.952     1568.500      840.930      322.292        0.403        0.137       71.883       17.260        0.058      344.534       21.421      863.337
08/11/2014  22:53:00       93.777       69.854       27.397       40.732       32.124       27.668     1659.072     1031.921      765.526        0.894        0.173      116.935       11.289        0.009      344.559       21.464      863.336
08/11/2014  22:54:00       84.123       57.634       36.853       37.679       22.102       23.862     1419.688      488.501      569.390        0.712        0.124      101.972       20.660        0.041      344.606       21.545      863.344
08/11/2014  22:55:00       49.603       49.052       27.109       29.426       22.711       30.393      865.890      515.782      923.718        0.395        0.115       69.761       15.930        0.052      344.452       21.280      863.358
08/11/2014  22:56:00       53.712       35.048       22.532       29.704       18.935       22.620      882.337      358.531      511.654        0.319        0.088       64.135       10.836        0.029      344.308       21.035      863.359
08/11/2014  22:57:00       55.617       33.111       29.848       35.677       26.288       25.853     1272.864      691.050      668.364        0.386        0.132       64.727       18.129        0.078      344.329       21.071      863.354
08/11/2014  22:58:00       23.053       11.133       11.588       43.893       28.907       13.242     1926.614      835.622      175.352        0.186        0.147       25.600       16.242        0.403      344.323       21.061      863.334
08/11/2014  22:59:00       59.216       39.586       19.193       27.024       21.740       21.386      730.274      472.631      457.353        0.355        0.083       71.229       10.510        0.022      344.309       21.035      863.324
08/11/2014  23:00:00       96.831       56.336       45.004       51.796       40.209       34.394     2682.872     1616.724     1182.941        1.003        0.274      112.027       22.973        0.042      344.410       21.210      863.334
08/11/2014  23:01:00       74.279       58.073       72.820       44.400       40.171       36.539     1971.321     1613.685     1335.077        0.956        0.246       94.286       28.043        0.088      344.543       21.436      863.337
08/11/2014  23:02:00       57.118       46.366       44.828       44.315       26.802       29.039     1963.825      718.330      843.257        0.547        0.176       73.568       23.710        0.104      344.406       21.202      863.325
08/11/2014  23:03:00       -4.476        4.751       26.706       13.527       20.862       13.741      182.984      435.222      188.806        0.078        0.040        6.527       10.193        2.438      344.310       21.037      863.306
08/11/2014  23:04:00       12.762        4.650       -1.290       22.185       16.575        6.872      492.189      274.729       47.219        0.050        0.041       13.582        5.647        0.173      344.302       21.023      863.293
08/11/2014  23:05:00       75.815       41.826       13.474       35.700       22.021       18.295     1274.483      484.920      334.698        0.489        0.105       86.587        8.899        0.011      344.465       21.302      863.280
08/11/2014  23:06:00       58.141       -3.066       40.892       67.759       54.764       30.482     4591.244     2999.050      929.136        0.679        0.426       58.221       30.821        0.280      344.437       21.255      863.288
08/11/2014  23:07:00       17.128       28.890       37.634       32.117       17.785       20.652     1031.475      316.291      426.525        0.216        0.089       33.585       21.273        0.401      344.342       21.094      863.286
08/11/2014  23:08:00       43.004       43.203        6.083       21.140       32.542       18.425      446.892     1059.006      339.483        0.280        0.092       60.958       16.167        0.070      344.332       21.075      863.270
08/11/2014  23:09:00       77.874       42.087       11.267       39.187       30.241       24.081     1535.600      914.523      579.879        0.550        0.152       88.519       15.562        0.031      344.432       21.246      863.258
08/11/2014  23:10:00       30.205       14.137        6.584       41.398       13.972        9.208     1713.753      195.218       84.779        0.157        0.100       33.350       11.998        0.129      344.334       21.079      863.274
08/11/2014  23:11:00       17.651        3.881        2.326       14.211        9.196        9.390      201.945       84.564       88.169        0.035        0.019       18.072        4.888        0.073      344.231       20.902      863.303
08/11/2014  23:12:00       34.132       23.892        1.436       19.171       20.689       14.832      367.530      428.042      219.976        0.138        0.051       41.663        7.073        0.029      344.271       20.970      863.304
08/11/2014  23:13:00       43.375       30.904       12.134       22.059       18.582       20.272      486.583      345.280      410.968        0.211        0.062       53.259       12.927        0.059      344.227       20.897      863.281
08/11/2014  23:14:00       50.582       45.419        7.764       31.735       23.686       20.273     1007.107      561.006      411.001        0.333        0.099       67.981       16.552        0.059      344.263       20.959      863.268
08/11/2014  23:15:00       75.425       34.168       10.825       22.405       19.630       16.781      501.989      385.325      281.595        0.407        0.058       82.803       10.558        0.016      344.188       20.829      863.263
08/11/2014  23:16:00       85.064       34.158       17.485       45.715       36.866       27.515     2089.881     1359.090      757.082        0.646        0.210       91.666       24.384        0.071      344.091       20.665      863.284
08/11/2014  23:17:00       89.352       27.581       13.271       52.807       40.866       28.236     2788.630     1670.038      797.265        0.709        0.263       93.512       25.087        0.072      344.097       20.673      863.286
08/11/2014  23:18:00       66.383       16.106        7.058       51.526       35.698       32.069     2654.904     1274.328     1028.407        0.484        0.248       68.309       28.758        0.177      344.135       20.739      863.284
08/11/2014  23:19:00       41.677       44.484       40.718       38.674       27.782       22.540     1495.681      771.828      508.054        0.407        0.139       60.957       15.214        0.062      344.131       20.732      863.284
08/11/2014  23:20:00       11.339       21.449       39.949       22.823       25.763       15.562      520.872      663.745      242.175        0.181        0.071       24.262       18.480        0.580      344.136       20.740      863.289
08/11/2014  23:21:00      -70.124      -23.975      -15.692       22.974       11.323        9.043      527.802      128.204       81.772        0.324        0.037       74.109        5.615        0.006      343.700       19.995      863.301
08/11/2014  23:22:00      -94.616        4.403       -9.081       28.064       18.610       12.932      787.605      346.318      167.229        0.518        0.065       94.718       12.605        0.018      343.572       19.778      863.289
08/11/2014  23:23:00      -83.694       41.010      -22.138       29.641       24.859       13.926      878.596      617.967      193.945        0.543        0.085       93.201        9.200        0.010      343.633       19.882      863.265
08/11/2014  23:24:00      -27.982       29.420       -2.863       24.250       28.171       18.822      588.046      793.606      354.249        0.170        0.087       40.602       16.844        0.172      343.795       20.158      863.268
08/11/2014  23:25:00      -45.625       22.986       -7.215       14.849       28.117       14.519      220.480      790.569      210.789        0.194        0.061       51.088        9.822        0.037      343.763       20.103      863.268
08/11/2014  23:26:00      -50.342       -3.042      -11.705       10.476       10.315        7.737      109.755      106.409       59.866        0.148        0.014       50.434        5.948        0.014      343.614       19.850      863.277
08/11/2014  23:27:00      -48.156        9.203       -9.815        9.281       10.642       10.523       86.139      113.245      110.732        0.141        0.016       49.028        6.694        0.019      343.700       19.996      863.276
08/11/2014  23:28:00      -41.820       15.212       -5.519       11.392       12.597        9.811      129.774      158.683       96.258        0.120        0.019       44.501        5.665        0.016      343.634       19.883      863.273
08/11/2014  23:29:00      -55.553       39.522       -9.662       10.474        8.300        8.969      109.698       68.890       80.442        0.250        0.013       68.177        4.808        0.005      343.774       20.122      863.266
08/11/2014  23:30:00      -34.466       28.603       -3.637       15.458       12.678       11.874      238.944      160.721      140.988        0.128        0.027       44.789        9.770        0.048      343.742       20.070      863.255
08/11/2014  23:31:00      -22.498       30.713       -6.140       18.082       21.389        9.586      326.961      457.470       91.883        0.118        0.044       38.072        5.300        0.019      343.753       20.086      863.254
08/11/2014  23:32:00      -10.205       27.117       -1.637       14.632       23.732        8.207      214.085      563.193       67.349        0.084        0.042       28.974        8.048        0.077      343.781       20.134      863.248
08/11/2014  23:33:00      -29.445      -16.730       -3.392       16.081       12.209       10.249      258.596      149.066      105.049        0.084        0.026       33.866        4.231        0.016      343.484       19.629      863.237
08/11/2014  23:34:00      -82.231       -5.160      -11.596       10.530       17.345        9.577      110.878      300.861       91.719        0.371        0.025       82.393        6.349        0.006      343.275       19.273      863.204
08/11/2014  23:35:00      -99.485       -3.108      -13.224       35.014       22.232       14.305     1225.993      494.271      204.620        0.600        0.096       99.534       14.579        0.021      343.172       19.097      863.174
08/11/2014  23:36:00     -122.131      -20.707      -11.796       39.083       25.814       16.822     1527.517      666.381      282.984        0.898        0.124      123.874       19.179        0.024      343.118       19.005      863.187
08/11/2014  23:37:00     -132.527      -44.081      -14.792       34.193       38.900       19.114     1169.144     1513.190      365.328        1.139        0.152      139.665       14.566        0.011      343.045       18.881      863.199
08/11/2014  23:38:00     -116.489      -18.881      -13.763       38.918       29.324       17.820     1514.605      859.882      317.551        0.840        0.135      118.009       15.289        0.017      342.970       18.752      863.179
08/11/2014  23:39:00      -56.711        4.521       -7.596       59.392       23.989       17.196     3527.446      575.464      295.708        0.385        0.220       56.890       20.303        0.127      342.962       18.738      863.155
08/11/2014  23:40:00      -32.318      -21.431       -8.362       29.060       23.349       15.825      844.492      545.153      250.442        0.161        0.082       38.778        7.252        0.035      343.082       18.944      863.160
08/11/2014  23:41:00      -74.428      -31.023       -0.485       23.468       19.559       17.864      550.755      382.554      319.115        0.388        0.063       80.635       15.263        0.036      343.113       18.995      863.169
08/11/2014  23:42:00      -22.070      -29.507        8.915       40.232       27.978       25.730     1618.631      782.749      662.025        0.225        0.153       36.848       27.283        0.548      343.029       18.852      863.181
08/11/2014  23:43:00      -62.060      -35.273      -11.633       22.818       20.473       16.475      520.655      419.139      271.409        0.322        0.061       71.384       10.681        0.022      343.008       18.818      863.180
08/11/2014  23:44:00      -94.354       22.808      -13.215       45.671       25.554       18.361     2085.810      652.993      337.117        0.634        0.154       97.071       17.228        0.031      343.047       18.884      863.162
08/11/2014  23:45:00      -91.386       -1.756      -14.655       41.721       36.405       22.466     1740.620     1325.318      504.739        0.607        0.179       91.403       21.176        0.054      343.097       18.970      863.158
08/11/2014  23:46:00      -76.727      -38.019        0.878       46.772       34.607       25.249     2187.614     1197.636      637.498        0.568        0.201       85.629       27.619        0.104      343.047       18.884      863.175
08/11/2014  23:47:00      -69.674      -53.249        6.129       50.326       30.798       26.074     2532.715      948.516      679.876        0.594        0.208       87.692       24.243        0.076      343.102       18.978      863.227
08/11/2014  23:48:00      -74.738      -39.048       -1.551       29.158       26.146       17.821      850.214      683.634      317.583        0.448        0.093       84.324       13.134        0.024      343.013       18.826      863.242
08/11/2014  23:49:00      -37.396        1.734       -5.314       23.870       22.442       13.108      569.757      503.654      171.814        0.134        0.062       37.436       10.500        0.079      342.969       18.751      863.226
08/11/2014  23:50:00      -53.611       50.025      -16.357       22.966       25.117       13.404      527.421      630.852      179.654        0.349        0.067       73.326       11.987        0.027      343.112       18.996      863.214
08/11/2014  23:51:00      -35.234       26.962      -12.497       11.665       19.122        6.602      136.077      365.664       43.587        0.133        0.027       44.366        7.078        0.025      343.233       19.200      863.230
08/11/2014  23:52:00        0.435      102.618      -10.631       18.194       33.379       11.848      331.026     1114.176      140.371        0.611        0.079      102.619       12.957        0.016      343.696       19.989      863.205
08/11/2014  23:53:00       36.284      135.647      -21.301       27.631       28.471       17.583      763.473      810.599      309.168        1.103        0.094      140.416       12.312        0.008      343.685       19.969      863.178
08/11/2014  23:54:00        0.018      121.909      -16.889       26.622       30.213       15.601      708.722      912.837      243.384        0.851        0.093      121.909       17.007        0.019      343.729       20.046      863.190
08/11/2014  23:55:00      -44.545        2.305      -10.709       16.182       32.721        9.743      261.861     1070.686       94.929        0.177        0.071       44.605        7.383        0.027      343.493       19.644      863.224
08/11/2014  23:56:00      -65.905      -29.825       -4.087       18.190       15.941       12.879      330.866      254.107      165.877        0.300        0.038       72.339        5.013        0.005      343.084       18.946      863.222
08/11/2014  23:57:00     -107.422       -9.911      -13.776       21.794       22.139       14.736      474.965      490.152      217.141        0.650        0.059      107.878       12.890        0.014      342.933       18.690      863.205
08/11/2014  23:58:00     -122.861        8.953      -20.900       16.725       12.917        8.153      279.742      166.846       66.472        0.806        0.026      123.186        5.890        0.002      342.890       18.616      863.185
08/11/2014  23:59:00      -52.642       14.140       -7.356       25.224       20.500       13.303      636.236      420.257      176.965        0.213        0.062       54.508       10.341        0.036      342.808       18.477      863.172
